Wetterdaten: Sonntag, 09.10.2016
Datum Zeit Temp. A. Feuchte A. Luftdruck Regen Wind Richtung Richtung Sonnenschein ET UV Solar Taupunkt Windchill Windben Empfang
09.10.2016 00:00 6,9 C 94 % 1021,4 hPa 0,0 l/m 8,7 km/h (2 Bft) S-SW 205 0 min 0,000 mm 0,0 UV-I 0 W/m 6,0 C 5,1 C 14,5 km/h (3 Bft) 95,74 %
09.10.2016 00:02 6,9 C 94 % 1021,3 hPa 0,0 l/m 8,4 km/h (2 Bft) S 175 0 min 0,000 mm 0,0 UV-I 0 W/m 6,0 C 5,3 C 12,9 km/h (3 Bft) 97,83 %
09.10.2016 00:04 6,9 C 94 % 1021,4 hPa 0,0 l/m 8,3 km/h (2 Bft) SW 229 0 min 0,000 mm 0,0 UV-I 0 W/m 6,0 C 5,4 C 14,5 km/h (3 Bft) 95,12 %
09.10.2016 00:06 6,9 C 93 % 1021,3 hPa 0,0 l/m 9,0 km/h (2 Bft) SW 225 0 min 0,000 mm 0,0 UV-I 0 W/m 5,8 C 4,9 C 12,9 km/h (3 Bft) 97,73 %
09.10.2016 00:08 6,9 C 93 % 1021,3 hPa 0,0 l/m 8,5 km/h (2 Bft) S-SW 204 0 min 0,000 mm 0,0 UV-I 0 W/m 5,8 C 5,2 C 12,9 km/h (3 Bft) 94,00 %
09.10.2016 00:10 6,8 C 93 % 1021,3 hPa 0,0 l/m 7,4 km/h (2 Bft) SW 229 0 min 0,000 mm 0,0 UV-I 0 W/m 5,7 C 6,0 C 11,3 km/h (2 Bft) 98,00 %
09.10.2016 00:12 6,8 C 93 % 1021,3 hPa 0,0 l/m 8,5 km/h (2 Bft) SW 232 0 min 0,000 mm 0,0 UV-I 0 W/m 5,7 C 5,1 C 11,3 km/h (2 Bft) 95,74 %
09.10.2016 00:14 6,7 C 94 % 1021,2 hPa 0,0 l/m 7,9 km/h (2 Bft) W-SW 238 0 min 0,000 mm 0,0 UV-I 0 W/m 5,8 C 5,5 C 12,9 km/h (3 Bft) 98,00 %
09.10.2016 00:16 6,7 C 94 % 1021,3 hPa 0,0 l/m 8,9 km/h (2 Bft) W-SW 237 0 min 0,000 mm 0,0 UV-I 0 W/m 5,8 C 4,7 C 12,9 km/h (3 Bft) 97,37 %
09.10.2016 00:18 6,7 C 94 % 1021,2 hPa 0,0 l/m 8,5 km/h (2 Bft) SW 236 0 min 0,000 mm 0,0 UV-I 0 W/m 5,8 C 5,0 C 12,9 km/h (3 Bft) 97,73 %
09.10.2016 00:20 6,6 C 94 % 1021,3 hPa 0,0 l/m 8,0 km/h (2 Bft) SW 236 0 min 0,000 mm 0,0 UV-I 0 W/m 5,7 C 5,3 C 11,3 km/h (2 Bft) 97,62 %
09.10.2016 00:22 6,6 C 94 % 1021,2 hPa 0,0 l/m 7,9 km/h (2 Bft) SW 227 0 min 0,000 mm 0,0 UV-I 0 W/m 5,7 C 5,4 C 11,3 km/h (2 Bft) 98,11 %
09.10.2016 00:24 6,6 C 94 % 1021,3 hPa 0,0 l/m 7,2 km/h (2 Bft) SW 226 0 min 0,000 mm 0,0 UV-I 0 W/m 5,7 C 5,9 C 9,7 km/h (2 Bft) 97,87 %
09.10.2016 00:26 6,5 C 94 % 1021,3 hPa 0,0 l/m 7,4 km/h (2 Bft) SW 223 0 min 0,000 mm 0,0 UV-I 0 W/m 5,6 C 5,7 C 9,7 km/h (2 Bft) 89,36 %
09.10.2016 00:28 6,4 C 94 % 1021,3 hPa 0,0 l/m 7,4 km/h (2 Bft) SW 234 0 min 0,000 mm 0,0 UV-I 0 W/m 5,5 C 5,6 C 11,3 km/h (2 Bft) 98,11 %
09.10.2016 00:30 6,4 C 94 % 1021,3 hPa 0,0 l/m 7,1 km/h (2 Bft) W-SW 239 0 min 0,000 mm 0,0 UV-I 0 W/m 5,5 C 5,8 C 12,9 km/h (3 Bft) 100,00 %
09.10.2016 00:32 6,4 C 94 % 1021,3 hPa 0,0 l/m 7,3 km/h (2 Bft) S-SW 199 0 min 0,000 mm 0,0 UV-I 0 W/m 5,5 C 5,6 C 9,7 km/h (2 Bft) 100,00 %
09.10.2016 00:34 6,4 C 94 % 1021,2 hPa 0,0 l/m 8,2 km/h (2 Bft) S-SW 213 0 min 0,000 mm 0,0 UV-I 0 W/m 5,5 C 4,9 C 9,7 km/h (2 Bft) 95,45 %
09.10.2016 00:36 6,3 C 94 % 1021,2 hPa 0,0 l/m 6,5 km/h (2 Bft) SW 229 0 min 0,000 mm 0,0 UV-I 0 W/m 5,4 C 6,2 C 9,7 km/h (2 Bft) 100,00 %
09.10.2016 00:38 6,3 C 94 % 1021,2 hPa 0,0 l/m 6,8 km/h (2 Bft) W-SW 242 0 min 0,000 mm 0,0 UV-I 0 W/m 5,4 C 6,0 C 11,3 km/h (2 Bft) 98,00 %
09.10.2016 00:40 6,3 C 94 % 1021,2 hPa 0,0 l/m 6,7 km/h (2 Bft) SW 232 0 min 0,000 mm 0,0 UV-I 0 W/m 5,4 C 6,1 C 12,9 km/h (3 Bft) 97,87 %
09.10.2016 00:42 6,2 C 95 % 1021,2 hPa 0,0 l/m 7,5 km/h (2 Bft) SW 224 0 min 0,000 mm 0,0 UV-I 0 W/m 5,5 C 5,3 C 11,3 km/h (2 Bft) 100,00 %
09.10.2016 00:44 6,2 C 95 % 1021,2 hPa 0,0 l/m 6,6 km/h (2 Bft) W-SW 237 0 min 0,000 mm 0,0 UV-I 0 W/m 5,5 C 6,1 C 8,0 km/h (2 Bft) 100,00 %
09.10.2016 00:46 6,2 C 95 % 1021,2 hPa 0,0 l/m 7,1 km/h (2 Bft) SW 235 0 min 0,000 mm 0,0 UV-I 0 W/m 5,5 C 5,6 C 9,7 km/h (2 Bft) 100,00 %
09.10.2016 00:48 6,2 C 95 % 1021,2 hPa 0,0 l/m 7,8 km/h (2 Bft) SW 232 0 min 0,000 mm 0,0 UV-I 0 W/m 5,5 C 5,0 C 11,3 km/h (2 Bft) 100,00 %
09.10.2016 00:50 6,2 C 95 % 1021,2 hPa 0,0 l/m 7,0 km/h (2 Bft) SW 221 0 min 0,000 mm 0,0 UV-I 0 W/m 5,5 C 5,7 C 9,7 km/h (2 Bft) 100,00 %
09.10.2016 00:52 6,1 C 95 % 1021,2 hPa 0,0 l/m 6,8 km/h (2 Bft) SW 221 0 min 0,000 mm 0,0 UV-I 0 W/m 5,4 C 5,8 C 9,7 km/h (2 Bft) 100,00 %
09.10.2016 00:54 6,1 C 95 % 1021,1 hPa 0,0 l/m 6,2 km/h (2 Bft) SW 232 0 min 0,000 mm 0,0 UV-I 0 W/m 5,4 C 6,1 C 8,0 km/h (2 Bft) 100,00 %
09.10.2016 00:56 6,1 C 95 % 1021,1 hPa 0,0 l/m 7,1 km/h (2 Bft) W 269 0 min 0,000 mm 0,0 UV-I 0 W/m 5,4 C 5,5 C 9,7 km/h (2 Bft) 100,00 %
09.10.2016 00:58 6,1 C 95 % 1021,1 hPa 0,0 l/m 8,1 km/h (2 Bft) SW 220 0 min 0,000 mm 0,0 UV-I 0 W/m 5,4 C 4,7 C 11,3 km/h (2 Bft) 100,00 %
09.10.2016 01:00 6,1 C 95 % 1021,2 hPa 0,0 l/m 7,9 km/h (2 Bft) SW 225 0 min 0,000 mm 0,0 UV-I 0 W/m 5,4 C 4,8 C 11,3 km/h (2 Bft) 100,00 %
09.10.2016 01:02 6,1 C 95 % 1021,2 hPa 0,0 l/m 7,0 km/h (2 Bft) SW 234 0 min 0,000 mm 0,0 UV-I 0 W/m 5,4 C 5,6 C 9,7 km/h (2 Bft) 98,11 %
09.10.2016 01:04 6,1 C 95 % 1021,2 hPa 0,0 l/m 7,8 km/h (2 Bft) SW 228 0 min 0,000 mm 0,0 UV-I 0 W/m 5,4 C 4,9 C 11,3 km/h (2 Bft) 97,44 %
09.10.2016 01:06 6,1 C 95 % 1021,2 hPa 0,0 l/m 8,6 km/h (2 Bft) SW 222 0 min 0,000 mm 0,0 UV-I 0 W/m 5,4 C 4,3 C 11,3 km/h (2 Bft) 98,00 %
09.10.2016 01:08 6,2 C 95 % 1021,2 hPa 0,0 l/m 9,4 km/h (2 Bft) SW 229 0 min 0,000 mm 0,0 UV-I 0 W/m 5,5 C 3,8 C 12,9 km/h (3 Bft) 100,00 %
09.10.2016 01:10 6,2 C 95 % 1021,2 hPa 0,0 l/m 7,7 km/h (2 Bft) SW 227 0 min 0,000 mm 0,0 UV-I 0 W/m 5,5 C 5,1 C 11,3 km/h (2 Bft) 97,87 %
09.10.2016 01:12 6,2 C 95 % 1021,1 hPa 0,0 l/m 7,9 km/h (2 Bft) SW 233 0 min 0,000 mm 0,0 UV-I 0 W/m 5,5 C 4,9 C 12,9 km/h (3 Bft) 100,00 %
09.10.2016 01:14 6,2 C 95 % 1021,2 hPa 0,0 l/m 7,4 km/h (2 Bft) SW 228 0 min 0,000 mm 0,0 UV-I 0 W/m 5,5 C 5,4 C 12,9 km/h (3 Bft) 100,00 %
09.10.2016 01:16 6,3 C 95 % 1021,2 hPa 0,0 l/m 8,7 km/h (2 Bft) SW 233 0 min 0,000 mm 0,0 UV-I 0 W/m 5,6 C 4,4 C 11,3 km/h (2 Bft) 100,00 %
09.10.2016 01:18 6,3 C 95 % 1021,2 hPa 0,0 l/m 9,8 km/h (2 Bft) W-SW 238 0 min 0,000 mm 0,0 UV-I 0 W/m 5,6 C 3,6 C 14,5 km/h (3 Bft) 100,00 %
09.10.2016 01:20 6,3 C 95 % 1021,2 hPa 0,0 l/m 8,2 km/h (2 Bft) W-SW 257 0 min 0,000 mm 0,0 UV-I 0 W/m 5,6 C 4,8 C 12,9 km/h (3 Bft) 97,87 %
09.10.2016 01:22 6,3 C 95 % 1021,2 hPa 0,0 l/m 8,1 km/h (2 Bft) W-SW 246 0 min 0,000 mm 0,0 UV-I 0 W/m 5,6 C 4,9 C 14,5 km/h (3 Bft) 97,87 %
09.10.2016 01:24 6,3 C 95 % 1021,2 hPa 0,0 l/m 7,5 km/h (2 Bft) W-SW 246 0 min 0,000 mm 0,0 UV-I 0 W/m 5,6 C 5,4 C 12,9 km/h (3 Bft) 100,00 %
09.10.2016 01:26 6,3 C 95 % 1021,2 hPa 0,0 l/m 9,4 km/h (2 Bft) S-SW 200 0 min 0,000 mm 0,0 UV-I 0 W/m 5,6 C 3,9 C 14,5 km/h (3 Bft) 100,00 %
09.10.2016 01:28 6,3 C 95 % 1021,2 hPa 0,0 l/m 9,7 km/h (2 Bft) SW 221 0 min 0,000 mm 0,0 UV-I 0 W/m 5,6 C 3,7 C 14,5 km/h (3 Bft) 97,73 %
09.10.2016 01:30 6,2 C 95 % 1021,2 hPa 0,0 l/m 9,5 km/h (2 Bft) W-SW 247 0 min 0,000 mm 0,0 UV-I 0 W/m 5,5 C 3,7 C 12,9 km/h (3 Bft) 100,00 %
09.10.2016 01:32 6,3 C 95 % 1021,2 hPa 0,0 l/m 11,8 km/h (2 Bft) W-SW 242 0 min 0,000 mm 0,0 UV-I 0 W/m 5,6 C 2,4 C 16,1 km/h (3 Bft) 100,00 %
09.10.2016 01:34 6,2 C 94 % 1021,2 hPa 0,0 l/m 9,6 km/h (2 Bft) W-SW 246 0 min 0,000 mm 0,0 UV-I 0 W/m 5,3 C 3,7 C 14,5 km/h (3 Bft) 98,00 %
09.10.2016 01:36 6,2 C 94 % 1021,2 hPa 0,0 l/m 10,0 km/h (2 Bft) SW 219 0 min 0,000 mm 0,0 UV-I 0 W/m 5,3 C 3,4 C 14,5 km/h (3 Bft) 100,00 %
09.10.2016 01:38 6,2 C 94 % 1021,3 hPa 0,0 l/m 8,9 km/h (2 Bft) SW 228 0 min 0,000 mm 0,0 UV-I 0 W/m 5,3 C 4,2 C 11,3 km/h (2 Bft) 100,00 %
09.10.2016 01:40 6,2 C 94 % 1021,2 hPa 0,0 l/m 9,5 km/h (2 Bft) SW 227 0 min 0,000 mm 0,0 UV-I 0 W/m 5,3 C 3,7 C 16,1 km/h (3 Bft) 100,00 %
09.10.2016 01:42 6,2 C 94 % 1021,3 hPa 0,0 l/m 10,6 km/h (2 Bft) SW 227 0 min 0,000 mm 0,0 UV-I 0 W/m 5,3 C 3,0 C 16,1 km/h (3 Bft) 98,11 %
09.10.2016 01:44 6,2 C 94 % 1021,2 hPa 0,0 l/m 10,1 km/h (2 Bft) SW 220 0 min 0,000 mm 0,0 UV-I 0 W/m 5,3 C 3,3 C 16,1 km/h (3 Bft) 100,00 %
09.10.2016 01:46 6,2 C 94 % 1021,3 hPa 0,0 l/m 9,3 km/h (2 Bft) SW 232 0 min 0,000 mm 0,0 UV-I 0 W/m 5,3 C 3,9 C 14,5 km/h (3 Bft) 98,00 %
09.10.2016 01:48 6,1 C 94 % 1021,3 hPa 0,0 l/m 8,6 km/h (2 Bft) S-SW 202 0 min 0,000 mm 0,0 UV-I 0 W/m 5,2 C 4,3 C 14,5 km/h (3 Bft) 100,00 %
09.10.2016 01:50 6,1 C 94 % 1021,3 hPa 0,0 l/m 8,2 km/h (2 Bft) SW 221 0 min 0,000 mm 0,0 UV-I 0 W/m 5,2 C 4,6 C 12,9 km/h (3 Bft) 94,74 %
09.10.2016 01:52 6,1 C 94 % 1021,3 hPa 0,0 l/m 8,9 km/h (2 Bft) SW 231 0 min 0,000 mm 0,0 UV-I 0 W/m 5,2 C 4,1 C 17,7 km/h (3 Bft) 100,00 %
09.10.2016 01:54 6,2 C 94 % 1021,3 hPa 0,0 l/m 10,2 km/h (2 Bft) SW 234 0 min 0,000 mm 0,0 UV-I 0 W/m 5,3 C 3,3 C 14,5 km/h (3 Bft) 97,87 %
09.10.2016 01:56 6,2 C 94 % 1021,3 hPa 0,0 l/m 9,9 km/h (2 Bft) SW 236 0 min 0,000 mm 0,0 UV-I 0 W/m 5,3 C 3,5 C 12,9 km/h (3 Bft) 100,00 %
09.10.2016 01:58 6,2 C 94 % 1021,3 hPa 0,0 l/m 8,3 km/h (2 Bft) SW 235 0 min 0,000 mm 0,0 UV-I 0 W/m 5,3 C 4,6 C 12,9 km/h (3 Bft) 100,00 %
09.10.2016 02:00 6,2 C 94 % 1021,3 hPa 0,0 l/m 9,3 km/h (2 Bft) SW 217 0 min 0,000 mm 0,0 UV-I 0 W/m 5,3 C 3,9 C 12,9 km/h (3 Bft) 100,00 %
09.10.2016 02:02 6,2 C 94 % 1021,3 hPa 0,0 l/m 9,5 km/h (2 Bft) W-SW 238 0 min 0,000 mm 0,0 UV-I 0 W/m 5,3 C 3,7 C 14,5 km/h (3 Bft) 98,00 %
09.10.2016 02:04 6,1 C 94 % 1021,3 hPa 0,0 l/m 9,1 km/h (2 Bft) SW 236 0 min 0,000 mm 0,0 UV-I 0 W/m 5,2 C 3,9 C 12,9 km/h (3 Bft) 97,37 %
09.10.2016 02:06 6,1 C 95 % 1021,3 hPa 0,0 l/m 8,8 km/h (2 Bft) SW 220 0 min 0,000 mm 0,0 UV-I 0 W/m 5,4 C 4,1 C 12,9 km/h (3 Bft) 97,87 %
09.10.2016 02:08 6,1 C 95 % 1021,3 hPa 0,0 l/m 7,7 km/h (2 Bft) W-SW 245 0 min 0,000 mm 0,0 UV-I 0 W/m 5,4 C 5,0 C 12,9 km/h (3 Bft) 95,74 %
09.10.2016 02:10 6,1 C 94 % 1021,3 hPa 0,0 l/m 8,8 km/h (2 Bft) SW 229 0 min 0,000 mm 0,0 UV-I 0 W/m 5,2 C 4,1 C 12,9 km/h (3 Bft) 95,74 %
09.10.2016 02:12 6,1 C 94 % 1021,4 hPa 0,0 l/m 8,4 km/h (2 Bft) SW 235 0 min 0,000 mm 0,0 UV-I 0 W/m 5,2 C 4,4 C 11,3 km/h (2 Bft) 97,87 %
09.10.2016 02:14 6,1 C 94 % 1021,4 hPa 0,0 l/m 7,7 km/h (2 Bft) SW 235 0 min 0,000 mm 0,0 UV-I 0 W/m 5,2 C 5,0 C 11,3 km/h (2 Bft) 95,74 %
09.10.2016 02:16 6,1 C 94 % 1021,4 hPa 0,0 l/m 7,5 km/h (2 Bft) SW 219 0 min 0,000 mm 0,0 UV-I 0 W/m 5,2 C 5,2 C 9,7 km/h (2 Bft) 98,00 %
09.10.2016 02:18 6,1 C 94 % 1021,4 hPa 0,0 l/m 6,1 km/h (2 Bft) SW 235 0 min 0,000 mm 0,0 UV-I 0 W/m 5,2 C 6,1 C 9,7 km/h (2 Bft) 95,74 %
09.10.2016 02:20 6,0 C 95 % 1021,3 hPa 0,0 l/m 7,7 km/h (2 Bft) W-SW 240 0 min 0,000 mm 0,0 UV-I 0 W/m 5,3 C 4,9 C 12,9 km/h (3 Bft) 97,87 %
09.10.2016 02:22 6,0 C 95 % 1021,3 hPa 0,0 l/m 8,2 km/h (2 Bft) SW 229 0 min 0,000 mm 0,0 UV-I 0 W/m 5,3 C 4,5 C 12,9 km/h (3 Bft) 98,00 %
09.10.2016 02:24 6,0 C 95 % 1021,3 hPa 0,0 l/m 9,9 km/h (2 Bft) W-SW 242 0 min 0,000 mm 0,0 UV-I 0 W/m 5,3 C 3,2 C 14,5 km/h (3 Bft) 95,74 %
09.10.2016 02:26 6,0 C 95 % 1021,3 hPa 0,0 l/m 9,0 km/h (2 Bft) S-SW 202 0 min 0,000 mm 0,0 UV-I 0 W/m 5,3 C 3,9 C 14,5 km/h (3 Bft) 95,74 %
09.10.2016 02:28 6,0 C 95 % 1021,3 hPa 0,0 l/m 9,1 km/h (2 Bft) W-SW 240 0 min 0,000 mm 0,0 UV-I 0 W/m 5,3 C 3,8 C 14,5 km/h (3 Bft) 97,92 %
09.10.2016 02:30 6,0 C 95 % 1021,3 hPa 0,0 l/m 7,7 km/h (2 Bft) W-SW 239 0 min 0,000 mm 0,0 UV-I 0 W/m 5,3 C 4,9 C 11,3 km/h (2 Bft) 97,87 %
09.10.2016 02:32 6,0 C 95 % 1021,3 hPa 0,0 l/m 7,1 km/h (2 Bft) S 190 0 min 0,000 mm 0,0 UV-I 0 W/m 5,3 C 5,4 C 11,3 km/h (2 Bft) 97,22 %
09.10.2016 02:34 6,0 C 95 % 1021,2 hPa 0,0 l/m 9,1 km/h (2 Bft) W-SW 243 0 min 0,000 mm 0,0 UV-I 0 W/m 5,3 C 3,8 C 12,9 km/h (3 Bft) 98,00 %
09.10.2016 02:36 6,0 C 95 % 1021,3 hPa 0,0 l/m 9,0 km/h (2 Bft) W-SW 242 0 min 0,000 mm 0,0 UV-I 0 W/m 5,3 C 3,9 C 12,9 km/h (3 Bft) 95,74 %
09.10.2016 02:38 6,0 C 95 % 1021,3 hPa 0,0 l/m 9,8 km/h (2 Bft) SW 219 0 min 0,000 mm 0,0 UV-I 0 W/m 5,3 C 3,3 C 12,9 km/h (3 Bft) 95,74 %
09.10.2016 02:40 6,0 C 95 % 1021,3 hPa 0,0 l/m 8,3 km/h (2 Bft) SW 217 0 min 0,000 mm 0,0 UV-I 0 W/m 5,3 C 4,4 C 12,9 km/h (3 Bft) 95,74 %
09.10.2016 02:42 6,0 C 95 % 1021,4 hPa 0,0 l/m 8,7 km/h (2 Bft) W-SW 247 0 min 0,000 mm 0,0 UV-I 0 W/m 5,3 C 4,1 C 12,9 km/h (3 Bft) 100,00 %
09.10.2016 02:44 6,0 C 95 % 1021,4 hPa 0,0 l/m 8,6 km/h (2 Bft) SW 224 0 min 0,000 mm 0,0 UV-I 0 W/m 5,3 C 4,2 C 12,9 km/h (3 Bft) 100,00 %
09.10.2016 02:46 6,0 C 95 % 1021,4 hPa 0,0 l/m 7,2 km/h (2 Bft) W 259 0 min 0,000 mm 0,0 UV-I 0 W/m 5,3 C 5,3 C 9,7 km/h (2 Bft) 97,87 %
09.10.2016 02:48 6,0 C 95 % 1021,4 hPa 0,0 l/m 7,9 km/h (2 Bft) SW 232 0 min 0,000 mm 0,0 UV-I 0 W/m 5,3 C 4,7 C 11,3 km/h (2 Bft) 95,74 %
09.10.2016 02:50 6,0 C 95 % 1021,4 hPa 0,0 l/m 6,3 km/h (2 Bft) W-SW 252 0 min 0,000 mm 0,0 UV-I 0 W/m 5,3 C 6,0 C 9,7 km/h (2 Bft) 100,00 %
09.10.2016 02:52 6,0 C 95 % 1021,4 hPa 0,0 l/m 7,5 km/h (2 Bft) W-SW 252 0 min 0,000 mm 0,0 UV-I 0 W/m 5,3 C 5,1 C 11,3 km/h (2 Bft) 95,74 %
09.10.2016 02:54 6,1 C 95 % 1021,4 hPa 0,0 l/m 9,7 km/h (2 Bft) SW 235 0 min 0,000 mm 0,0 UV-I 0 W/m 5,4 C 3,5 C 14,5 km/h (3 Bft) 100,00 %
09.10.2016 02:56 6,1 C 95 % 1021,3 hPa 0,0 l/m 8,3 km/h (2 Bft) W-SW 249 0 min 0,000 mm 0,0 UV-I 0 W/m 5,4 C 4,5 C 11,3 km/h (2 Bft) 97,87 %
09.10.2016 02:58 6,1 C 95 % 1021,3 hPa 0,0 l/m 7,4 km/h (2 Bft) W-SW 254 0 min 0,000 mm 0,0 UV-I 0 W/m 5,4 C 5,3 C 12,9 km/h (3 Bft) 100,00 %
09.10.2016 03:00 6,1 C 95 % 1021,4 hPa 0,0 l/m 8,6 km/h (2 Bft) W-SW 255 0 min 0,000 mm 0,0 UV-I 0 W/m 5,4 C 4,3 C 12,9 km/h (3 Bft) 97,92 %
09.10.2016 03:02 6,1 C 95 % 1021,3 hPa 0,0 l/m 8,0 km/h (2 Bft) W-SW 247 0 min 0,000 mm 0,0 UV-I 0 W/m 5,4 C 4,8 C 12,9 km/h (3 Bft) 100,00 %
09.10.2016 03:04 6,1 C 95 % 1021,4 hPa 0,0 l/m 6,6 km/h (2 Bft) W-SW 256 0 min 0,000 mm 0,0 UV-I 0 W/m 5,4 C 6,0 C 9,7 km/h (2 Bft) 100,00 %
09.10.2016 03:06 6,1 C 95 % 1021,4 hPa 0,0 l/m 8,2 km/h (2 Bft) W-SW 248 0 min 0,000 mm 0,0 UV-I 0 W/m 5,4 C 4,6 C 11,3 km/h (2 Bft) 100,00 %
09.10.2016 03:08 6,1 C 95 % 1021,3 hPa 0,0 l/m 7,9 km/h (2 Bft) W-SW 251 0 min 0,000 mm 0,0 UV-I 0 W/m 5,4 C 4,8 C 11,3 km/h (2 Bft) 100,00 %
09.10.2016 03:10 6,1 C 95 % 1021,4 hPa 0,0 l/m 7,1 km/h (2 Bft) W-SW 255 0 min 0,000 mm 0,0 UV-I 0 W/m 5,4 C 5,5 C 9,7 km/h (2 Bft) 100,00 %
09.10.2016 03:12 6,1 C 95 % 1021,4 hPa 0,0 l/m 6,0 km/h (2 Bft) W-SW 248 0 min 0,000 mm 0,0 UV-I 0 W/m 5,4 C 6,1 C 8,0 km/h (2 Bft) 97,87 %
09.10.2016 03:14 6,1 C 95 % 1021,4 hPa 0,0 l/m 6,5 km/h (2 Bft) W-SW 254 0 min 0,000 mm 0,0 UV-I 0 W/m 5,4 C 6,0 C 11,3 km/h (2 Bft) 100,00 %
09.10.2016 03:16 6,1 C 95 % 1021,4 hPa 0,0 l/m 6,0 km/h (2 Bft) W-SW 254 0 min 0,000 mm 0,0 UV-I 0 W/m 5,4 C 6,1 C 8,0 km/h (2 Bft) 97,87 %
09.10.2016 03:18 6,1 C 95 % 1021,4 hPa 0,0 l/m 5,5 km/h (1 Bft) W-SW 253 0 min 0,000 mm 0,0 UV-I 0 W/m 5,4 C 6,1 C 6,4 km/h (2 Bft) 100,00 %
09.10.2016 03:20 6,1 C 95 % 1021,3 hPa 0,0 l/m 4,9 km/h (1 Bft) W-SW 257 0 min 0,000 mm 0,0 UV-I 0 W/m 5,4 C 6,1 C 8,0 km/h (2 Bft) 95,83 %
09.10.2016 03:22 6,1 C 95 % 1021,3 hPa 0,0 l/m 5,0 km/h (1 Bft) W-SW 254 0 min 0,000 mm 0,0 UV-I 0 W/m 5,4 C 6,1 C 8,0 km/h (2 Bft) 97,37 %
09.10.2016 03:24 6,1 C 95 % 1021,3 hPa 0,0 l/m 5,0 km/h (1 Bft) W-SW 244 0 min 0,000 mm 0,0 UV-I 0 W/m 5,4 C 6,1 C 6,4 km/h (2 Bft) 100,00 %
09.10.2016 03:26 6,1 C 95 % 1021,4 hPa 0,0 l/m 4,4 km/h (1 Bft) W-SW 249 0 min 0,000 mm 0,0 UV-I 0 W/m 5,4 C 6,1 C 6,4 km/h (2 Bft) 97,87 %
09.10.2016 03:28 6,1 C 95 % 1021,3 hPa 0,0 l/m 5,0 km/h (1 Bft) W 266 0 min 0,000 mm 0,0 UV-I 0 W/m 5,4 C 6,1 C 6,4 km/h (2 Bft) 97,87 %
09.10.2016 03:30 6,1 C 95 % 1021,3 hPa 0,0 l/m 5,8 km/h (2 Bft) W-SW 252 0 min 0,000 mm 0,0 UV-I 0 W/m 5,4 C 6,1 C 9,7 km/h (2 Bft) 100,00 %
09.10.2016 03:32 6,1 C 95 % 1021,3 hPa 0,0 l/m 5,1 km/h (1 Bft) W-SW 255 0 min 0,000 mm 0,0 UV-I 0 W/m 5,4 C 6,1 C 8,0 km/h (2 Bft) 100,00 %
09.10.2016 03:34 6,1 C 95 % 1021,3 hPa 0,0 l/m 4,9 km/h (1 Bft) W-SW 245 0 min 0,000 mm 0,0 UV-I 0 W/m 5,4 C 6,1 C 6,4 km/h (2 Bft) 100,00 %
09.10.2016 03:36 6,1 C 95 % 1021,3 hPa 0,0 l/m 5,1 km/h (1 Bft) W-SW 242 0 min 0,000 mm 0,0 UV-I 0 W/m 5,4 C 6,1 C 6,4 km/h (2 Bft) 100,00 %
09.10.2016 03:38 6,0 C 95 % 1021,4 hPa 0,0 l/m 4,0 km/h (1 Bft) SW 223 0 min 0,000 mm 0,0 UV-I 0 W/m 5,3 C 6,0 C 6,4 km/h (2 Bft) 98,04 %
09.10.2016 03:40 6,0 C 95 % 1021,3 hPa 0,0 l/m 4,2 km/h (1 Bft) SW 229 0 min 0,000 mm 0,0 UV-I 0 W/m 5,3 C 6,0 C 6,4 km/h (2 Bft) 100,00 %
09.10.2016 03:42 5,9 C 95 % 1021,3 hPa 0,0 l/m 4,5 km/h (1 Bft) W-SW 254 0 min 0,000 mm 0,0 UV-I 0 W/m 5,2 C 5,9 C 6,4 km/h (2 Bft) 100,00 %
09.10.2016 03:44 5,9 C 95 % 1021,3 hPa 0,0 l/m 4,4 km/h (1 Bft) SW 225 0 min 0,000 mm 0,0 UV-I 0 W/m 5,2 C 5,9 C 8,0 km/h (2 Bft) 100,00 %
09.10.2016 03:46 5,8 C 95 % 1021,3 hPa 0,0 l/m 4,9 km/h (1 Bft) SW 223 0 min 0,000 mm 0,0 UV-I 0 W/m 5,1 C 5,8 C 6,4 km/h (2 Bft) 100,00 %
09.10.2016 03:48 5,8 C 95 % 1021,3 hPa 0,0 l/m 4,5 km/h (1 Bft) SW 228 0 min 0,000 mm 0,0 UV-I 0 W/m 5,1 C 5,8 C 6,4 km/h (2 Bft) 100,00 %
09.10.2016 03:50 5,8 C 96 % 1021,3 hPa 0,0 l/m 4,9 km/h (1 Bft) SW 227 0 min 0,000 mm 0,0 UV-I 0 W/m 5,2 C 5,8 C 6,4 km/h (2 Bft) 100,00 %
09.10.2016 03:52 5,7 C 96 % 1021,3 hPa 0,0 l/m 5,0 km/h (1 Bft) SW 230 0 min 0,000 mm 0,0 UV-I 0 W/m 5,1 C 5,7 C 6,4 km/h (2 Bft) 100,00 %
09.10.2016 03:54 5,7 C 96 % 1021,3 hPa 0,0 l/m 3,8 km/h (1 Bft) SW 223 0 min 0,000 mm 0,0 UV-I 0 W/m 5,1 C 5,7 C 6,4 km/h (2 Bft) 97,87 %
09.10.2016 03:56 5,7 C 96 % 1021,3 hPa 0,0 l/m 3,8 km/h (1 Bft) SW 232 0 min 0,000 mm 0,0 UV-I 0 W/m 5,1 C 5,7 C 6,4 km/h (2 Bft) 97,87 %
09.10.2016 03:58 5,7 C 96 % 1021,4 hPa 0,0 l/m 4,1 km/h (1 Bft) W-SW 242 0 min 0,000 mm 0,0 UV-I 0 W/m 5,1 C 5,7 C 6,4 km/h (2 Bft) 97,96 %
09.10.2016 04:00 5,6 C 96 % 1021,3 hPa 0,0 l/m 3,9 km/h (1 Bft) W-SW 242 0 min 0,000 mm 0,0 UV-I 0 W/m 5,0 C 5,6 C 6,4 km/h (2 Bft) 100,00 %
09.10.2016 04:02 5,6 C 96 % 1021,4 hPa 0,0 l/m 4,1 km/h (1 Bft) W-SW 246 0 min 0,000 mm 0,0 UV-I 0 W/m 5,0 C 5,6 C 8,0 km/h (2 Bft) 100,00 %
09.10.2016 04:04 5,6 C 96 % 1021,4 hPa 0,0 l/m 4,6 km/h (1 Bft) W-SW 239 0 min 0,000 mm 0,0 UV-I 0 W/m 5,0 C 5,6 C 6,4 km/h (2 Bft) 100,00 %
09.10.2016 04:06 5,5 C 96 % 1021,4 hPa 0,0 l/m 4,7 km/h (1 Bft) W-SW 238 0 min 0,000 mm 0,0 UV-I 0 W/m 4,9 C 5,5 C 8,0 km/h (2 Bft) 100,00 %
09.10.2016 04:08 5,5 C 96 % 1021,4 hPa 0,0 l/m 4,6 km/h (1 Bft) W-SW 251 0 min 0,000 mm 0,0 UV-I 0 W/m 4,9 C 5,5 C 8,0 km/h (2 Bft) 97,87 %
09.10.2016 04:10 5,4 C 96 % 1021,5 hPa 0,0 l/m 4,8 km/h (1 Bft) W-SW 252 0 min 0,000 mm 0,0 UV-I 0 W/m 4,8 C 5,4 C 6,4 km/h (2 Bft) 97,87 %
09.10.2016 04:12 5,4 C 96 % 1021,5 hPa 0,0 l/m 6,1 km/h (2 Bft) W-SW 244 0 min 0,000 mm 0,0 UV-I 0 W/m 4,8 C 5,4 C 11,3 km/h (2 Bft) 97,87 %
09.10.2016 04:14 5,4 C 96 % 1021,5 hPa 0,0 l/m 5,4 km/h (1 Bft) W 259 0 min 0,000 mm 0,0 UV-I 0 W/m 4,8 C 5,4 C 8,0 km/h (2 Bft) 97,87 %
09.10.2016 04:16 5,4 C 96 % 1021,6 hPa 0,0 l/m 4,0 km/h (1 Bft) W 259 0 min 0,000 mm 0,0 UV-I 0 W/m 4,8 C 5,4 C 6,4 km/h (2 Bft) 97,87 %
09.10.2016 04:18 5,4 C 96 % 1021,6 hPa 0,0 l/m 2,1 km/h (1 Bft) W 259 0 min 0,000 mm 0,0 UV-I 0 W/m 4,8 C 5,4 C 3,2 km/h (1 Bft) 95,74 %
09.10.2016 04:20 5,4 C 96 % 1021,6 hPa 0,0 l/m 2,0 km/h (1 Bft) W 260 0 min 0,000 mm 0,0 UV-I 0 W/m 4,8 C 5,4 C 3,2 km/h (1 Bft) 98,00 %
09.10.2016 04:22 5,4 C 96 % 1021,6 hPa 0,0 l/m 3,1 km/h (1 Bft) W 260 0 min 0,000 mm 0,0 UV-I 0 W/m 4,8 C 5,4 C 4,8 km/h (1 Bft) 95,83 %
09.10.2016 04:24 5,3 C 96 % 1021,6 hPa 0,0 l/m 4,2 km/h (1 Bft) W 260 0 min 0,000 mm 0,0 UV-I 0 W/m 4,7 C 5,3 C 6,4 km/h (2 Bft) 97,87 %
09.10.2016 04:26 5,3 C 96 % 1021,6 hPa 0,0 l/m 5,1 km/h (1 Bft) W-SW 250 0 min 0,000 mm 0,0 UV-I 0 W/m 4,7 C 5,3 C 8,0 km/h (2 Bft) 95,74 %
09.10.2016 04:28 5,3 C 96 % 1021,6 hPa 0,0 l/m 4,9 km/h (1 Bft) W-SW 245 0 min 0,000 mm 0,0 UV-I 0 W/m 4,7 C 5,3 C 6,4 km/h (2 Bft) 97,87 %
09.10.2016 04:30 5,3 C 96 % 1021,6 hPa 0,0 l/m 4,5 km/h (1 Bft) W-SW 251 0 min 0,000 mm 0,0 UV-I 0 W/m 4,7 C 5,3 C 6,4 km/h (2 Bft) 97,87 %
09.10.2016 04:32 5,3 C 96 % 1021,6 hPa 0,0 l/m 4,7 km/h (1 Bft) W-SW 256 0 min 0,000 mm 0,0 UV-I 0 W/m 4,7 C 5,3 C 6,4 km/h (2 Bft) 98,00 %
09.10.2016 04:34 5,2 C 96 % 1021,6 hPa 0,0 l/m 3,7 km/h (1 Bft) W-SW 256 0 min 0,000 mm 0,0 UV-I 0 W/m 4,6 C 5,2 C 4,8 km/h (1 Bft) 97,87 %
09.10.2016 04:36 5,2 C 96 % 1021,6 hPa 0,0 l/m 3,6 km/h (1 Bft) SW 233 0 min 0,000 mm 0,0 UV-I 0 W/m 4,6 C 5,2 C 6,4 km/h (2 Bft) 95,74 %
09.10.2016 04:38 5,2 C 96 % 1021,7 hPa 0,0 l/m 3,2 km/h (1 Bft) SW 234 0 min 0,000 mm 0,0 UV-I 0 W/m 4,6 C 5,2 C 6,4 km/h (2 Bft) 95,74 %
09.10.2016 04:40 5,1 C 96 % 1021,7 hPa 0,0 l/m 4,6 km/h (1 Bft) SW 236 0 min 0,000 mm 0,0 UV-I 0 W/m 4,5 C 5,1 C 6,4 km/h (2 Bft) 95,74 %
09.10.2016 04:42 5,1 C 96 % 1021,7 hPa 0,0 l/m 3,9 km/h (1 Bft) SW 236 0 min 0,000 mm 0,0 UV-I 0 W/m 4,5 C 5,1 C 6,4 km/h (2 Bft) 97,37 %
09.10.2016 04:44 5,0 C 96 % 1021,6 hPa 0,0 l/m 2,2 km/h (1 Bft) SW 236 0 min 0,000 mm 0,0 UV-I 0 W/m 4,4 C 5,0 C 4,8 km/h (1 Bft) 95,74 %
09.10.2016 04:46 4,8 C 96 % 1021,7 hPa 0,0 l/m 3,4 km/h (1 Bft) W-SW 258 0 min 0,000 mm 0,0 UV-I 0 W/m 4,2 C 4,8 C 6,4 km/h (2 Bft) 95,74 %
09.10.2016 04:48 4,8 C 96 % 1021,7 hPa 0,0 l/m 4,6 km/h (1 Bft) W 259 0 min 0,000 mm 0,0 UV-I 0 W/m 4,2 C 4,8 C 9,7 km/h (2 Bft) 100,00 %
09.10.2016 04:50 4,8 C 96 % 1021,7 hPa 0,0 l/m 3,7 km/h (1 Bft) W-SW 241 0 min 0,000 mm 0,0 UV-I 0 W/m 4,2 C 4,8 C 4,8 km/h (1 Bft) 97,87 %
09.10.2016 04:52 4,8 C 96 % 1021,7 hPa 0,0 l/m 3,9 km/h (1 Bft) W-SW 244 0 min 0,000 mm 0,0 UV-I 0 W/m 4,2 C 4,8 C 6,4 km/h (2 Bft) 100,00 %
09.10.2016 04:54 4,8 C 96 % 1021,7 hPa 0,0 l/m 3,4 km/h (1 Bft) W-SW 243 0 min 0,000 mm 0,0 UV-I 0 W/m 4,2 C 4,8 C 4,8 km/h (1 Bft) 95,74 %
09.10.2016 04:56 4,7 C 96 % 1021,7 hPa 0,0 l/m 3,8 km/h (1 Bft) W-SW 243 0 min 0,000 mm 0,0 UV-I 0 W/m 4,1 C 4,7 C 6,4 km/h (2 Bft) 97,87 %
09.10.2016 04:58 4,7 C 96 % 1021,8 hPa 0,0 l/m 3,9 km/h (1 Bft) W-SW 242 0 min 0,000 mm 0,0 UV-I 0 W/m 4,1 C 4,7 C 6,4 km/h (2 Bft) 97,87 %
09.10.2016 05:00 4,7 C 97 % 1021,7 hPa 0,0 l/m 2,9 km/h (1 Bft) W-SW 242 0 min 0,000 mm 0,0 UV-I 0 W/m 4,3 C 4,7 C 4,8 km/h (1 Bft) 100,00 %
09.10.2016 05:02 4,7 C 97 % 1021,7 hPa 0,0 l/m 3,1 km/h (1 Bft) W-SW 242 0 min 0,000 mm 0,0 UV-I 0 W/m 4,3 C 4,7 C 4,8 km/h (1 Bft) 100,00 %
09.10.2016 05:04 4,7 C 97 % 1021,7 hPa 0,0 l/m 2,8 km/h (1 Bft) W-SW 242 0 min 0,000 mm 0,0 UV-I 0 W/m 4,3 C 4,7 C 4,8 km/h (1 Bft) 100,00 %
09.10.2016 05:06 4,7 C 97 % 1021,7 hPa 0,0 l/m 4,4 km/h (1 Bft) SW 223 0 min 0,000 mm 0,0 UV-I 0 W/m 4,3 C 4,7 C 6,4 km/h (2 Bft) 100,00 %
09.10.2016 05:08 4,7 C 97 % 1021,7 hPa 0,0 l/m 4,2 km/h (1 Bft) SW 222 0 min 0,000 mm 0,0 UV-I 0 W/m 4,3 C 4,7 C 6,4 km/h (2 Bft) 100,00 %
09.10.2016 05:10 4,6 C 97 % 1021,7 hPa 0,0 l/m 5,5 km/h (1 Bft) SW 221 0 min 0,000 mm 0,0 UV-I 0 W/m 4,2 C 4,6 C 8,0 km/h (2 Bft) 100,00 %
09.10.2016 05:12 4,6 C 97 % 1021,6 hPa 0,0 l/m 5,5 km/h (1 Bft) SW 229 0 min 0,000 mm 0,0 UV-I 0 W/m 4,2 C 4,6 C 8,0 km/h (2 Bft) 95,74 %
09.10.2016 05:14 4,6 C 97 % 1021,7 hPa 0,0 l/m 6,3 km/h (2 Bft) SW 234 0 min 0,000 mm 0,0 UV-I 0 W/m 4,2 C 4,6 C 8,0 km/h (2 Bft) 100,00 %
09.10.2016 05:16 4,7 C 97 % 1021,6 hPa 0,0 l/m 7,1 km/h (2 Bft) SW 235 0 min 0,000 mm 0,0 UV-I 0 W/m 4,3 C 4,1 C 9,7 km/h (2 Bft) 97,87 %
09.10.2016 05:18 4,7 C 97 % 1021,6 hPa 0,0 l/m 7,0 km/h (2 Bft) W-SW 240 0 min 0,000 mm 0,0 UV-I 0 W/m 4,3 C 4,2 C 9,7 km/h (2 Bft) 97,87 %
09.10.2016 05:20 4,7 C 97 % 1021,6 hPa 0,0 l/m 6,2 km/h (2 Bft) SW 220 0 min 0,000 mm 0,0 UV-I 0 W/m 4,3 C 4,7 C 9,7 km/h (2 Bft) 100,00 %
09.10.2016 05:22 4,7 C 97 % 1021,5 hPa 0,0 l/m 6,0 km/h (2 Bft) SW 231 0 min 0,000 mm 0,0 UV-I 0 W/m 4,3 C 4,7 C 9,7 km/h (2 Bft) 97,87 %
09.10.2016 05:24 4,7 C 97 % 1021,5 hPa 0,0 l/m 8,7 km/h (2 Bft) W 275 0 min 0,000 mm 0,0 UV-I 0 W/m 4,3 C 2,7 C 16,1 km/h (3 Bft) 97,87 %
09.10.2016 05:26 4,7 C 97 % 1021,5 hPa 0,0 l/m 6,7 km/h (2 Bft) W-SW 248 0 min 0,000 mm 0,0 UV-I 0 W/m 4,3 C 4,4 C 11,3 km/h (2 Bft) 97,37 %
09.10.2016 05:28 4,8 C 97 % 1021,5 hPa 0,0 l/m 6,0 km/h (2 Bft) W-SW 246 0 min 0,000 mm 0,0 UV-I 0 W/m 4,4 C 4,8 C 12,9 km/h (3 Bft) 100,00 %
09.10.2016 05:30 4,8 C 97 % 1021,5 hPa 0,0 l/m 4,7 km/h (1 Bft) W-SW 252 0 min 0,000 mm 0,0 UV-I 0 W/m 4,4 C 4,8 C 6,4 km/h (2 Bft) 100,00 %
09.10.2016 05:32 4,7 C 97 % 1021,5 hPa 0,0 l/m 4,8 km/h (1 Bft) W-SW 248 0 min 0,000 mm 0,0 UV-I 0 W/m 4,3 C 4,7 C 6,4 km/h (2 Bft) 100,00 %
09.10.2016 05:34 4,7 C 97 % 1021,5 hPa 0,0 l/m 5,5 km/h (1 Bft) W-SW 250 0 min 0,000 mm 0,0 UV-I 0 W/m 4,3 C 4,7 C 8,0 km/h (2 Bft) 100,00 %
09.10.2016 05:36 4,8 C 97 % 1021,5 hPa 0,0 l/m 5,5 km/h (1 Bft) W-SW 246 0 min 0,000 mm 0,0 UV-I 0 W/m 4,4 C 4,8 C 9,7 km/h (2 Bft) 100,00 %
09.10.2016 05:38 4,8 C 97 % 1021,5 hPa 0,0 l/m 6,0 km/h (2 Bft) W-SW 257 0 min 0,000 mm 0,0 UV-I 0 W/m 4,4 C 4,8 C 9,7 km/h (2 Bft) 100,00 %
09.10.2016 05:40 4,8 C 97 % 1021,5 hPa 0,0 l/m 5,4 km/h (1 Bft) W-SW 254 0 min 0,000 mm 0,0 UV-I 0 W/m 4,4 C 4,8 C 8,0 km/h (2 Bft) 100,00 %
09.10.2016 05:42 4,8 C 97 % 1021,5 hPa 0,0 l/m 5,0 km/h (1 Bft) W 265 0 min 0,000 mm 0,0 UV-I 0 W/m 4,4 C 4,8 C 8,0 km/h (2 Bft) 100,00 %
09.10.2016 05:44 4,8 C 97 % 1021,5 hPa 0,0 l/m 5,7 km/h (1 Bft) W-SW 250 0 min 0,000 mm 0,0 UV-I 0 W/m 4,4 C 4,8 C 8,0 km/h (2 Bft) 93,75 %
09.10.2016 05:46 4,8 C 97 % 1021,5 hPa 0,0 l/m 6,5 km/h (2 Bft) W-SW 249 0 min 0,000 mm 0,0 UV-I 0 W/m 4,4 C 4,7 C 11,3 km/h (2 Bft) 98,00 %
09.10.2016 05:48 4,8 C 97 % 1021,5 hPa 0,0 l/m 5,6 km/h (1 Bft) W-SW 248 0 min 0,000 mm 0,0 UV-I 0 W/m 4,4 C 4,8 C 6,4 km/h (2 Bft) 100,00 %
09.10.2016 05:50 4,9 C 97 % 1021,5 hPa 0,0 l/m 6,4 km/h (2 Bft) W-SW 258 0 min 0,000 mm 0,0 UV-I 0 W/m 4,5 C 4,9 C 9,7 km/h (2 Bft) 100,00 %
09.10.2016 05:52 4,9 C 97 % 1021,4 hPa 0,0 l/m 8,0 km/h (2 Bft) W 280 0 min 0,000 mm 0,0 UV-I 0 W/m 4,5 C 3,5 C 11,3 km/h (2 Bft) 100,00 %
09.10.2016 05:54 5,0 C 97 % 1021,5 hPa 0,0 l/m 4,0 km/h (1 Bft) W 265 0 min 0,000 mm 0,0 UV-I 0 W/m 4,6 C 5,0 C 6,4 km/h (2 Bft) 97,87 %
09.10.2016 05:56 5,0 C 97 % 1021,5 hPa 0,0 l/m 4,4 km/h (1 Bft) W 264 0 min 0,000 mm 0,0 UV-I 0 W/m 4,6 C 5,0 C 6,4 km/h (2 Bft) 97,37 %
09.10.2016 05:58 5,1 C 96 % 1021,5 hPa 0,0 l/m 3,1 km/h (1 Bft) W 269 0 min 0,000 mm 0,0 UV-I 0 W/m 4,5 C 5,1 C 4,8 km/h (1 Bft) 100,00 %
09.10.2016 06:00 5,1 C 96 % 1021,5 hPa 0,0 l/m 2,8 km/h (1 Bft) W 270 0 min 0,000 mm 0,0 UV-I 0 W/m 4,5 C 5,1 C 4,8 km/h (1 Bft) 100,00 %
09.10.2016 06:02 5,0 C 96 % 1021,5 hPa 0,0 l/m 2,3 km/h (1 Bft) W 275 0 min 0,000 mm 0,0 UV-I 0 W/m 4,4 C 5,0 C 4,8 km/h (1 Bft) 100,00 %
09.10.2016 06:04 4,9 C 96 % 1021,6 hPa 0,0 l/m 2,3 km/h (1 Bft) W 276 0 min 0,000 mm 0,0 UV-I 0 W/m 4,3 C 4,9 C 3,2 km/h (1 Bft) 95,74 %
09.10.2016 06:06 4,9 C 96 % 1021,5 hPa 0,0 l/m 2,6 km/h (1 Bft) W 281 0 min 0,000 mm 0,0 UV-I 0 W/m 4,3 C 4,9 C 6,4 km/h (2 Bft) 100,00 %
09.10.2016 06:08 4,9 C 96 % 1021,6 hPa 0,0 l/m 1,2 km/h (1 Bft) W 281 0 min 0,000 mm 0,0 UV-I 0 W/m 4,3 C 4,9 C 3,2 km/h (1 Bft) 100,00 %
09.10.2016 06:10 4,9 C 96 % 1021,6 hPa 0,0 l/m 1,3 km/h (1 Bft) NW 312 0 min 0,000 mm 0,0 UV-I 0 W/m 4,3 C 4,9 C 4,8 km/h (1 Bft) 97,87 %
09.10.2016 06:12 4,8 C 96 % 1021,5 hPa 0,0 l/m 0,9 km/h (0 Bft) NW 312 0 min 0,000 mm 0,0 UV-I 0 W/m 4,2 C 4,8 C 3,2 km/h (1 Bft) 95,74 %
09.10.2016 06:14 4,8 C 96 % 1021,6 hPa 0,0 l/m 0,7 km/h (0 Bft) NW 312 0 min 0,000 mm 0,0 UV-I 0 W/m 4,2 C 4,8 C 1,6 km/h (1 Bft) 100,00 %
09.10.2016 06:16 4,8 C 97 % 1021,6 hPa 0,0 l/m 1,4 km/h (1 Bft) NW 312 0 min 0,000 mm 0,0 UV-I 0 W/m 4,4 C 4,8 C 3,2 km/h (1 Bft) 97,87 %
09.10.2016 06:18 4,9 C 97 % 1021,6 hPa 0,0 l/m 0,7 km/h (0 Bft) NW 312 0 min 0,000 mm 0,0 UV-I 0 W/m 4,5 C 4,9 C 1,6 km/h (1 Bft) 100,00 %
09.10.2016 06:20 4,9 C 97 % 1021,6 hPa 0,0 l/m 0,6 km/h (0 Bft) NW 312 0 min 0,000 mm 0,0 UV-I 0 W/m 4,5 C 4,9 C 3,2 km/h (1 Bft) 100,00 %
09.10.2016 06:22 4,9 C 97 % 1021,6 hPa 0,0 l/m 1,9 km/h (1 Bft) W-NW 298 0 min 0,000 mm 0,0 UV-I 0 W/m 4,5 C 4,9 C 4,8 km/h (1 Bft) 95,83 %
09.10.2016 06:24 4,8 C 96 % 1021,6 hPa 0,0 l/m 2,6 km/h (1 Bft) SW 220 0 min 0,000 mm 0,0 UV-I 0 W/m 4,2 C 4,8 C 3,2 km/h (1 Bft) 97,87 %
09.10.2016 06:26 4,8 C 96 % 1021,6 hPa 0,0 l/m 1,7 km/h (1 Bft) SW 220 0 min 0,000 mm 0,0 UV-I 0 W/m 4,2 C 4,8 C 3,2 km/h (1 Bft) 97,44 %
09.10.2016 06:28 4,7 C 96 % 1021,6 hPa 0,0 l/m 1,9 km/h (1 Bft) S-SW 197 0 min 0,000 mm 0,0 UV-I 0 W/m 4,1 C 4,7 C 3,2 km/h (1 Bft) 97,87 %
09.10.2016 06:30 4,6 C 96 % 1021,6 hPa 0,0 l/m 2,4 km/h (1 Bft) S 176 0 min 0,000 mm 0,0 UV-I 0 W/m 4,0 C 4,6 C 4,8 km/h (1 Bft) 96,00 %
09.10.2016 06:32 4,4 C 96 % 1021,6 hPa 0,0 l/m 2,7 km/h (1 Bft) S 169 0 min 0,000 mm 0,0 UV-I 0 W/m 3,8 C 4,4 C 6,4 km/h (2 Bft) 97,87 %
09.10.2016 06:34 4,4 C 96 % 1021,6 hPa 0,0 l/m 3,3 km/h (1 Bft) S 169 0 min 0,000 mm 0,0 UV-I 0 W/m 3,8 C 4,4 C 8,0 km/h (2 Bft) 97,87 %
09.10.2016 06:36 4,3 C 96 % 1021,6 hPa 0,0 l/m 3,1 km/h (1 Bft) S 169 0 min 0,000 mm 0,0 UV-I 0 W/m 3,7 C 4,3 C 6,4 km/h (2 Bft) 93,62 %
09.10.2016 06:38 4,3 C 96 % 1021,5 hPa 0,0 l/m 2,6 km/h (1 Bft) S 177 0 min 0,000 mm 0,0 UV-I 0 W/m 3,7 C 4,3 C 6,4 km/h (2 Bft) 95,74 %
09.10.2016 06:40 4,3 C 96 % 1021,5 hPa 0,0 l/m 4,5 km/h (1 Bft) S-SW 203 0 min 0,000 mm 0,0 UV-I 0 W/m 3,7 C 4,3 C 6,4 km/h (2 Bft) 97,87 %
09.10.2016 06:42 4,3 C 96 % 1021,6 hPa 0,0 l/m 2,0 km/h (1 Bft) S-SW 203 0 min 0,000 mm 0,0 UV-I 0 W/m 3,7 C 4,3 C 3,2 km/h (1 Bft) 97,87 %
09.10.2016 06:44 4,4 C 96 % 1021,6 hPa 0,0 l/m 3,5 km/h (1 Bft) S-SW 208 0 min 0,000 mm 0,0 UV-I 0 W/m 3,8 C 4,4 C 4,8 km/h (1 Bft) 97,87 %
09.10.2016 06:46 4,4 C 97 % 1021,6 hPa 0,0 l/m 1,9 km/h (1 Bft) S-SW 208 0 min 0,000 mm 0,0 UV-I 0 W/m 4,0 C 4,4 C 3,2 km/h (1 Bft) 96,00 %
09.10.2016 06:48 4,4 C 97 % 1021,6 hPa 0,0 l/m 2,3 km/h (1 Bft) S-SW 208 0 min 0,000 mm 0,0 UV-I 0 W/m 4,0 C 4,4 C 4,8 km/h (1 Bft) 97,87 %
09.10.2016 06:50 4,4 C 97 % 1021,6 hPa 0,0 l/m 2,0 km/h (1 Bft) S-SW 208 0 min 0,000 mm 0,0 UV-I 0 W/m 4,0 C 4,4 C 3,2 km/h (1 Bft) 97,87 %
09.10.2016 06:52 4,3 C 97 % 1021,6 hPa 0,0 l/m 0,5 km/h (0 Bft) S-SW 208 0 min 0,000 mm 0,0 UV-I 0 W/m 3,9 C 4,3 C 1,6 km/h (1 Bft) 97,87 %
09.10.2016 06:54 4,2 C 96 % 1021,7 hPa 0,0 l/m 0,1 km/h (0 Bft) S-SW 208 0 min 0,000 mm 0,0 UV-I 0 W/m 3,6 C 4,2 C 1,6 km/h (1 Bft) 94,74 %
09.10.2016 06:56 4,1 C 96 % 1021,7 hPa 0,0 l/m 0,1 km/h (0 Bft) S-SW 208 0 min 0,000 mm 0,0 UV-I 0 W/m 3,5 C 4,1 C 1,6 km/h (1 Bft) 100,00 %
09.10.2016 06:58 4,1 C 96 % 1021,7 hPa 0,0 l/m 0,1 km/h (0 Bft) S-SW 208 0 min 0,000 mm 0,0 UV-I 0 W/m 3,5 C 4,1 C 1,6 km/h (1 Bft) 100,00 %
09.10.2016 07:00 4,1 C 97 % 1021,8 hPa 0,0 l/m 0,1 km/h (0 Bft) S-SW 208 0 min 0,000 mm 0,0 UV-I 0 W/m 3,7 C 4,1 C 1,6 km/h (1 Bft) 95,74 %
09.10.2016 07:02 3,9 C 96 % 1021,8 hPa 0,0 l/m 0,1 km/h (0 Bft) S-SW 208 0 min 0,000 mm 0,0 UV-I 0 W/m 3,3 C 3,9 C 1,6 km/h (1 Bft) 100,00 %
09.10.2016 07:04 3,8 C 96 % 1021,8 hPa 0,0 l/m 0,9 km/h (0 Bft) S-SW 208 0 min 0,000 mm 0,0 UV-I 0 W/m 3,2 C 3,8 C 3,2 km/h (1 Bft) 95,74 %
09.10.2016 07:06 3,6 C 96 % 1021,8 hPa 0,0 l/m 1,4 km/h (1 Bft) S-SW 208 0 min 0,000 mm 0,0 UV-I 0 W/m 3,0 C 3,6 C 3,2 km/h (1 Bft) 97,87 %
09.10.2016 07:08 3,5 C 96 % 1021,8 hPa 0,0 l/m 0,0 km/h (0 Bft) S-SW 208 0 min 0,000 mm 0,0 UV-I 0 W/m 2,9 C 3,5 C 0,0 km/h (0 Bft) 97,87 %
09.10.2016 07:10 3,5 C 97 % 1021,8 hPa 0,0 l/m 0,0 km/h (0 Bft) S-SW 208 0 min 0,000 mm 0,0 UV-I 0 W/m 3,1 C 3,5 C 0,0 km/h (0 Bft) 97,87 %
09.10.2016 07:12 3,6 C 97 % 1021,8 hPa 0,0 l/m 0,0 km/h (0 Bft) S-SW 208 0 min 0,000 mm 0,0 UV-I 0 W/m 3,2 C 3,6 C 0,0 km/h (0 Bft) 100,00 %
09.10.2016 07:14 3,6 C 97 % 1021,8 hPa 0,0 l/m 0,0 km/h (0 Bft) S-SW 208 0 min 0,000 mm 0,0 UV-I 3 W/m 3,2 C 3,6 C 0,0 km/h (0 Bft) 97,87 %
09.10.2016 07:16 3,6 C 97 % 1021,8 hPa 0,0 l/m 0,0 km/h (0 Bft) S-SW 208 0 min 0,000 mm 0,0 UV-I 5 W/m 3,2 C 3,6 C 0,0 km/h (0 Bft) 95,74 %
09.10.2016 07:18 3,5 C 97 % 1021,8 hPa 0,0 l/m 0,0 km/h (0 Bft) S-SW 208 0 min 0,000 mm 0,0 UV-I 5 W/m 3,1 C 3,5 C 1,6 km/h (1 Bft) 97,87 %
09.10.2016 07:20 3,4 C 96 % 1021,8 hPa 0,0 l/m 0,0 km/h (0 Bft) S-SW 208 0 min 0,000 mm 0,0 UV-I 5 W/m 2,8 C 3,4 C 0,0 km/h (0 Bft) 97,87 %
09.10.2016 07:22 3,4 C 97 % 1021,8 hPa 0,0 l/m 0,7 km/h (0 Bft) S-SW 208 0 min 0,000 mm 0,0 UV-I 7 W/m 3,0 C 3,4 C 1,6 km/h (1 Bft) 100,00 %
09.10.2016 07:24 3,5 C 97 % 1021,7 hPa 0,0 l/m 0,3 km/h (0 Bft) S-SW 208 0 min 0,000 mm 0,0 UV-I 9 W/m 3,1 C 3,5 C 1,6 km/h (1 Bft) 97,87 %
09.10.2016 07:26 3,5 C 97 % 1021,8 hPa 0,0 l/m 0,3 km/h (0 Bft) S-SW 208 2 min 0,000 mm 0,0 UV-I 10 W/m 3,1 C 3,5 C 1,6 km/h (1 Bft) 100,00 %
09.10.2016 07:28 3,5 C 97 % 1021,8 hPa 0,0 l/m 1,0 km/h (0 Bft) S-SW 208 0 min 0,000 mm 0,0 UV-I 12 W/m 3,1 C 3,5 C 3,2 km/h (1 Bft) 97,87 %
09.10.2016 07:30 3,5 C 97 % 1021,7 hPa 0,0 l/m 2,6 km/h (1 Bft) S-SW 207 0 min 0,000 mm 0,0 UV-I 13 W/m 3,1 C 3,5 C 4,8 km/h (1 Bft) 98,00 %
09.10.2016 07:32 3,5 C 97 % 1021,7 hPa 0,0 l/m 2,5 km/h (1 Bft) S-SW 207 0 min 0,000 mm 0,0 UV-I 15 W/m 3,1 C 3,5 C 3,2 km/h (1 Bft) 100,00 %
09.10.2016 07:34 3,4 C 97 % 1021,7 hPa 0,0 l/m 2,3 km/h (1 Bft) S-SW 207 0 min 0,000 mm 0,0 UV-I 18 W/m 3,0 C 3,4 C 4,8 km/h (1 Bft) 97,87 %
09.10.2016 07:36 3,4 C 97 % 1021,7 hPa 0,0 l/m 2,4 km/h (1 Bft) S-SW 207 0 min 0,000 mm 0,0 UV-I 18 W/m 3,0 C 3,4 C 3,2 km/h (1 Bft) 93,62 %
09.10.2016 07:38 3,4 C 97 % 1021,7 hPa 0,0 l/m 1,8 km/h (1 Bft) S-SW 207 0 min 0,000 mm 0,0 UV-I 19 W/m 3,0 C 3,4 C 3,2 km/h (1 Bft) 100,00 %
09.10.2016 07:40 3,4 C 97 % 1021,7 hPa 0,0 l/m 1,0 km/h (0 Bft) S-SW 207 0 min 0,000 mm 0,0 UV-I 21 W/m 3,0 C 3,4 C 3,2 km/h (1 Bft) 100,00 %
09.10.2016 07:42 3,4 C 97 % 1021,7 hPa 0,0 l/m 0,3 km/h (0 Bft) S-SW 207 0 min 0,000 mm 0,0 UV-I 24 W/m 3,0 C 3,4 C 1,6 km/h (1 Bft) 97,92 %
09.10.2016 07:44 3,4 C 97 % 1021,8 hPa 0,0 l/m 0,0 km/h (0 Bft) S-SW 207 0 min 0,000 mm 0,0 UV-I 29 W/m 3,0 C 3,4 C 0,0 km/h (0 Bft) 97,87 %
09.10.2016 07:46 3,4 C 97 % 1021,9 hPa 0,0 l/m 0,0 km/h (0 Bft) S-SW 207 0 min 0,000 mm 0,0 UV-I 32 W/m 3,0 C 3,4 C 1,6 km/h (1 Bft) 97,87 %
09.10.2016 07:48 3,4 C 97 % 1021,9 hPa 0,0 l/m 0,1 km/h (0 Bft) S-SW 207 0 min 0,000 mm 0,0 UV-I 35 W/m 3,0 C 3,4 C 1,6 km/h (1 Bft) 100,00 %
09.10.2016 07:50 3,4 C 97 % 1021,9 hPa 0,0 l/m 0,0 km/h (0 Bft) S-SW 207 0 min 0,000 mm 0,0 UV-I 42 W/m 3,0 C 3,4 C 0,0 km/h (0 Bft) 100,00 %
09.10.2016 07:52 3,5 C 97 % 1021,9 hPa 0,0 l/m 0,0 km/h (0 Bft) S-SW 207 0 min 0,000 mm 0,0 UV-I 48 W/m 3,1 C 3,5 C 0,0 km/h (0 Bft) 100,00 %
09.10.2016 07:54 3,6 C 97 % 1021,9 hPa 0,0 l/m 0,2 km/h (0 Bft) S-SW 207 2 min 0,000 mm 0,0 UV-I 66 W/m 3,2 C 3,6 C 1,6 km/h (1 Bft) 100,00 %
09.10.2016 07:56 3,7 C 97 % 1021,9 hPa 0,0 l/m 0,5 km/h (0 Bft) S-SW 207 2 min 0,000 mm 0,0 UV-I 81 W/m 3,3 C 3,7 C 3,2 km/h (1 Bft) 100,00 %
09.10.2016 07:58 3,7 C 97 % 1022,0 hPa 0,0 l/m 0,8 km/h (0 Bft) S-SW 207 2 min 0,000 mm 0,0 UV-I 90 W/m 3,3 C 3,7 C 1,6 km/h (1 Bft) 100,00 %
09.10.2016 08:00 3,8 C 97 % 1021,9 hPa 0,0 l/m 1,0 km/h (0 Bft) S-SW 207 2 min 0,000 mm 0,0 UV-I 85 W/m 3,4 C 3,8 C 1,6 km/h (1 Bft) 98,00 %
09.10.2016 08:02 3,8 C 97 % 1021,9 hPa 0,0 l/m 1,2 km/h (1 Bft) S-SW 207 2 min 0,000 mm 0,0 UV-I 73 W/m 3,4 C 3,8 C 3,2 km/h (1 Bft) 97,92 %
09.10.2016 08:04 3,9 C 97 % 1021,9 hPa 0,0 l/m 2,6 km/h (1 Bft) S-SW 206 0 min 0,000 mm 0,0 UV-I 42 W/m 3,5 C 3,9 C 4,8 km/h (1 Bft) 100,00 %
09.10.2016 08:06 3,9 C 97 % 1021,9 hPa 0,0 l/m 2,4 km/h (1 Bft) S-SW 205 0 min 0,000 mm 0,0 UV-I 39 W/m 3,5 C 3,9 C 4,8 km/h (1 Bft) 100,00 %
09.10.2016 08:08 4,0 C 97 % 1021,9 hPa 0,0 l/m 4,1 km/h (1 Bft) S-SW 205 0 min 0,000 mm 0,0 UV-I 40 W/m 3,6 C 4,0 C 6,4 km/h (2 Bft) 100,00 %
09.10.2016 08:10 4,1 C 97 % 1022,0 hPa 0,0 l/m 3,3 km/h (1 Bft) S-SW 204 0 min 0,000 mm 0,0 UV-I 35 W/m 3,7 C 4,1 C 6,4 km/h (2 Bft) 100,00 %
09.10.2016 08:12 4,1 C 97 % 1022,0 hPa 0,0 l/m 4,5 km/h (1 Bft) S 191 0 min 0,000 mm 0,0 UV-I 39 W/m 3,7 C 4,1 C 8,0 km/h (2 Bft) 100,00 %
09.10.2016 08:14 4,2 C 97 % 1022,0 hPa 0,0 l/m 3,8 km/h (1 Bft) S 190 0 min 0,000 mm 0,0 UV-I 57 W/m 3,8 C 4,2 C 4,8 km/h (1 Bft) 100,00 %
09.10.2016 08:16 4,2 C 97 % 1022,0 hPa 0,0 l/m 5,1 km/h (1 Bft) S-SW 203 2 min 0,000 mm 0,0 UV-I 91 W/m 3,8 C 4,2 C 8,0 km/h (2 Bft) 97,87 %
09.10.2016 08:18 4,2 C 97 % 1022,0 hPa 0,0 l/m 4,2 km/h (1 Bft) S-SW 213 2 min 0,000 mm 0,0 UV-I 122 W/m 3,8 C 4,2 C 6,4 km/h (2 Bft) 100,00 %
09.10.2016 08:20 4,3 C 97 % 1022,0 hPa 0,0 l/m 4,1 km/h (1 Bft) S-SW 204 2 min 0,000 mm 0,0 UV-I 125 W/m 3,9 C 4,3 C 8,0 km/h (2 Bft) 97,87 %
09.10.2016 08:22 4,4 C 98 % 1022,0 hPa 0,0 l/m 3,6 km/h (1 Bft) S-SW 204 2 min 0,000 mm 0,0 UV-I 133 W/m 4,1 C 4,4 C 6,4 km/h (2 Bft) 100,00 %
09.10.2016 08:24 4,5 C 97 % 1022,0 hPa 0,0 l/m 2,8 km/h (1 Bft) W-SW 242 2 min 0,000 mm 0,0 UV-I 137 W/m 4,1 C 4,5 C 4,8 km/h (1 Bft) 97,44 %
09.10.2016 08:26 4,6 C 97 % 1022,1 hPa 0,0 l/m 3,1 km/h (1 Bft) W-SW 239 2 min 0,000 mm 0,0 UV-I 143 W/m 4,2 C 4,6 C 4,8 km/h (1 Bft) 97,87 %
09.10.2016 08:28 4,7 C 98 % 1022,0 hPa 0,0 l/m 3,4 km/h (1 Bft) S-SW 208 2 min 0,000 mm 0,0 UV-I 147 W/m 4,4 C 4,7 C 4,8 km/h (1 Bft) 98,00 %
09.10.2016 08:30 4,8 C 98 % 1022,1 hPa 0,0 l/m 4,7 km/h (1 Bft) S-SW 202 2 min 0,000 mm 0,0 UV-I 137 W/m 4,5 C 4,8 C 6,4 km/h (2 Bft) 93,62 %
09.10.2016 08:32 4,8 C 97 % 1022,1 hPa 0,0 l/m 5,2 km/h (1 Bft) SW 227 2 min 0,000 mm 0,0 UV-I 147 W/m 4,4 C 4,8 C 8,0 km/h (2 Bft) 97,87 %
09.10.2016 08:34 4,8 C 97 % 1022,1 hPa 0,0 l/m 3,5 km/h (1 Bft) S-SW 202 2 min 0,000 mm 0,0 UV-I 163 W/m 4,4 C 4,8 C 6,4 km/h (2 Bft) 94,00 %
09.10.2016 08:36 4,8 C 97 % 1022,1 hPa 0,0 l/m 3,9 km/h (1 Bft) W-SW 238 2 min 0,000 mm 0,0 UV-I 169 W/m 4,4 C 4,8 C 6,4 km/h (2 Bft) 95,74 %
09.10.2016 08:38 4,9 C 97 % 1022,1 hPa 0,0 l/m 3,5 km/h (1 Bft) W-SW 241 2 min 0,000 mm 0,0 UV-I 176 W/m 4,5 C 4,9 C 6,4 km/h (2 Bft) 97,87 %
09.10.2016 08:40 4,9 C 97 % 1022,2 hPa 0,0 l/m 3,4 km/h (1 Bft) W-SW 239 2 min 0,000 mm 0,0 UV-I 140 W/m 4,5 C 4,9 C 6,4 km/h (2 Bft) 95,74 %
09.10.2016 08:42 5,0 C 97 % 1022,2 hPa 0,0 l/m 2,7 km/h (1 Bft) W-SW 239 0 min 0,000 mm 0,0 UV-I 116 W/m 4,6 C 5,0 C 4,8 km/h (1 Bft) 95,74 %
09.10.2016 08:44 5,1 C 97 % 1022,3 hPa 0,0 l/m 2,9 km/h (1 Bft) W-SW 239 0 min 0,000 mm 0,0 UV-I 97 W/m 4,7 C 5,1 C 4,8 km/h (1 Bft) 97,37 %
09.10.2016 08:46 5,1 C 97 % 1022,3 hPa 0,0 l/m 3,0 km/h (1 Bft) SW 220 0 min 0,000 mm 0,0 UV-I 105 W/m 4,7 C 5,1 C 6,4 km/h (2 Bft) 95,74 %
09.10.2016 08:48 5,1 C 97 % 1022,3 hPa 0,0 l/m 5,1 km/h (1 Bft) S-SW 209 0 min 0,000 mm 0,0 UV-I 111 W/m 4,7 C 5,1 C 6,4 km/h (2 Bft) 95,74 %
09.10.2016 08:50 5,2 C 97 % 1022,2 hPa 0,0 l/m 4,1 km/h (1 Bft) S-SW 208 0 min 0,000 mm 0,0 UV-I 116 W/m 4,8 C 5,2 C 6,4 km/h (2 Bft) 97,87 %
09.10.2016 08:52 5,3 C 97 % 1022,2 hPa 0,0 l/m 4,0 km/h (1 Bft) S-SW 208 2 min 0,000 mm 0,0 UV-I 143 W/m 4,9 C 5,3 C 6,4 km/h (2 Bft) 97,87 %
09.10.2016 08:54 5,3 C 97 % 1022,2 hPa 0,0 l/m 0,9 km/h (0 Bft) S-SW 208 2 min 0,000 mm 0,0 UV-I 179 W/m 4,9 C 5,3 C 3,2 km/h (1 Bft) 97,87 %
09.10.2016 08:56 5,4 C 97 % 1022,3 hPa 0,0 l/m 1,8 km/h (1 Bft) S-SW 208 2 min 0,000 mm 0,0 UV-I 215 W/m 5,0 C 5,4 C 3,2 km/h (1 Bft) 97,92 %
09.10.2016 08:58 5,6 C 97 % 1022,3 hPa 0,0 l/m 2,1 km/h (1 Bft) S-SW 208 2 min 0,000 mm 0,0 UV-I 223 W/m 5,2 C 5,6 C 3,2 km/h (1 Bft) 100,00 %
09.10.2016 09:00 5,7 C 97 % 1022,3 hPa 0,0 l/m 3,0 km/h (1 Bft) S-SW 207 2 min 0,051 mm 0,0 UV-I 222 W/m 5,3 C 5,7 C 4,8 km/h (1 Bft) 100,00 %
09.10.2016 09:02 5,8 C 97 % 1022,3 hPa 0,0 l/m 3,0 km/h (1 Bft) S-SW 210 2 min 0,000 mm 0,0 UV-I 169 W/m 5,4 C 5,8 C 4,8 km/h (1 Bft) 97,87 %
09.10.2016 09:04 5,9 C 97 % 1022,4 hPa 0,0 l/m 2,8 km/h (1 Bft) S-SW 211 0 min 0,000 mm 0,0 UV-I 144 W/m 5,5 C 5,9 C 4,8 km/h (1 Bft) 95,74 %
09.10.2016 09:06 6,0 C 97 % 1022,4 hPa 0,0 l/m 4,3 km/h (1 Bft) S-SW 204 0 min 0,000 mm 0,0 UV-I 144 W/m 5,6 C 6,0 C 6,4 km/h (2 Bft) 100,00 %
09.10.2016 09:08 6,1 C 97 % 1022,3 hPa 0,0 l/m 3,2 km/h (1 Bft) W-SW 242 0 min 0,000 mm 0,0 UV-I 160 W/m 5,7 C 6,1 C 4,8 km/h (1 Bft) 97,87 %
09.10.2016 09:10 6,2 C 96 % 1022,4 hPa 0,0 l/m 2,2 km/h (1 Bft) W-SW 242 0 min 0,000 mm 0,0 UV-I 158 W/m 5,6 C 6,2 C 4,8 km/h (1 Bft) 93,62 %
09.10.2016 09:12 6,2 C 96 % 1022,4 hPa 0,0 l/m 2,5 km/h (1 Bft) W-SW 242 0 min 0,000 mm 0,0 UV-I 149 W/m 5,6 C 6,2 C 3,2 km/h (1 Bft) 100,00 %
09.10.2016 09:14 6,2 C 96 % 1022,4 hPa 0,0 l/m 2,1 km/h (1 Bft) W-SW 242 0 min 0,000 mm 0,0 UV-I 157 W/m 5,6 C 6,2 C 3,2 km/h (1 Bft) 97,87 %
09.10.2016 09:16 6,2 C 96 % 1022,4 hPa 0,0 l/m 0,8 km/h (0 Bft) W-SW 242 2 min 0,000 mm 0,0 UV-I 214 W/m 5,6 C 6,2 C 3,2 km/h (1 Bft) 95,74 %
09.10.2016 09:18 6,3 C 96 % 1022,4 hPa 0,0 l/m 0,5 km/h (0 Bft) W-SW 242 2 min 0,000 mm 0,0 UV-I 218 W/m 5,7 C 6,3 C 3,2 km/h (1 Bft) 97,87 %
09.10.2016 09:20 6,4 C 96 % 1022,4 hPa 0,0 l/m 4,4 km/h (1 Bft) W-SW 255 0 min 0,000 mm 0,0 UV-I 137 W/m 5,8 C 6,4 C 6,4 km/h (2 Bft) 100,00 %
09.10.2016 09:22 6,4 C 95 % 1022,5 hPa 0,0 l/m 4,3 km/h (1 Bft) W-SW 254 0 min 0,000 mm 0,0 UV-I 124 W/m 5,7 C 6,4 C 6,4 km/h (2 Bft) 100,00 %
09.10.2016 09:24 6,4 C 95 % 1022,5 hPa 0,0 l/m 2,3 km/h (1 Bft) W-SW 254 0 min 0,000 mm 0,0 UV-I 108 W/m 5,7 C 6,4 C 4,8 km/h (1 Bft) 100,00 %
09.10.2016 09:26 6,4 C 95 % 1022,5 hPa 0,0 l/m 2,8 km/h (1 Bft) W-SW 254 0 min 0,000 mm 0,0 UV-I 103 W/m 5,7 C 6,4 C 6,4 km/h (2 Bft) 100,00 %
09.10.2016 09:28 6,4 C 95 % 1022,5 hPa 0,0 l/m 1,8 km/h (1 Bft) W-SW 254 0 min 0,000 mm 0,0 UV-I 107 W/m 5,7 C 6,4 C 3,2 km/h (1 Bft) 100,00 %
09.10.2016 09:30 6,4 C 95 % 1022,5 hPa 0,0 l/m 2,8 km/h (1 Bft) S-SW 205 0 min 0,000 mm 0,0 UV-I 113 W/m 5,7 C 6,4 C 6,4 km/h (2 Bft) 100,00 %
09.10.2016 09:32 6,4 C 95 % 1022,5 hPa 0,0 l/m 4,1 km/h (1 Bft) W 261 0 min 0,000 mm 0,0 UV-I 115 W/m 5,7 C 6,4 C 6,4 km/h (2 Bft) 100,00 %
09.10.2016 09:34 6,4 C 94 % 1022,5 hPa 0,0 l/m 1,8 km/h (1 Bft) W 261 0 min 0,000 mm 0,0 UV-I 113 W/m 5,5 C 6,4 C 3,2 km/h (1 Bft) 100,00 %
09.10.2016 09:36 6,4 C 95 % 1022,5 hPa 0,0 l/m 2,7 km/h (1 Bft) W 262 0 min 0,000 mm 0,0 UV-I 118 W/m 5,7 C 6,4 C 3,2 km/h (1 Bft) 100,00 %
09.10.2016 09:38 6,5 C 95 % 1022,5 hPa 0,0 l/m 2,0 km/h (1 Bft) W 261 0 min 0,000 mm 0,0 UV-I 127 W/m 5,8 C 6,5 C 3,2 km/h (1 Bft) 97,83 %
09.10.2016 09:40 6,6 C 95 % 1022,5 hPa 0,0 l/m 2,7 km/h (1 Bft) W-SW 244 0 min 0,000 mm 0,0 UV-I 137 W/m 5,9 C 6,6 C 6,4 km/h (2 Bft) 97,92 %
09.10.2016 09:42 6,7 C 95 % 1022,5 hPa 0,0 l/m 6,1 km/h (2 Bft) W-SW 258 0 min 0,000 mm 0,0 UV-I 148 W/m 6,0 C 6,7 C 11,3 km/h (2 Bft) 100,00 %
09.10.2016 09:44 6,6 C 94 % 1022,5 hPa 0,0 l/m 3,8 km/h (1 Bft) W 265 0 min 0,000 mm 0,0 UV-I 157 W/m 5,7 C 6,6 C 6,4 km/h (2 Bft) 100,00 %
09.10.2016 09:46 6,6 C 94 % 1022,4 hPa 0,0 l/m 3,5 km/h (1 Bft) W 267 0 min 0,000 mm 0,0 UV-I 166 W/m 5,7 C 6,6 C 4,8 km/h (1 Bft) 97,87 %
09.10.2016 09:48 6,7 C 94 % 1022,5 hPa 0,0 l/m 4,1 km/h (1 Bft) W-SW 254 0 min 0,000 mm 0,3 UV-I 176 W/m 5,8 C 6,7 C 8,0 km/h (2 Bft) 100,00 %
09.10.2016 09:50 6,8 C 94 % 1022,5 hPa 0,0 l/m 4,8 km/h (1 Bft) W 274 0 min 0,000 mm 0,5 UV-I 182 W/m 5,9 C 6,8 C 11,3 km/h (2 Bft) 97,87 %
09.10.2016 09:52 6,8 C 94 % 1022,5 hPa 0,0 l/m 5,5 km/h (1 Bft) S-SW 200 0 min 0,000 mm 0,5 UV-I 186 W/m 5,9 C 6,8 C 8,0 km/h (2 Bft) 97,87 %
09.10.2016 09:54 6,9 C 94 % 1022,5 hPa 0,0 l/m 5,8 km/h (2 Bft) SW 215 0 min 0,000 mm 0,5 UV-I 186 W/m 6,0 C 6,9 C 9,7 km/h (2 Bft) 100,00 %
09.10.2016 09:56 6,9 C 94 % 1022,5 hPa 0,0 l/m 3,7 km/h (1 Bft) S-SW 210 0 min 0,000 mm 0,5 UV-I 186 W/m 6,0 C 6,9 C 8,0 km/h (2 Bft) 100,00 %
09.10.2016 09:58 7,0 C 94 % 1022,5 hPa 0,0 l/m 5,2 km/h (1 Bft) W 266 0 min 0,000 mm 0,5 UV-I 183 W/m 6,1 C 7,0 C 9,7 km/h (2 Bft) 97,87 %
09.10.2016 10:00 7,1 C 93 % 1022,5 hPa 0,0 l/m 4,8 km/h (1 Bft) W 267 0 min 0,076 mm 0,5 UV-I 181 W/m 6,0 C 7,1 C 9,7 km/h (2 Bft) 97,87 %
09.10.2016 10:02 7,1 C 93 % 1022,5 hPa 0,0 l/m 2,6 km/h (1 Bft) W 267 0 min 0,000 mm 0,5 UV-I 182 W/m 6,0 C 7,1 C 4,8 km/h (1 Bft) 100,00 %
09.10.2016 10:04 7,2 C 94 % 1022,5 hPa 0,0 l/m 1,6 km/h (1 Bft) W 267 0 min 0,000 mm 0,6 UV-I 197 W/m 6,3 C 7,2 C 4,8 km/h (1 Bft) 96,00 %
09.10.2016 10:06 7,4 C 94 % 1022,5 hPa 0,0 l/m 1,2 km/h (1 Bft) W 267 0 min 0,000 mm 0,6 UV-I 206 W/m 6,5 C 7,4 C 3,2 km/h (1 Bft) 100,00 %
09.10.2016 10:08 7,4 C 94 % 1022,5 hPa 0,0 l/m 4,0 km/h (1 Bft) W-SW 255 0 min 0,000 mm 0,6 UV-I 206 W/m 6,5 C 7,4 C 8,0 km/h (2 Bft) 100,00 %
09.10.2016 10:10 7,4 C 93 % 1022,5 hPa 0,0 l/m 3,1 km/h (1 Bft) W-SW 257 0 min 0,000 mm 0,6 UV-I 207 W/m 6,3 C 7,4 C 4,8 km/h (1 Bft) 98,00 %
09.10.2016 10:12 7,4 C 92 % 1022,5 hPa 0,0 l/m 4,1 km/h (1 Bft) W-SW 243 0 min 0,000 mm 0,6 UV-I 207 W/m 6,2 C 7,4 C 6,4 km/h (2 Bft) 100,00 %
09.10.2016 10:14 7,4 C 92 % 1022,4 hPa 0,0 l/m 1,8 km/h (1 Bft) W-SW 246 0 min 0,000 mm 0,7 UV-I 207 W/m 6,2 C 7,4 C 6,4 km/h (2 Bft) 97,44 %
09.10.2016 10:16 7,4 C 91 % 1022,4 hPa 0,0 l/m 2,7 km/h (1 Bft) W-SW 246 0 min 0,000 mm 0,7 UV-I 209 W/m 6,0 C 7,4 C 4,8 km/h (1 Bft) 97,87 %
09.10.2016 10:18 7,5 C 92 % 1022,4 hPa 0,0 l/m 2,8 km/h (1 Bft) W 264 0 min 0,000 mm 0,7 UV-I 210 W/m 6,3 C 7,5 C 4,8 km/h (1 Bft) 97,87 %
09.10.2016 10:20 7,6 C 92 % 1022,4 hPa 0,0 l/m 2,3 km/h (1 Bft) W 264 0 min 0,000 mm 0,7 UV-I 213 W/m 6,4 C 7,6 C 4,8 km/h (1 Bft) 97,87 %
09.10.2016 10:22 7,7 C 91 % 1022,4 hPa 0,0 l/m 3,0 km/h (1 Bft) W 271 0 min 0,000 mm 0,8 UV-I 220 W/m 6,3 C 7,7 C 9,7 km/h (2 Bft) 97,87 %
09.10.2016 10:24 7,7 C 91 % 1022,4 hPa 0,0 l/m 4,0 km/h (1 Bft) W 267 0 min 0,000 mm 0,8 UV-I 227 W/m 6,3 C 7,7 C 9,7 km/h (2 Bft) 97,87 %
09.10.2016 10:26 7,7 C 91 % 1022,4 hPa 0,0 l/m 4,5 km/h (1 Bft) W-SW 254 0 min 0,000 mm 0,8 UV-I 229 W/m 6,3 C 7,7 C 9,7 km/h (2 Bft) 97,87 %
09.10.2016 10:28 7,7 C 90 % 1022,3 hPa 0,0 l/m 3,0 km/h (1 Bft) W-SW 251 0 min 0,000 mm 0,8 UV-I 225 W/m 6,2 C 7,7 C 6,4 km/h (2 Bft) 98,00 %
09.10.2016 10:30 7,8 C 91 % 1022,4 hPa 0,0 l/m 4,8 km/h (1 Bft) W-SW 256 0 min 0,000 mm 0,9 UV-I 221 W/m 6,4 C 7,8 C 6,4 km/h (2 Bft) 95,74 %
09.10.2016 10:32 7,8 C 90 % 1022,4 hPa 0,0 l/m 4,5 km/h (1 Bft) W 269 0 min 0,000 mm 0,9 UV-I 224 W/m 6,3 C 7,8 C 8,0 km/h (2 Bft) 97,87 %
09.10.2016 10:34 7,9 C 90 % 1022,4 hPa 0,0 l/m 6,5 km/h (2 Bft) W-SW 254 0 min 0,000 mm 0,9 UV-I 230 W/m 6,4 C 7,8 C 9,7 km/h (2 Bft) 97,87 %
09.10.2016 10:36 7,9 C 89 % 1022,4 hPa 0,0 l/m 6,7 km/h (2 Bft) W-SW 248 0 min 0,000 mm 0,9 UV-I 240 W/m 6,2 C 7,7 C 9,7 km/h (2 Bft) 95,74 %
09.10.2016 10:38 7,9 C 90 % 1022,4 hPa 0,0 l/m 3,6 km/h (1 Bft) W-SW 248 0 min 0,000 mm 0,9 UV-I 251 W/m 6,4 C 7,9 C 6,4 km/h (2 Bft) 95,74 %
09.10.2016 10:40 8,0 C 90 % 1022,4 hPa 0,0 l/m 1,6 km/h (1 Bft) W 269 0 min 0,000 mm 1,0 UV-I 260 W/m 6,5 C 8,0 C 4,8 km/h (1 Bft) 96,00 %
09.10.2016 10:42 8,1 C 90 % 1022,4 hPa 0,0 l/m 2,5 km/h (1 Bft) W-SW 242 0 min 0,000 mm 1,0 UV-I 260 W/m 6,6 C 8,1 C 4,8 km/h (1 Bft) 95,74 %
09.10.2016 10:44 8,2 C 90 % 1022,4 hPa 0,0 l/m 2,6 km/h (1 Bft) W-SW 242 0 min 0,000 mm 1,0 UV-I 256 W/m 6,7 C 8,2 C 6,4 km/h (2 Bft) 97,87 %
09.10.2016 10:46 8,3 C 90 % 1022,4 hPa 0,0 l/m 3,2 km/h (1 Bft) W 274 0 min 0,000 mm 1,0 UV-I 257 W/m 6,8 C 8,3 C 4,8 km/h (1 Bft) 97,87 %
09.10.2016 10:48 8,3 C 89 % 1022,5 hPa 0,0 l/m 2,6 km/h (1 Bft) W 262 0 min 0,000 mm 1,0 UV-I 267 W/m 6,6 C 8,3 C 4,8 km/h (1 Bft) 97,87 %
09.10.2016 10:50 8,3 C 89 % 1022,4 hPa 0,0 l/m 3,4 km/h (1 Bft) W-SW 239 2 min 0,000 mm 1,0 UV-I 284 W/m 6,6 C 8,3 C 6,4 km/h (2 Bft) 100,00 %
09.10.2016 10:52 8,4 C 89 % 1022,5 hPa 0,0 l/m 0,7 km/h (0 Bft) W-SW 239 2 min 0,000 mm 1,0 UV-I 304 W/m 6,7 C 8,4 C 1,6 km/h (1 Bft) 97,87 %
09.10.2016 10:54 8,6 C 90 % 1022,5 hPa 0,0 l/m 0,3 km/h (0 Bft) W-SW 239 2 min 0,000 mm 1,1 UV-I 380 W/m 7,1 C 8,6 C 1,6 km/h (1 Bft) 97,92 %
09.10.2016 10:56 8,7 C 88 % 1022,4 hPa 0,0 l/m 0,6 km/h (0 Bft) W-SW 239 2 min 0,000 mm 1,3 UV-I 517 W/m 6,8 C 8,7 C 1,6 km/h (1 Bft) 100,00 %
09.10.2016 10:58 9,1 C 90 % 1022,4 hPa 0,0 l/m 3,1 km/h (1 Bft) W 269 2 min 0,000 mm 1,3 UV-I 604 W/m 7,5 C 9,1 C 14,5 km/h (3 Bft) 100,00 %
09.10.2016 11:00 9,1 C 87 % 1022,4 hPa 0,0 l/m 5,0 km/h (1 Bft) N 5 2 min 0,127 mm 1,2 UV-I 635 W/m 7,1 C 9,1 C 9,7 km/h (2 Bft) 100,00 %
09.10.2016 11:02 9,1 C 87 % 1022,4 hPa 0,0 l/m 3,9 km/h (1 Bft) N 11 2 min 0,000 mm 1,0 UV-I 318 W/m 7,1 C 9,1 C 9,7 km/h (2 Bft) 95,74 %
09.10.2016 11:04 9,1 C 89 % 1022,4 hPa 0,0 l/m 2,2 km/h (1 Bft) NW 304 0 min 0,000 mm 1,0 UV-I 264 W/m 7,4 C 9,1 C 6,4 km/h (2 Bft) 100,00 %
09.10.2016 11:06 9,0 C 87 % 1022,4 hPa 0,0 l/m 3,7 km/h (1 Bft) N-NW 341 0 min 0,000 mm 1,0 UV-I 247 W/m 7,0 C 9,0 C 6,4 km/h (2 Bft) 100,00 %
09.10.2016 11:08 8,8 C 87 % 1022,4 hPa 0,0 l/m 2,5 km/h (1 Bft) N 5 0 min 0,000 mm 1,1 UV-I 267 W/m 6,8 C 8,8 C 6,4 km/h (2 Bft) 97,87 %
09.10.2016 11:10 8,8 C 87 % 1022,4 hPa 0,0 l/m 2,6 km/h (1 Bft) NW 325 0 min 0,000 mm 1,1 UV-I 253 W/m 6,8 C 8,8 C 4,8 km/h (1 Bft) 100,00 %
09.10.2016 11:12 8,7 C 87 % 1022,4 hPa 0,0 l/m 1,7 km/h (1 Bft) W 279 0 min 0,000 mm 1,2 UV-I 273 W/m 6,7 C 8,7 C 3,2 km/h (1 Bft) 95,74 %
09.10.2016 11:14 8,7 C 88 % 1022,4 hPa 0,0 l/m 2,3 km/h (1 Bft) W-NW 294 2 min 0,000 mm 1,4 UV-I 337 W/m 6,8 C 8,7 C 4,8 km/h (1 Bft) 97,87 %
09.10.2016 11:16 8,8 C 88 % 1022,4 hPa 0,0 l/m 2,7 km/h (1 Bft) W 277 2 min 0,000 mm 1,4 UV-I 500 W/m 6,9 C 8,8 C 4,8 km/h (1 Bft) 97,87 %
09.10.2016 11:18 8,9 C 86 % 1022,3 hPa 0,0 l/m 3,9 km/h (1 Bft) W 279 2 min 0,000 mm 1,5 UV-I 423 W/m 6,7 C 8,9 C 9,7 km/h (2 Bft) 97,87 %
09.10.2016 11:20 8,9 C 85 % 1022,4 hPa 0,0 l/m 3,6 km/h (1 Bft) W-NW 285 2 min 0,000 mm 1,6 UV-I 510 W/m 6,5 C 8,9 C 9,7 km/h (2 Bft) 100,00 %
09.10.2016 11:22 9,0 C 86 % 1022,4 hPa 0,0 l/m 1,6 km/h (1 Bft) W-NW 283 2 min 0,000 mm 1,5 UV-I 501 W/m 6,8 C 9,0 C 6,4 km/h (2 Bft) 100,00 %
09.10.2016 11:24 9,3 C 88 % 1022,3 hPa 0,0 l/m 1,0 km/h (0 Bft) W 273 2 min 0,000 mm 1,7 UV-I 579 W/m 7,4 C 9,3 C 1,6 km/h (1 Bft) 100,00 %
09.10.2016 11:26 9,4 C 86 % 1022,3 hPa 0,0 l/m 2,3 km/h (1 Bft) W-NW 286 2 min 0,000 mm 1,7 UV-I 577 W/m 7,2 C 9,4 C 4,8 km/h (1 Bft) 97,14 %
09.10.2016 11:28 9,4 C 85 % 1022,3 hPa 0,0 l/m 2,5 km/h (1 Bft) W-NW 302 2 min 0,000 mm 1,7 UV-I 581 W/m 7,0 C 9,4 C 6,4 km/h (2 Bft) 100,00 %
09.10.2016 11:30 9,4 C 84 % 1022,3 hPa 0,0 l/m 3,4 km/h (1 Bft) W-NW 296 2 min 0,000 mm 1,6 UV-I 582 W/m 6,8 C 9,4 C 4,8 km/h (1 Bft) 98,00 %
09.10.2016 11:32 9,4 C 84 % 1022,3 hPa 0,0 l/m 5,0 km/h (1 Bft) W-NW 298 2 min 0,000 mm 1,7 UV-I 642 W/m 6,8 C 9,4 C 8,0 km/h (2 Bft) 100,00 %
09.10.2016 11:34 9,5 C 85 % 1022,3 hPa 0,0 l/m 2,3 km/h (1 Bft) W-NW 298 2 min 0,000 mm 1,6 UV-I 496 W/m 7,1 C 9,5 C 6,4 km/h (2 Bft) 100,00 %
09.10.2016 11:36 9,4 C 84 % 1022,3 hPa 0,0 l/m 1,8 km/h (1 Bft) N-NW 328 0 min 0,000 mm 1,5 UV-I 287 W/m 6,8 C 9,4 C 6,4 km/h (2 Bft) 98,00 %
09.10.2016 11:38 9,4 C 86 % 1022,3 hPa 0,0 l/m 2,3 km/h (1 Bft) N-NW 328 2 min 0,000 mm 1,8 UV-I 478 W/m 7,2 C 9,4 C 4,8 km/h (1 Bft) 100,00 %
09.10.2016 11:40 9,6 C 84 % 1022,3 hPa 0,0 l/m 2,7 km/h (1 Bft) NW 315 2 min 0,000 mm 1,8 UV-I 530 W/m 7,0 C 9,6 C 6,4 km/h (2 Bft) 97,87 %
09.10.2016 11:42 9,6 C 85 % 1022,3 hPa 0,0 l/m 3,1 km/h (1 Bft) NW 325 2 min 0,000 mm 1,7 UV-I 528 W/m 7,2 C 9,6 C 6,4 km/h (2 Bft) 97,87 %
09.10.2016 11:44 9,7 C 84 % 1022,3 hPa 0,0 l/m 3,0 km/h (1 Bft) W-NW 290 2 min 0,000 mm 1,7 UV-I 508 W/m 7,1 C 9,7 C 6,4 km/h (2 Bft) 100,00 %
09.10.2016 11:46 9,7 C 84 % 1022,3 hPa 0,0 l/m 4,7 km/h (1 Bft) W 264 2 min 0,000 mm 1,8 UV-I 564 W/m 7,1 C 9,7 C 8,0 km/h (2 Bft) 100,00 %
09.10.2016 11:48 9,8 C 82 % 1022,3 hPa 0,0 l/m 5,1 km/h (1 Bft) W-SW 243 2 min 0,000 mm 1,9 UV-I 574 W/m 6,9 C 9,8 C 11,3 km/h (2 Bft) 100,00 %
09.10.2016 11:50 9,9 C 83 % 1022,3 hPa 0,0 l/m 2,2 km/h (1 Bft) W 279 2 min 0,000 mm 1,9 UV-I 591 W/m 7,2 C 9,9 C 4,8 km/h (1 Bft) 97,87 %
09.10.2016 11:52 9,9 C 79 % 1022,3 hPa 0,0 l/m 3,3 km/h (1 Bft) W-SW 255 2 min 0,000 mm 1,9 UV-I 634 W/m 6,4 C 9,9 C 11,3 km/h (2 Bft) 100,00 %
09.10.2016 11:54 10,1 C 83 % 1022,2 hPa 0,0 l/m 3,7 km/h (1 Bft) N-NW 338 2 min 0,000 mm 2,0 UV-I 697 W/m 7,3 C 10,1 C 11,3 km/h (2 Bft) 100,00 %
09.10.2016 11:56 10,3 C 82 % 1022,3 hPa 0,0 l/m 2,5 km/h (1 Bft) W-NW 294 2 min 0,000 mm 1,9 UV-I 743 W/m 7,4 C 10,3 C 4,8 km/h (1 Bft) 97,87 %
09.10.2016 11:58 10,4 C 82 % 1022,3 hPa 0,0 l/m 4,1 km/h (1 Bft) N-NO 24 2 min 0,000 mm 1,8 UV-I 723 W/m 7,5 C 10,4 C 8,0 km/h (2 Bft) 100,00 %
09.10.2016 12:00 10,5 C 82 % 1022,3 hPa 0,0 l/m 3,3 km/h (1 Bft) NW 323 2 min 0,229 mm 1,6 UV-I 653 W/m 7,6 C 10,5 C 8,0 km/h (2 Bft) 100,00 %
09.10.2016 12:02 10,3 C 82 % 1022,3 hPa 0,0 l/m 4,2 km/h (1 Bft) N-NW 348 2 min 0,000 mm 1,2 UV-I 320 W/m 7,4 C 10,3 C 8,0 km/h (2 Bft) 94,29 %
09.10.2016 12:04 9,9 C 82 % 1022,3 hPa 0,0 l/m 4,3 km/h (1 Bft) N-NW 333 0 min 0,000 mm 1,2 UV-I 181 W/m 7,0 C 9,9 C 9,7 km/h (2 Bft) 97,87 %
09.10.2016 12:06 9,7 C 83 % 1022,3 hPa 0,0 l/m 2,0 km/h (1 Bft) N-NW 336 0 min 0,000 mm 1,2 UV-I 194 W/m 7,0 C 9,7 C 3,2 km/h (1 Bft) 97,87 %
09.10.2016 12:08 9,6 C 84 % 1022,4 hPa 0,0 l/m 4,0 km/h (1 Bft) N-NO 23 0 min 0,000 mm 1,3 UV-I 204 W/m 7,0 C 9,6 C 8,0 km/h (2 Bft) 95,74 %
09.10.2016 12:10 9,4 C 85 % 1022,4 hPa 0,0 l/m 5,5 km/h (1 Bft) N-NO 12 0 min 0,000 mm 1,3 UV-I 186 W/m 7,0 C 9,4 C 12,9 km/h (3 Bft) 96,00 %
09.10.2016 12:12 9,3 C 85 % 1022,3 hPa 0,0 l/m 4,1 km/h (1 Bft) W-NW 302 0 min 0,000 mm 1,2 UV-I 129 W/m 6,9 C 9,3 C 9,7 km/h (2 Bft) 92,45 %
09.10.2016 12:14 9,2 C 85 % 1022,4 hPa 0,0 l/m 3,9 km/h (1 Bft) NW 324 0 min 0,000 mm 1,4 UV-I 120 W/m 6,8 C 9,2 C 8,0 km/h (2 Bft) 97,87 %
09.10.2016 12:16 9,2 C 85 % 1022,4 hPa 0,0 l/m 4,2 km/h (1 Bft) N-NW 329 0 min 0,000 mm 1,7 UV-I 121 W/m 6,8 C 9,2 C 9,7 km/h (2 Bft) 95,74 %
09.10.2016 12:18 9,3 C 85 % 1022,4 hPa 0,0 l/m 3,6 km/h (1 Bft) N-NO 20 2 min 0,000 mm 1,9 UV-I 611 W/m 6,9 C 9,3 C 6,4 km/h (2 Bft) 95,74 %
09.10.2016 12:20 9,7 C 87 % 1022,4 hPa 0,0 l/m 3,1 km/h (1 Bft) N-NW 341 2 min 0,000 mm 2,0 UV-I 633 W/m 7,6 C 9,7 C 6,4 km/h (2 Bft) 97,92 %
09.10.2016 12:22 9,9 C 85 % 1022,4 hPa 0,0 l/m 4,1 km/h (1 Bft) NW 324 2 min 0,000 mm 2,0 UV-I 649 W/m 7,5 C 9,9 C 8,0 km/h (2 Bft) 97,87 %
09.10.2016 12:24 10,0 C 84 % 1022,4 hPa 0,0 l/m 2,5 km/h (1 Bft) N-NO 22 2 min 0,000 mm 1,7 UV-I 570 W/m 7,4 C 10,0 C 8,0 km/h (2 Bft) 97,37 %
09.10.2016 12:26 10,0 C 84 % 1022,4 hPa 0,0 l/m 5,9 km/h (2 Bft) N-NO 30 2 min 0,000 mm 1,9 UV-I 683 W/m 7,4 C 10,0 C 11,3 km/h (2 Bft) 96,00 %
09.10.2016 12:28 10,3 C 87 % 1022,4 hPa 0,0 l/m 5,5 km/h (1 Bft) N-NO 21 2 min 0,000 mm 1,9 UV-I 724 W/m 8,2 C 10,3 C 9,7 km/h (2 Bft) 97,87 %
09.10.2016 12:30 10,4 C 83 % 1022,4 hPa 0,0 l/m 2,5 km/h (1 Bft) N-NW 341 2 min 0,000 mm 1,5 UV-I 717 W/m 7,6 C 10,4 C 6,4 km/h (2 Bft) 95,74 %
09.10.2016 12:32 10,3 C 83 % 1022,4 hPa 0,0 l/m 3,0 km/h (1 Bft) NW 305 0 min 0,000 mm 1,2 UV-I 299 W/m 7,5 C 10,3 C 11,3 km/h (2 Bft) 95,74 %
09.10.2016 12:34 10,1 C 82 % 1022,4 hPa 0,0 l/m 5,2 km/h (1 Bft) N-NW 347 0 min 0,000 mm 1,1 UV-I 148 W/m 7,2 C 10,1 C 12,9 km/h (3 Bft) 100,00 %
09.10.2016 12:36 9,8 C 82 % 1022,4 hPa 0,0 l/m 4,6 km/h (1 Bft) NW 305 0 min 0,000 mm 1,1 UV-I 155 W/m 6,9 C 9,8 C 14,5 km/h (3 Bft) 100,00 %
09.10.2016 12:38 9,7 C 84 % 1022,4 hPa 0,0 l/m 2,7 km/h (1 Bft) NW 323 0 min 0,000 mm 1,2 UV-I 185 W/m 7,1 C 9,7 C 4,8 km/h (1 Bft) 100,00 %
09.10.2016 12:40 9,6 C 84 % 1022,4 hPa 0,0 l/m 4,3 km/h (1 Bft) NW 320 0 min 0,000 mm 1,2 UV-I 206 W/m 7,0 C 9,6 C 12,9 km/h (3 Bft) 97,87 %
09.10.2016 12:42 9,4 C 83 % 1022,4 hPa 0,0 l/m 2,6 km/h (1 Bft) N-NW 346 0 min 0,000 mm 1,3 UV-I 233 W/m 6,7 C 9,4 C 6,4 km/h (2 Bft) 100,00 %
09.10.2016 12:44 9,5 C 85 % 1022,4 hPa 0,0 l/m 2,0 km/h (1 Bft) N 350 0 min 0,000 mm 1,3 UV-I 250 W/m 7,1 C 9,5 C 4,8 km/h (1 Bft) 95,74 %
09.10.2016 12:46 9,5 C 84 % 1022,4 hPa 0,0 l/m 2,2 km/h (1 Bft) N 351 0 min 0,000 mm 1,5 UV-I 317 W/m 6,9 C 9,5 C 4,8 km/h (1 Bft) 100,00 %
09.10.2016 12:48 9,7 C 85 % 1022,4 hPa 0,0 l/m 1,6 km/h (1 Bft) W-NW 290 2 min 0,000 mm 1,9 UV-I 338 W/m 7,3 C 9,7 C 6,4 km/h (2 Bft) 100,00 %
09.10.2016 12:50 9,9 C 82 % 1022,4 hPa 0,0 l/m 2,0 km/h (1 Bft) W-NW 302 2 min 0,000 mm 2,0 UV-I 466 W/m 7,0 C 9,9 C 4,8 km/h (1 Bft) 97,83 %
09.10.2016 12:52 10,1 C 82 % 1022,4 hPa 0,0 l/m 2,5 km/h (1 Bft) W-NW 303 2 min 0,000 mm 2,1 UV-I 697 W/m 7,2 C 10,1 C 4,8 km/h (1 Bft) 95,83 %
09.10.2016 12:54 10,3 C 80 % 1022,3 hPa 0,0 l/m 2,3 km/h (1 Bft) W-NW 291 2 min 0,000 mm 2,1 UV-I 661 W/m 7,0 C 10,3 C 4,8 km/h (1 Bft) 97,87 %
09.10.2016 12:56 10,5 C 82 % 1022,3 hPa 0,0 l/m 3,2 km/h (1 Bft) W-NW 296 2 min 0,000 mm 2,0 UV-I 650 W/m 7,6 C 10,5 C 9,7 km/h (2 Bft) 97,87 %
09.10.2016 12:58 10,7 C 83 % 1022,3 hPa 0,0 l/m 4,6 km/h (1 Bft) N 360 2 min 0,000 mm 2,1 UV-I 640 W/m 7,9 C 10,7 C 12,9 km/h (3 Bft) 100,00 %
09.10.2016 13:00 10,8 C 83 % 1022,3 hPa 0,0 l/m 4,0 km/h (1 Bft) N-NO 25 2 min 0,177 mm 2,0 UV-I 640 W/m 8,0 C 10,8 C 6,4 km/h (2 Bft) 100,00 %
09.10.2016 13:02 10,8 C 83 % 1022,3 hPa 0,0 l/m 4,4 km/h (1 Bft) NW 321 2 min 0,000 mm 1,7 UV-I 360 W/m 8,0 C 10,8 C 8,0 km/h (2 Bft) 100,00 %
09.10.2016 13:04 10,7 C 81 % 1022,2 hPa 0,0 l/m 4,4 km/h (1 Bft) NO 40 0 min 0,000 mm 1,6 UV-I 259 W/m 7,6 C 10,7 C 12,9 km/h (3 Bft) 100,00 %
09.10.2016 13:06 10,5 C 82 % 1022,3 hPa 0,0 l/m 4,5 km/h (1 Bft) N-NW 342 2 min 0,000 mm 2,0 UV-I 498 W/m 7,6 C 10,5 C 12,9 km/h (3 Bft) 100,00 %
09.10.2016 13:08 10,4 C 82 % 1022,2 hPa 0,0 l/m 4,0 km/h (1 Bft) N-NO 29 2 min 0,000 mm 2,0 UV-I 579 W/m 7,5 C 10,4 C 11,3 km/h (2 Bft) 100,00 %
09.10.2016 13:10 10,4 C 83 % 1022,2 hPa 0,0 l/m 3,2 km/h (1 Bft) NW 315 2 min 0,000 mm 2,0 UV-I 561 W/m 7,6 C 10,4 C 6,4 km/h (2 Bft) 100,00 %
09.10.2016 13:12 10,5 C 82 % 1022,2 hPa 0,0 l/m 3,4 km/h (1 Bft) N 351 2 min 0,000 mm 2,0 UV-I 562 W/m 7,6 C 10,5 C 6,4 km/h (2 Bft) 97,87 %
09.10.2016 13:14 10,6 C 82 % 1022,2 hPa 0,0 l/m 3,8 km/h (1 Bft) N 360 2 min 0,000 mm 2,0 UV-I 561 W/m 7,7 C 10,6 C 9,7 km/h (2 Bft) 97,87 %
09.10.2016 13:16 10,7 C 81 % 1022,2 hPa 0,0 l/m 2,4 km/h (1 Bft) W-NW 295 2 min 0,000 mm 2,0 UV-I 562 W/m 7,6 C 10,7 C 4,8 km/h (1 Bft) 100,00 %
09.10.2016 13:18 10,7 C 77 % 1022,2 hPa 0,0 l/m 3,6 km/h (1 Bft) W-NW 292 2 min 0,000 mm 2,0 UV-I 562 W/m 6,8 C 10,7 C 6,4 km/h (2 Bft) 100,00 %
09.10.2016 13:20 10,7 C 79 % 1022,1 hPa 0,0 l/m 4,3 km/h (1 Bft) N-NW 339 2 min 0,000 mm 2,0 UV-I 574 W/m 7,2 C 10,7 C 8,0 km/h (2 Bft) 97,87 %
09.10.2016 13:22 10,7 C 79 % 1022,1 hPa 0,0 l/m 1,4 km/h (1 Bft) NW 308 2 min 0,000 mm 2,0 UV-I 604 W/m 7,2 C 10,7 C 3,2 km/h (1 Bft) 100,00 %
09.10.2016 13:24 10,8 C 79 % 1022,0 hPa 0,0 l/m 3,0 km/h (1 Bft) N 10 2 min 0,000 mm 1,7 UV-I 535 W/m 7,3 C 10,8 C 8,0 km/h (2 Bft) 100,00 %
09.10.2016 13:26 10,7 C 79 % 1022,1 hPa 0,0 l/m 3,0 km/h (1 Bft) W-NW 286 0 min 0,000 mm 1,5 UV-I 274 W/m 7,2 C 10,7 C 8,0 km/h (2 Bft) 100,00 %
09.10.2016 13:28 10,7 C 80 % 1022,0 hPa 0,0 l/m 2,9 km/h (1 Bft) N 360 2 min 0,000 mm 1,7 UV-I 453 W/m 7,4 C 10,7 C 8,0 km/h (2 Bft) 100,00 %
09.10.2016 13:30 10,7 C 79 % 1022,1 hPa 0,0 l/m 2,8 km/h (1 Bft) N-NW 332 2 min 0,000 mm 1,5 UV-I 598 W/m 7,2 C 10,7 C 6,4 km/h (2 Bft) 100,00 %
09.10.2016 13:32 10,6 C 79 % 1022,1 hPa 0,0 l/m 4,0 km/h (1 Bft) NW 304 2 min 0,000 mm 1,8 UV-I 595 W/m 7,1 C 10,6 C 8,0 km/h (2 Bft) 100,00 %
09.10.2016 13:34 10,6 C 80 % 1022,1 hPa 0,0 l/m 4,5 km/h (1 Bft) N-NW 329 2 min 0,000 mm 1,9 UV-I 581 W/m 7,3 C 10,6 C 12,9 km/h (3 Bft) 97,87 %
09.10.2016 13:36 10,6 C 80 % 1022,1 hPa 0,0 l/m 3,0 km/h (1 Bft) N-NO 26 2 min 0,000 mm 1,9 UV-I 554 W/m 7,3 C 10,6 C 8,0 km/h (2 Bft) 100,00 %
09.10.2016 13:38 10,7 C 79 % 1022,1 hPa 0,0 l/m 3,9 km/h (1 Bft) N-NO 33 2 min 0,000 mm 1,9 UV-I 573 W/m 7,2 C 10,7 C 6,4 km/h (2 Bft) 97,87 %
09.10.2016 13:40 10,8 C 79 % 1022,0 hPa 0,0 l/m 3,3 km/h (1 Bft) N 355 2 min 0,000 mm 1,9 UV-I 582 W/m 7,3 C 10,8 C 11,3 km/h (2 Bft) 100,00 %
09.10.2016 13:42 10,8 C 77 % 1022,1 hPa 0,0 l/m 3,0 km/h (1 Bft) N-NW 329 2 min 0,000 mm 1,9 UV-I 623 W/m 6,9 C 10,8 C 6,4 km/h (2 Bft) 100,00 %
09.10.2016 13:44 10,8 C 78 % 1022,1 hPa 0,0 l/m 3,0 km/h (1 Bft) NW 321 2 min 0,000 mm 1,7 UV-I 670 W/m 7,1 C 10,8 C 6,4 km/h (2 Bft) 97,87 %
09.10.2016 13:46 10,8 C 78 % 1022,0 hPa 0,0 l/m 4,1 km/h (1 Bft) N-NO 12 2 min 0,000 mm 1,5 UV-I 598 W/m 7,1 C 10,8 C 12,9 km/h (3 Bft) 97,87 %
09.10.2016 13:48 10,8 C 79 % 1022,0 hPa 0,0 l/m 2,4 km/h (1 Bft) N-NW 329 0 min 0,000 mm 1,6 UV-I 223 W/m 7,3 C 10,8 C 6,4 km/h (2 Bft) 100,00 %
09.10.2016 13:50 10,8 C 78 % 1022,0 hPa 0,0 l/m 3,8 km/h (1 Bft) NW 311 2 min 0,000 mm 1,8 UV-I 583 W/m 7,1 C 10,8 C 8,0 km/h (2 Bft) 95,74 %
09.10.2016 13:52 10,8 C 77 % 1022,0 hPa 0,0 l/m 2,8 km/h (1 Bft) N-NO 22 2 min 0,000 mm 1,9 UV-I 620 W/m 6,9 C 10,8 C 6,4 km/h (2 Bft) 100,00 %
09.10.2016 13:54 11,0 C 77 % 1022,0 hPa 0,0 l/m 3,2 km/h (1 Bft) N-NW 346 2 min 0,000 mm 1,8 UV-I 587 W/m 7,1 C 11,0 C 6,4 km/h (2 Bft) 97,87 %
09.10.2016 13:56 11,2 C 80 % 1022,0 hPa 0,0 l/m 3,0 km/h (1 Bft) N-NW 329 2 min 0,000 mm 1,8 UV-I 570 W/m 7,9 C 11,2 C 6,4 km/h (2 Bft) 91,49 %
09.10.2016 13:58 11,2 C 77 % 1022,0 hPa 0,0 l/m 4,9 km/h (1 Bft) N-NO 22 2 min 0,000 mm 1,8 UV-I 570 W/m 7,3 C 11,2 C 12,9 km/h (3 Bft) 96,00 %
09.10.2016 14:00 11,2 C 79 % 1022,0 hPa 0,0 l/m 2,7 km/h (1 Bft) N 355 2 min 0,254 mm 1,6 UV-I 518 W/m 7,7 C 11,2 C 6,4 km/h (2 Bft) 97,87 %
09.10.2016 14:02 11,1 C 79 % 1022,0 hPa 0,0 l/m 5,3 km/h (1 Bft) N-NW 340 2 min 0,000 mm 1,5 UV-I 403 W/m 7,6 C 11,1 C 11,3 km/h (2 Bft) 97,37 %
09.10.2016 14:04 10,9 C 78 % 1021,9 hPa 0,0 l/m 4,5 km/h (1 Bft) N-NO 16 0 min 0,000 mm 1,3 UV-I 298 W/m 7,2 C 10,9 C 11,3 km/h (2 Bft) 98,00 %
09.10.2016 14:06 10,7 C 79 % 1021,9 hPa 0,0 l/m 5,0 km/h (1 Bft) N 5 0 min 0,000 mm 1,4 UV-I 164 W/m 7,2 C 10,7 C 12,9 km/h (3 Bft) 97,87 %
09.10.2016 14:08 10,8 C 79 % 1022,0 hPa 0,0 l/m 3,8 km/h (1 Bft) N 351 0 min 0,000 mm 1,6 UV-I 276 W/m 7,3 C 10,8 C 8,0 km/h (2 Bft) 98,11 %
09.10.2016 14:10 10,8 C 77 % 1021,9 hPa 0,0 l/m 5,0 km/h (1 Bft) O-NO 58 2 min 0,000 mm 1,7 UV-I 536 W/m 6,9 C 10,8 C 8,0 km/h (2 Bft) 97,87 %
09.10.2016 14:12 11,0 C 79 % 1021,9 hPa 0,0 l/m 4,7 km/h (1 Bft) N-NO 19 2 min 0,000 mm 1,7 UV-I 602 W/m 7,5 C 11,0 C 11,3 km/h (2 Bft) 97,87 %
09.10.2016 14:14 11,2 C 77 % 1021,9 hPa 0,0 l/m 7,5 km/h (2 Bft) N-NW 342 2 min 0,000 mm 1,7 UV-I 600 W/m 7,3 C 10,4 C 12,9 km/h (3 Bft) 95,74 %
09.10.2016 14:16 11,4 C 78 % 1021,9 hPa 0,0 l/m 1,6 km/h (1 Bft) NW 324 2 min 0,000 mm 1,6 UV-I 587 W/m 7,7 C 11,4 C 4,8 km/h (1 Bft) 97,87 %
09.10.2016 14:18 11,4 C 76 % 1021,9 hPa 0,0 l/m 2,5 km/h (1 Bft) N 355 2 min 0,000 mm 1,4 UV-I 522 W/m 7,3 C 11,4 C 4,8 km/h (1 Bft) 97,22 %
09.10.2016 14:20 11,3 C 78 % 1021,8 hPa 0,0 l/m 2,3 km/h (1 Bft) NW 324 0 min 0,000 mm 1,3 UV-I 286 W/m 7,6 C 11,3 C 6,4 km/h (2 Bft) 97,87 %
09.10.2016 14:22 11,3 C 78 % 1021,8 hPa 0,0 l/m 3,3 km/h (1 Bft) N 10 2 min 0,000 mm 1,6 UV-I 490 W/m 7,6 C 11,3 C 8,0 km/h (2 Bft) 97,87 %
09.10.2016 14:24 11,4 C 77 % 1021,8 hPa 0,0 l/m 3,5 km/h (1 Bft) W 264 2 min 0,000 mm 1,5 UV-I 589 W/m 7,5 C 11,4 C 12,9 km/h (3 Bft) 100,00 %
09.10.2016 14:26 11,3 C 73 % 1021,8 hPa 0,0 l/m 4,8 km/h (1 Bft) N-NW 331 2 min 0,000 mm 1,4 UV-I 572 W/m 6,6 C 11,3 C 11,3 km/h (2 Bft) 96,00 %
09.10.2016 14:28 11,3 C 77 % 1021,8 hPa 0,0 l/m 2,3 km/h (1 Bft) N-NW 348 2 min 0,000 mm 1,4 UV-I 476 W/m 7,4 C 11,3 C 4,8 km/h (1 Bft) 98,00 %
09.10.2016 14:30 11,3 C 76 % 1021,8 hPa 0,0 l/m 2,5 km/h (1 Bft) N 355 2 min 0,000 mm 1,4 UV-I 573 W/m 7,2 C 11,3 C 4,8 km/h (1 Bft) 100,00 %
09.10.2016 14:32 11,2 C 75 % 1021,8 hPa 0,0 l/m 3,1 km/h (1 Bft) N-NW 348 2 min 0,000 mm 1,3 UV-I 346 W/m 6,9 C 11,2 C 4,8 km/h (1 Bft) 100,00 %
09.10.2016 14:34 10,9 C 73 % 1021,8 hPa 0,0 l/m 2,7 km/h (1 Bft) W-NW 297 0 min 0,000 mm 1,2 UV-I 240 W/m 6,3 C 10,9 C 6,4 km/h (2 Bft) 100,00 %
09.10.2016 14:36 10,8 C 72 % 1021,8 hPa 0,0 l/m 2,0 km/h (1 Bft) W-NW 300 0 min 0,000 mm 1,2 UV-I 277 W/m 6,0 C 10,8 C 4,8 km/h (1 Bft) 100,00 %
09.10.2016 14:38 10,7 C 75 % 1021,8 hPa 0,0 l/m 0,9 km/h (0 Bft) N 5 0 min 0,000 mm 1,1 UV-I 161 W/m 6,5 C 10,7 C 4,8 km/h (1 Bft) 95,74 %
09.10.2016 14:40 10,6 C 73 % 1021,8 hPa 0,0 l/m 1,6 km/h (1 Bft) N-NW 343 0 min 0,000 mm 1,0 UV-I 136 W/m 6,0 C 10,6 C 4,8 km/h (1 Bft) 97,87 %
09.10.2016 14:42 10,5 C 71 % 1021,7 hPa 0,0 l/m 0,4 km/h (0 Bft) N-NW 343 0 min 0,000 mm 1,1 UV-I 147 W/m 5,5 C 10,5 C 1,6 km/h (1 Bft) 100,00 %
09.10.2016 14:44 10,4 C 71 % 1021,6 hPa 0,0 l/m 0,3 km/h (0 Bft) N-NW 343 0 min 0,000 mm 1,0 UV-I 154 W/m 5,4 C 10,4 C 1,6 km/h (1 Bft) 100,00 %
09.10.2016 14:46 10,4 C 70 % 1021,6 hPa 0,0 l/m 0,2 km/h (0 Bft) N-NW 343 0 min 0,000 mm 1,0 UV-I 131 W/m 5,2 C 10,4 C 1,6 km/h (1 Bft) 100,00 %
09.10.2016 14:48 10,4 C 71 % 1021,6 hPa 0,0 l/m 1,3 km/h (1 Bft) N-NW 343 0 min 0,000 mm 1,2 UV-I 132 W/m 5,4 C 10,4 C 1,6 km/h (1 Bft) 100,00 %
09.10.2016 14:50 10,6 C 72 % 1021,6 hPa 0,0 l/m 0,2 km/h (0 Bft) N-NW 343 2 min 0,000 mm 1,2 UV-I 443 W/m 5,8 C 10,6 C 1,6 km/h (1 Bft) 100,00 %
09.10.2016 14:52 10,7 C 72 % 1021,7 hPa 0,0 l/m 2,4 km/h (1 Bft) NO 38 2 min 0,000 mm 1,3 UV-I 476 W/m 5,9 C 10,7 C 4,8 km/h (1 Bft) 100,00 %
09.10.2016 14:54 10,8 C 71 % 1021,6 hPa 0,0 l/m 4,1 km/h (1 Bft) O 82 2 min 0,000 mm 1,3 UV-I 469 W/m 5,8 C 10,8 C 6,4 km/h (2 Bft) 97,87 %
09.10.2016 14:56 11,0 C 72 % 1021,7 hPa 0,0 l/m 2,2 km/h (1 Bft) O-NO 67 2 min 0,000 mm 1,3 UV-I 470 W/m 6,2 C 11,0 C 4,8 km/h (1 Bft) 97,92 %
09.10.2016 14:58 11,3 C 71 % 1021,6 hPa 0,0 l/m 1,0 km/h (0 Bft) O 82 2 min 0,000 mm 1,3 UV-I 493 W/m 6,2 C 11,3 C 3,2 km/h (1 Bft) 100,00 %
09.10.2016 15:00 11,5 C 68 % 1021,6 hPa 0,0 l/m 1,7 km/h (1 Bft) O 92 2 min 0,000 mm 1,3 UV-I 511 W/m 5,8 C 11,5 C 3,2 km/h (1 Bft) 97,87 %
09.10.2016 15:02 11,5 C 67 % 1021,6 hPa 0,0 l/m 1,0 km/h (0 Bft) NO 55 2 min 0,204 mm 1,3 UV-I 515 W/m 5,6 C 11,5 C 1,6 km/h (1 Bft) 100,00 %
09.10.2016 15:04 11,6 C 71 % 1021,6 hPa 0,0 l/m 1,1 km/h (1 Bft) NO 35 2 min 0,000 mm 1,3 UV-I 507 W/m 6,5 C 11,6 C 3,2 km/h (1 Bft) 100,00 %
09.10.2016 15:06 11,6 C 72 % 1021,6 hPa 0,0 l/m 2,2 km/h (1 Bft) N 5 2 min 0,000 mm 1,2 UV-I 513 W/m 6,7 C 11,6 C 4,8 km/h (1 Bft) 100,00 %
09.10.2016 15:08 11,7 C 72 % 1021,6 hPa 0,0 l/m 2,4 km/h (1 Bft) NW 325 2 min 0,000 mm 1,0 UV-I 519 W/m 6,8 C 11,7 C 4,8 km/h (1 Bft) 96,00 %
09.10.2016 15:10 11,6 C 71 % 1021,5 hPa 0,0 l/m 0,9 km/h (0 Bft) N-NW 337 0 min 0,000 mm 0,9 UV-I 241 W/m 6,5 C 11,6 C 3,2 km/h (1 Bft) 97,87 %
09.10.2016 15:12 11,4 C 72 % 1021,5 hPa 0,0 l/m 2,8 km/h (1 Bft) N-NO 15 0 min 0,000 mm 1,0 UV-I 192 W/m 6,5 C 11,4 C 4,8 km/h (1 Bft) 94,00 %
09.10.2016 15:14 11,4 C 74 % 1021,4 hPa 0,0 l/m 1,9 km/h (1 Bft) N-NW 340 2 min 0,000 mm 1,1 UV-I 490 W/m 6,9 C 11,4 C 4,8 km/h (1 Bft) 97,87 %
09.10.2016 15:16 11,4 C 70 % 1021,5 hPa 0,0 l/m 2,7 km/h (1 Bft) W-NW 302 2 min 0,000 mm 1,1 UV-I 486 W/m 6,1 C 11,4 C 4,8 km/h (1 Bft) 100,00 %
09.10.2016 15:18 11,3 C 72 % 1021,5 hPa 0,0 l/m 2,5 km/h (1 Bft) NW 313 2 min 0,000 mm 1,0 UV-I 265 W/m 6,4 C 11,3 C 4,8 km/h (1 Bft) 100,00 %
09.10.2016 15:20 11,2 C 72 % 1021,5 hPa 0,0 l/m 1,7 km/h (1 Bft) NW 321 0 min 0,000 mm 0,8 UV-I 175 W/m 6,3 C 11,2 C 4,8 km/h (1 Bft) 100,00 %
09.10.2016 15:22 11,0 C 71 % 1021,4 hPa 0,0 l/m 2,0 km/h (1 Bft) N 349 0 min 0,000 mm 0,8 UV-I 126 W/m 5,9 C 11,0 C 4,8 km/h (1 Bft) 100,00 %
09.10.2016 15:24 10,8 C 72 % 1021,4 hPa 0,0 l/m 1,7 km/h (1 Bft) N-NW 346 0 min 0,000 mm 0,8 UV-I 111 W/m 6,0 C 10,8 C 3,2 km/h (1 Bft) 97,87 %
09.10.2016 15:26 10,7 C 72 % 1021,4 hPa 0,0 l/m 0,8 km/h (0 Bft) N-NW 346 0 min 0,000 mm 0,7 UV-I 105 W/m 5,9 C 10,7 C 3,2 km/h (1 Bft) 97,87 %
09.10.2016 15:28 10,6 C 72 % 1021,4 hPa 0,0 l/m 0,2 km/h (0 Bft) N-NW 346 0 min 0,000 mm 0,8 UV-I 119 W/m 5,8 C 10,6 C 1,6 km/h (1 Bft) 100,00 %
09.10.2016 15:30 10,7 C 73 % 1021,4 hPa 0,0 l/m 0,3 km/h (0 Bft) N-NW 346 2 min 0,000 mm 0,9 UV-I 272 W/m 6,1 C 10,7 C 1,6 km/h (1 Bft) 97,96 %
09.10.2016 15:32 10,8 C 71 % 1021,4 hPa 0,0 l/m 0,2 km/h (0 Bft) N-NW 346 2 min 0,000 mm 0,9 UV-I 404 W/m 5,8 C 10,8 C 1,6 km/h (1 Bft) 100,00 %
09.10.2016 15:34 10,9 C 73 % 1021,4 hPa 0,0 l/m 1,0 km/h (0 Bft) N-NW 346 2 min 0,000 mm 0,9 UV-I 397 W/m 6,3 C 10,9 C 1,6 km/h (1 Bft) 100,00 %
09.10.2016 15:36 11,2 C 72 % 1021,4 hPa 0,0 l/m 0,5 km/h (0 Bft) N-NW 346 2 min 0,000 mm 0,9 UV-I 361 W/m 6,3 C 11,2 C 1,6 km/h (1 Bft) 98,00 %
09.10.2016 15:38 11,3 C 70 % 1021,3 hPa 0,0 l/m 1,8 km/h (1 Bft) N-NO 13 2 min 0,000 mm 0,9 UV-I 397 W/m 6,0 C 11,3 C 3,2 km/h (1 Bft) 95,74 %
09.10.2016 15:40 11,3 C 67 % 1021,3 hPa 0,0 l/m 0,7 km/h (0 Bft) N-NO 13 2 min 0,000 mm 0,9 UV-I 403 W/m 5,4 C 11,3 C 1,6 km/h (1 Bft) 100,00 %
09.10.2016 15:42 11,4 C 69 % 1021,3 hPa 0,0 l/m 2,1 km/h (1 Bft) N-NO 13 2 min 0,000 mm 0,9 UV-I 405 W/m 5,9 C 11,4 C 3,2 km/h (1 Bft) 100,00 %
09.10.2016 15:44 11,6 C 70 % 1021,3 hPa 0,0 l/m 1,8 km/h (1 Bft) N-NO 32 2 min 0,000 mm 0,8 UV-I 406 W/m 6,3 C 11,6 C 4,8 km/h (1 Bft) 97,87 %
09.10.2016 15:46 11,8 C 71 % 1021,3 hPa 0,0 l/m 0,5 km/h (0 Bft) N-NO 31 2 min 0,000 mm 0,8 UV-I 397 W/m 6,7 C 11,8 C 1,6 km/h (1 Bft) 97,87 %
09.10.2016 15:48 11,9 C 69 % 1021,3 hPa 0,0 l/m 1,5 km/h (1 Bft) NO 36 2 min 0,000 mm 0,8 UV-I 391 W/m 6,4 C 11,9 C 3,2 km/h (1 Bft) 100,00 %
09.10.2016 15:50 12,1 C 69 % 1021,3 hPa 0,0 l/m 5,3 km/h (1 Bft) N-NO 29 2 min 0,000 mm 0,8 UV-I 397 W/m 6,6 C 12,1 C 8,0 km/h (2 Bft) 93,62 %
09.10.2016 15:52 12,2 C 69 % 1021,2 hPa 0,0 l/m 3,4 km/h (1 Bft) N-NO 17 2 min 0,000 mm 0,8 UV-I 395 W/m 6,7 C 12,2 C 6,4 km/h (2 Bft) 97,87 %
09.10.2016 15:54 12,2 C 70 % 1021,2 hPa 0,0 l/m 2,1 km/h (1 Bft) N-NO 17 2 min 0,000 mm 0,7 UV-I 379 W/m 6,9 C 12,2 C 6,4 km/h (2 Bft) 95,74 %
09.10.2016 15:56 12,1 C 67 % 1021,2 hPa 0,0 l/m 4,0 km/h (1 Bft) N-NO 25 2 min 0,000 mm 0,7 UV-I 366 W/m 6,2 C 12,1 C 6,4 km/h (2 Bft) 98,00 %
09.10.2016 15:58 11,9 C 68 % 1021,2 hPa 0,0 l/m 2,8 km/h (1 Bft) N-NO 17 2 min 0,000 mm 0,7 UV-I 362 W/m 6,2 C 11,9 C 4,8 km/h (1 Bft) 95,74 %
09.10.2016 16:00 11,9 C 70 % 1021,2 hPa 0,0 l/m 2,1 km/h (1 Bft) N-NO 21 2 min 0,177 mm 0,7 UV-I 356 W/m 6,6 C 11,9 C 6,4 km/h (2 Bft) 97,87 %
09.10.2016 16:02 11,9 C 70 % 1021,2 hPa 0,0 l/m 3,5 km/h (1 Bft) N-NO 22 2 min 0,000 mm 0,7 UV-I 351 W/m 6,6 C 11,9 C 6,4 km/h (2 Bft) 97,87 %
09.10.2016 16:04 11,9 C 69 % 1021,2 hPa 0,0 l/m 3,4 km/h (1 Bft) N-NO 32 2 min 0,000 mm 0,7 UV-I 340 W/m 6,4 C 11,9 C 6,4 km/h (2 Bft) 100,00 %
09.10.2016 16:06 11,8 C 68 % 1021,2 hPa 0,0 l/m 1,3 km/h (1 Bft) N 5 2 min 0,000 mm 0,6 UV-I 333 W/m 6,1 C 11,8 C 3,2 km/h (1 Bft) 96,77 %
09.10.2016 16:08 11,8 C 65 % 1021,1 hPa 0,0 l/m 1,1 km/h (1 Bft) N-NO 22 2 min 0,000 mm 0,6 UV-I 334 W/m 5,4 C 11,8 C 4,8 km/h (1 Bft) 97,87 %
09.10.2016 16:10 11,8 C 69 % 1021,0 hPa 0,0 l/m 3,6 km/h (1 Bft) N-NO 21 2 min 0,000 mm 0,6 UV-I 338 W/m 6,3 C 11,8 C 6,4 km/h (2 Bft) 97,87 %
09.10.2016 16:12 11,8 C 70 % 1021,0 hPa 0,0 l/m 2,8 km/h (1 Bft) N-NO 22 2 min 0,000 mm 0,6 UV-I 339 W/m 6,5 C 11,8 C 6,4 km/h (2 Bft) 97,87 %
09.10.2016 16:14 11,7 C 69 % 1021,0 hPa 0,0 l/m 2,8 km/h (1 Bft) N-NO 24 2 min 0,000 mm 0,6 UV-I 337 W/m 6,2 C 11,7 C 4,8 km/h (1 Bft) 97,87 %
09.10.2016 16:16 11,8 C 71 % 1021,0 hPa 0,0 l/m 4,5 km/h (1 Bft) N-NO 27 2 min 0,000 mm 0,6 UV-I 332 W/m 6,7 C 11,8 C 6,4 km/h (2 Bft) 97,87 %
09.10.2016 16:18 11,8 C 67 % 1021,0 hPa 0,0 l/m 2,1 km/h (1 Bft) N-NO 21 2 min 0,000 mm 0,5 UV-I 327 W/m 5,9 C 11,8 C 4,8 km/h (1 Bft) 95,74 %
09.10.2016 16:20 11,9 C 68 % 1021,0 hPa 0,0 l/m 2,9 km/h (1 Bft) NO 38 2 min 0,000 mm 0,5 UV-I 320 W/m 6,2 C 11,9 C 8,0 km/h (2 Bft) 97,87 %
09.10.2016 16:22 11,9 C 66 % 1021,0 hPa 0,0 l/m 2,2 km/h (1 Bft) N-NO 24 2 min 0,000 mm 0,5 UV-I 316 W/m 5,8 C 11,9 C 6,4 km/h (2 Bft) 100,00 %
09.10.2016 16:24 11,9 C 68 % 1021,1 hPa 0,0 l/m 3,0 km/h (1 Bft) NW 321 2 min 0,000 mm 0,5 UV-I 307 W/m 6,2 C 11,9 C 4,8 km/h (1 Bft) 97,87 %
09.10.2016 16:26 11,8 C 67 % 1021,0 hPa 0,0 l/m 1,3 km/h (1 Bft) NW 322 2 min 0,000 mm 0,5 UV-I 301 W/m 5,9 C 11,8 C 3,2 km/h (1 Bft) 100,00 %
09.10.2016 16:28 11,7 C 68 % 1021,0 hPa 0,0 l/m 1,6 km/h (1 Bft) NO 37 2 min 0,000 mm 0,5 UV-I 294 W/m 6,0 C 11,7 C 4,8 km/h (1 Bft) 100,00 %
09.10.2016 16:30 11,8 C 69 % 1021,0 hPa 0,0 l/m 2,6 km/h (1 Bft) NO 41 2 min 0,000 mm 0,2 UV-I 286 W/m 6,3 C 11,8 C 4,8 km/h (1 Bft) 95,74 %
09.10.2016 16:32 11,8 C 69 % 1021,0 hPa 0,0 l/m 2,6 km/h (1 Bft) N-NO 12 2 min 0,000 mm 0,0 UV-I 281 W/m 6,3 C 11,8 C 4,8 km/h (1 Bft) 100,00 %
09.10.2016 16:34 11,8 C 71 % 1021,0 hPa 0,0 l/m 1,3 km/h (1 Bft) N 11 2 min 0,000 mm 0,0 UV-I 275 W/m 6,7 C 11,8 C 3,2 km/h (1 Bft) 100,00 %
09.10.2016 16:36 11,8 C 69 % 1021,0 hPa 0,0 l/m 4,2 km/h (1 Bft) N 5 2 min 0,000 mm 0,0 UV-I 265 W/m 6,3 C 11,8 C 11,3 km/h (2 Bft) 100,00 %
09.10.2016 16:38 11,7 C 70 % 1021,0 hPa 0,0 l/m 5,2 km/h (1 Bft) NO 36 2 min 0,000 mm 0,0 UV-I 260 W/m 6,4 C 11,7 C 8,0 km/h (2 Bft) 100,00 %
09.10.2016 16:40 11,7 C 71 % 1021,0 hPa 0,0 l/m 2,8 km/h (1 Bft) N-NO 19 2 min 0,000 mm 0,0 UV-I 258 W/m 6,6 C 11,7 C 6,4 km/h (2 Bft) 100,00 %
09.10.2016 16:42 11,6 C 69 % 1021,0 hPa 0,0 l/m 3,1 km/h (1 Bft) NO 34 2 min 0,000 mm 0,0 UV-I 252 W/m 6,1 C 11,6 C 6,4 km/h (2 Bft) 100,00 %
09.10.2016 16:44 11,6 C 72 % 1021,0 hPa 0,0 l/m 1,7 km/h (1 Bft) N-NO 15 2 min 0,000 mm 0,0 UV-I 244 W/m 6,7 C 11,6 C 4,8 km/h (1 Bft) 100,00 %
09.10.2016 16:46 11,6 C 71 % 1020,9 hPa 0,0 l/m 3,4 km/h (1 Bft) N 11 2 min 0,000 mm 0,0 UV-I 230 W/m 6,5 C 11,6 C 9,7 km/h (2 Bft) 100,00 %
09.10.2016 16:48 11,4 C 69 % 1020,9 hPa 0,0 l/m 3,8 km/h (1 Bft) N-NO 19 2 min 0,000 mm 0,0 UV-I 223 W/m 5,9 C 11,4 C 8,0 km/h (2 Bft) 98,00 %
09.10.2016 16:50 11,4 C 68 % 1020,9 hPa 0,0 l/m 2,6 km/h (1 Bft) N-NO 19 2 min 0,000 mm 0,0 UV-I 223 W/m 5,7 C 11,4 C 6,4 km/h (2 Bft) 97,87 %
09.10.2016 16:52 11,3 C 70 % 1020,9 hPa 0,0 l/m 3,5 km/h (1 Bft) N-NO 21 2 min 0,000 mm 0,0 UV-I 221 W/m 6,0 C 11,3 C 8,0 km/h (2 Bft) 100,00 %
09.10.2016 16:54 11,3 C 71 % 1021,0 hPa 0,0 l/m 1,7 km/h (1 Bft) N-NO 14 2 min 0,000 mm 0,0 UV-I 214 W/m 6,2 C 11,3 C 6,4 km/h (2 Bft) 95,74 %
09.10.2016 16:56 11,2 C 70 % 1021,0 hPa 0,0 l/m 1,5 km/h (1 Bft) N 355 2 min 0,000 mm 0,0 UV-I 203 W/m 5,9 C 11,2 C 3,2 km/h (1 Bft) 100,00 %
09.10.2016 16:58 11,3 C 70 % 1021,0 hPa 0,0 l/m 3,7 km/h (1 Bft) N-NO 27 2 min 0,000 mm 0,0 UV-I 197 W/m 6,0 C 11,3 C 8,0 km/h (2 Bft) 97,87 %
09.10.2016 17:00 11,3 C 69 % 1021,0 hPa 0,0 l/m 2,1 km/h (1 Bft) N 349 2 min 0,153 mm 0,0 UV-I 192 W/m 5,8 C 11,3 C 4,8 km/h (1 Bft) 95,74 %
09.10.2016 17:02 11,2 C 70 % 1021,0 hPa 0,0 l/m 1,3 km/h (1 Bft) N-NW 347 2 min 0,000 mm 0,0 UV-I 189 W/m 5,9 C 11,2 C 3,2 km/h (1 Bft) 100,00 %
09.10.2016 17:04 11,2 C 69 % 1021,0 hPa 0,0 l/m 1,1 km/h (1 Bft) N 355 2 min 0,000 mm 0,0 UV-I 180 W/m 5,7 C 11,2 C 3,2 km/h (1 Bft) 98,39 %
09.10.2016 17:06 11,1 C 69 % 1021,0 hPa 0,0 l/m 1,5 km/h (1 Bft) N-NW 335 2 min 0,000 mm 0,0 UV-I 149 W/m 5,6 C 11,1 C 3,2 km/h (1 Bft) 100,00 %
09.10.2016 17:08 11,1 C 69 % 1021,0 hPa 0,0 l/m 1,4 km/h (1 Bft) N-NW 336 0 min 0,000 mm 0,0 UV-I 111 W/m 5,6 C 11,1 C 3,2 km/h (1 Bft) 100,00 %
09.10.2016 17:10 10,9 C 67 % 1021,0 hPa 0,0 l/m 1,1 km/h (1 Bft) N-NW 327 2 min 0,000 mm 0,0 UV-I 166 W/m 5,0 C 10,9 C 3,2 km/h (1 Bft) 100,00 %
09.10.2016 17:12 10,9 C 71 % 1021,1 hPa 0,0 l/m 0,9 km/h (0 Bft) N-NW 330 2 min 0,000 mm 0,0 UV-I 174 W/m 5,9 C 10,9 C 1,6 km/h (1 Bft) 97,87 %
09.10.2016 17:14 10,9 C 69 % 1021,1 hPa 0,0 l/m 0,6 km/h (0 Bft) N-NW 338 2 min 0,000 mm 0,0 UV-I 166 W/m 5,4 C 10,9 C 1,6 km/h (1 Bft) 100,00 %
09.10.2016 17:16 10,8 C 68 % 1021,1 hPa 0,0 l/m 1,0 km/h (0 Bft) N-NW 339 2 min 0,000 mm 0,0 UV-I 142 W/m 5,1 C 10,8 C 3,2 km/h (1 Bft) 95,74 %
09.10.2016 17:18 10,8 C 70 % 1021,0 hPa 0,0 l/m 1,4 km/h (1 Bft) N-NO 22 0 min 0,000 mm 0,0 UV-I 60 W/m 5,6 C 10,8 C 4,8 km/h (1 Bft) 100,00 %
09.10.2016 17:20 10,8 C 72 % 1021,0 hPa 0,0 l/m 1,1 km/h (1 Bft) N 10 0 min 0,000 mm 0,0 UV-I 53 W/m 6,0 C 10,8 C 3,2 km/h (1 Bft) 100,00 %
09.10.2016 17:22 10,7 C 72 % 1021,1 hPa 0,0 l/m 1,2 km/h (1 Bft) N 9 0 min 0,000 mm 0,0 UV-I 51 W/m 5,9 C 10,7 C 3,2 km/h (1 Bft) 100,00 %
09.10.2016 17:24 10,6 C 72 % 1021,1 hPa 0,0 l/m 0,9 km/h (0 Bft) N 9 0 min 0,000 mm 0,0 UV-I 51 W/m 5,8 C 10,6 C 3,2 km/h (1 Bft) 100,00 %
09.10.2016 17:26 10,6 C 73 % 1021,1 hPa 0,0 l/m 1,2 km/h (1 Bft) N-NO 13 0 min 0,000 mm 0,0 UV-I 49 W/m 6,0 C 10,6 C 3,2 km/h (1 Bft) 100,00 %
09.10.2016 17:28 10,4 C 73 % 1021,1 hPa 0,0 l/m 1,1 km/h (1 Bft) N 11 0 min 0,000 mm 0,0 UV-I 47 W/m 5,8 C 10,4 C 3,2 km/h (1 Bft) 100,00 %
09.10.2016 17:30 10,4 C 74 % 1021,0 hPa 0,0 l/m 1,3 km/h (1 Bft) N 11 0 min 0,000 mm 0,0 UV-I 47 W/m 6,0 C 10,4 C 3,2 km/h (1 Bft) 97,87 %
09.10.2016 17:32 10,3 C 73 % 1021,1 hPa 0,0 l/m 1,5 km/h (1 Bft) N 360 0 min 0,000 mm 0,0 UV-I 47 W/m 5,7 C 10,3 C 3,2 km/h (1 Bft) 97,87 %
09.10.2016 17:34 10,3 C 74 % 1021,1 hPa 0,0 l/m 0,4 km/h (0 Bft) N 360 0 min 0,000 mm 0,0 UV-I 47 W/m 5,9 C 10,3 C 1,6 km/h (1 Bft) 100,00 %
09.10.2016 17:36 10,2 C 74 % 1021,1 hPa 0,0 l/m 0,5 km/h (0 Bft) N 360 0 min 0,000 mm 0,0 UV-I 46 W/m 5,8 C 10,2 C 1,6 km/h (1 Bft) 100,00 %
09.10.2016 17:38 10,2 C 75 % 1021,1 hPa 0,0 l/m 1,0 km/h (0 Bft) N 360 0 min 0,000 mm 0,0 UV-I 42 W/m 6,0 C 10,2 C 4,8 km/h (1 Bft) 100,00 %
09.10.2016 17:40 10,2 C 75 % 1021,1 hPa 0,0 l/m 0,6 km/h (0 Bft) N 5 0 min 0,000 mm 0,0 UV-I 38 W/m 6,0 C 10,2 C 3,2 km/h (1 Bft) 100,00 %
09.10.2016 17:42 10,1 C 76 % 1021,1 hPa 0,0 l/m 0,3 km/h (0 Bft) N 5 0 min 0,000 mm 0,0 UV-I 34 W/m 6,1 C 10,1 C 1,6 km/h (1 Bft) 93,62 %
09.10.2016 17:44 10,1 C 75 % 1021,1 hPa 0,0 l/m 2,2 km/h (1 Bft) N 5 0 min 0,000 mm 0,0 UV-I 32 W/m 5,9 C 10,1 C 3,2 km/h (1 Bft) 95,74 %
09.10.2016 17:46 10,0 C 75 % 1021,1 hPa 0,0 l/m 1,2 km/h (1 Bft) N 5 0 min 0,000 mm 0,0 UV-I 33 W/m 5,8 C 10,0 C 3,2 km/h (1 Bft) 100,00 %
09.10.2016 17:48 9,9 C 75 % 1021,1 hPa 0,0 l/m 2,4 km/h (1 Bft) N-NO 19 0 min 0,000 mm 0,0 UV-I 34 W/m 5,7 C 9,9 C 6,4 km/h (2 Bft) 97,87 %
09.10.2016 17:50 9,9 C 75 % 1021,1 hPa 0,0 l/m 4,1 km/h (1 Bft) N-NO 21 0 min 0,000 mm 0,0 UV-I 35 W/m 5,7 C 9,9 C 6,4 km/h (2 Bft) 100,00 %
09.10.2016 17:52 9,9 C 75 % 1021,1 hPa 0,0 l/m 4,9 km/h (1 Bft) N-NO 28 0 min 0,000 mm 0,0 UV-I 32 W/m 5,7 C 9,9 C 6,4 km/h (2 Bft) 95,74 %
09.10.2016 17:54 9,9 C 76 % 1021,1 hPa 0,0 l/m 3,3 km/h (1 Bft) N-NO 26 0 min 0,000 mm 0,0 UV-I 29 W/m 5,9 C 9,9 C 6,4 km/h (2 Bft) 95,74 %
09.10.2016 17:56 9,8 C 76 % 1021,2 hPa 0,0 l/m 3,7 km/h (1 Bft) N-NO 25 0 min 0,000 mm 0,0 UV-I 26 W/m 5,8 C 9,8 C 6,4 km/h (2 Bft) 97,37 %
09.10.2016 17:58 9,8 C 76 % 1021,2 hPa 0,0 l/m 5,4 km/h (1 Bft) N-NO 28 0 min 0,000 mm 0,0 UV-I 25 W/m 5,8 C 9,8 C 8,0 km/h (2 Bft) 97,87 %
09.10.2016 18:00 9,8 C 77 % 1021,2 hPa 0,0 l/m 3,6 km/h (1 Bft) N-NO 28 0 min 0,051 mm 0,0 UV-I 24 W/m 6,0 C 9,8 C 6,4 km/h (2 Bft) 97,87 %
09.10.2016 18:02 9,7 C 77 % 1021,2 hPa 0,0 l/m 4,3 km/h (1 Bft) NO 34 0 min 0,000 mm 0,0 UV-I 22 W/m 5,9 C 9,7 C 6,4 km/h (2 Bft) 96,00 %
09.10.2016 18:04 9,7 C 80 % 1021,2 hPa 0,0 l/m 3,2 km/h (1 Bft) N-NO 31 0 min 0,000 mm 0,0 UV-I 20 W/m 6,4 C 9,7 C 4,8 km/h (1 Bft) 95,74 %
09.10.2016 18:06 9,6 C 79 % 1021,2 hPa 0,0 l/m 2,4 km/h (1 Bft) N-NO 31 0 min 0,000 mm 0,0 UV-I 18 W/m 6,1 C 9,6 C 3,2 km/h (1 Bft) 97,87 %
09.10.2016 18:08 9,5 C 79 % 1021,2 hPa 0,0 l/m 2,3 km/h (1 Bft) N-NO 31 0 min 0,000 mm 0,0 UV-I 16 W/m 6,0 C 9,5 C 3,2 km/h (1 Bft) 97,92 %
09.10.2016 18:10 9,4 C 81 % 1021,2 hPa 0,0 l/m 1,9 km/h (1 Bft) N-NO 31 0 min 0,000 mm 0,0 UV-I 14 W/m 6,3 C 9,4 C 3,2 km/h (1 Bft) 97,87 %
09.10.2016 18:12 9,3 C 83 % 1021,2 hPa 0,0 l/m 0,9 km/h (0 Bft) N-NO 31 0 min 0,000 mm 0,0 UV-I 12 W/m 6,6 C 9,3 C 3,2 km/h (1 Bft) 97,87 %
09.10.2016 18:14 9,1 C 84 % 1021,3 hPa 0,0 l/m 1,1 km/h (1 Bft) N-NO 31 0 min 0,000 mm 0,0 UV-I 11 W/m 6,5 C 9,1 C 1,6 km/h (1 Bft) 95,74 %
09.10.2016 18:16 9,0 C 85 % 1021,3 hPa 0,0 l/m 1,0 km/h (0 Bft) N-NO 31 0 min 0,000 mm 0,0 UV-I 11 W/m 6,6 C 9,0 C 1,6 km/h (1 Bft) 97,87 %
09.10.2016 18:18 8,9 C 85 % 1021,3 hPa 0,0 l/m 1,7 km/h (1 Bft) N-NO 31 0 min 0,000 mm 0,0 UV-I 9 W/m 6,5 C 8,9 C 3,2 km/h (1 Bft) 96,00 %
09.10.2016 18:20 8,8 C 86 % 1021,3 hPa 0,0 l/m 1,3 km/h (1 Bft) N-NO 31 0 min 0,000 mm 0,0 UV-I 7 W/m 6,6 C 8,8 C 3,2 km/h (1 Bft) 95,74 %
09.10.2016 18:22 8,8 C 85 % 1021,3 hPa 0,0 l/m 2,2 km/h (1 Bft) N-NO 31 0 min 0,000 mm 0,0 UV-I 7 W/m 6,4 C 8,8 C 3,2 km/h (1 Bft) 94,74 %
09.10.2016 18:24 8,7 C 85 % 1021,3 hPa 0,0 l/m 1,7 km/h (1 Bft) N-NO 31 0 min 0,000 mm 0,0 UV-I 5 W/m 6,3 C 8,7 C 3,2 km/h (1 Bft) 98,00 %
09.10.2016 18:26 8,6 C 85 % 1021,3 hPa 0,0 l/m 1,1 km/h (1 Bft) N-NO 31 0 min 0,000 mm 0,0 UV-I 5 W/m 6,2 C 8,6 C 3,2 km/h (1 Bft) 97,87 %
09.10.2016 18:28 8,5 C 86 % 1021,3 hPa 0,0 l/m 1,0 km/h (0 Bft) N-NO 31 0 min 0,000 mm 0,0 UV-I 5 W/m 6,3 C 8,5 C 3,2 km/h (1 Bft) 98,00 %
09.10.2016 18:30 8,4 C 86 % 1021,3 hPa 0,0 l/m 1,9 km/h (1 Bft) N-NO 31 0 min 0,000 mm 0,0 UV-I 3 W/m 6,2 C 8,4 C 3,2 km/h (1 Bft) 95,74 %
09.10.2016 18:32 8,4 C 87 % 1021,3 hPa 0,0 l/m 1,0 km/h (0 Bft) N-NO 31 0 min 0,000 mm 0,0 UV-I 0 W/m 6,4 C 8,4 C 1,6 km/h (1 Bft) 95,74 %
09.10.2016 18:34 8,4 C 86 % 1021,3 hPa 0,0 l/m 0,0 km/h (0 Bft) N-NO 31 0 min 0,000 mm 0,0 UV-I 0 W/m 6,2 C 8,4 C 0,0 km/h (0 Bft) 98,00 %
09.10.2016 18:36 8,3 C 86 % 1021,4 hPa 0,0 l/m 0,0 km/h (0 Bft) N-NO 31 0 min 0,000 mm 0,0 UV-I 0 W/m 6,1 C 8,3 C 0,0 km/h (0 Bft) 97,87 %
09.10.2016 18:38 8,2 C 87 % 1021,4 hPa 0,0 l/m 0,0 km/h (0 Bft) N-NO 31 0 min 0,000 mm 0,0 UV-I 0 W/m 6,2 C 8,2 C 0,0 km/h (0 Bft) 93,62 %
09.10.2016 18:40 8,1 C 87 % 1021,4 hPa 0,0 l/m 0,0 km/h (0 Bft) N-NO 31 0 min 0,000 mm 0,0 UV-I 0 W/m 6,1 C 8,1 C 0,0 km/h (0 Bft) 97,14 %
09.10.2016 18:42 8,0 C 87 % 1021,4 hPa 0,0 l/m 0,0 km/h (0 Bft) N-NO 31 0 min 0,000 mm 0,0 UV-I 0 W/m 6,0 C 8,0 C 0,0 km/h (0 Bft) 97,92 %
09.10.2016 18:44 7,9 C 87 % 1021,4 hPa 0,0 l/m 0,0 km/h (0 Bft) N-NO 31 0 min 0,000 mm 0,0 UV-I 0 W/m 5,9 C 7,9 C 0,0 km/h (0 Bft) 100,00 %
09.10.2016 18:46 7,7 C 87 % 1021,4 hPa 0,0 l/m 0,0 km/h (0 Bft) N-NO 31 0 min 0,000 mm 0,0 UV-I 0 W/m 5,7 C 7,7 C 0,0 km/h (0 Bft) 97,87 %
09.10.2016 18:48 7,5 C 87 % 1021,4 hPa 0,0 l/m 0,4 km/h (0 Bft) N-NO 31 0 min 0,000 mm 0,0 UV-I 0 W/m 5,5 C 7,5 C 1,6 km/h (1 Bft) 100,00 %
09.10.2016 18:50 7,4 C 87 % 1021,5 hPa 0,0 l/m 1,7 km/h (1 Bft) N-NO 31 0 min 0,000 mm 0,0 UV-I 0 W/m 5,4 C 7,4 C 3,2 km/h (1 Bft) 97,87 %
09.10.2016 18:52 7,3 C 88 % 1021,5 hPa 0,0 l/m 2,8 km/h (1 Bft) N-NO 31 0 min 0,000 mm 0,0 UV-I 0 W/m 5,4 C 7,3 C 3,2 km/h (1 Bft) 100,00 %
09.10.2016 18:54 7,1 C 88 % 1021,5 hPa 0,0 l/m 2,4 km/h (1 Bft) N-NO 31 0 min 0,000 mm 0,0 UV-I 0 W/m 5,2 C 7,1 C 3,2 km/h (1 Bft) 100,00 %
09.10.2016 18:56 6,9 C 89 % 1021,5 hPa 0,0 l/m 1,8 km/h (1 Bft) N-NO 31 0 min 0,000 mm 0,0 UV-I 0 W/m 5,2 C 6,9 C 3,2 km/h (1 Bft) 97,87 %
09.10.2016 18:58 6,8 C 90 % 1021,6 hPa 0,0 l/m 1,1 km/h (1 Bft) N-NO 31 0 min 0,000 mm 0,0 UV-I 0 W/m 5,3 C 6,8 C 1,6 km/h (1 Bft) 100,00 %
09.10.2016 19:00 6,8 C 91 % 1021,6 hPa 0,0 l/m 0,1 km/h (0 Bft) N-NO 31 0 min 0,000 mm 0,0 UV-I 0 W/m 5,4 C 6,8 C 1,6 km/h (1 Bft) 100,00 %
09.10.2016 19:02 6,7 C 91 % 1021,6 hPa 0,0 l/m 1,3 km/h (1 Bft) N-NO 31 0 min 0,000 mm 0,0 UV-I 0 W/m 5,3 C 6,7 C 1,6 km/h (1 Bft) 93,62 %
09.10.2016 19:04 6,7 C 91 % 1021,7 hPa 0,0 l/m 1,5 km/h (1 Bft) N-NO 31 0 min 0,000 mm 0,0 UV-I 0 W/m 5,3 C 6,7 C 3,2 km/h (1 Bft) 100,00 %
09.10.2016 19:06 6,6 C 90 % 1021,7 hPa 0,0 l/m 1,8 km/h (1 Bft) N-NO 31 0 min 0,000 mm 0,0 UV-I 0 W/m 5,1 C 6,6 C 3,2 km/h (1 Bft) 100,00 %
09.10.2016 19:08 6,6 C 90 % 1021,7 hPa 0,0 l/m 1,7 km/h (1 Bft) N-NO 31 0 min 0,000 mm 0,0 UV-I 0 W/m 5,1 C 6,6 C 3,2 km/h (1 Bft) 100,00 %
09.10.2016 19:10 6,6 C 90 % 1021,6 hPa 0,0 l/m 0,5 km/h (0 Bft) N-NO 31 0 min 0,000 mm 0,0 UV-I 0 W/m 5,1 C 6,6 C 1,6 km/h (1 Bft) 100,00 %
09.10.2016 19:12 6,6 C 90 % 1021,7 hPa 0,0 l/m 0,2 km/h (0 Bft) N-NO 31 0 min 0,000 mm 0,0 UV-I 0 W/m 5,1 C 6,6 C 1,6 km/h (1 Bft) 100,00 %
09.10.2016 19:14 6,6 C 90 % 1021,7 hPa 0,0 l/m 0,0 km/h (0 Bft) N-NO 31 0 min 0,000 mm 0,0 UV-I 0 W/m 5,1 C 6,6 C 0,0 km/h (0 Bft) 100,00 %
09.10.2016 19:16 6,6 C 90 % 1021,8 hPa 0,0 l/m 0,2 km/h (0 Bft) N-NO 31 0 min 0,000 mm 0,0 UV-I 0 W/m 5,1 C 6,6 C 1,6 km/h (1 Bft) 100,00 %
09.10.2016 19:18 6,5 C 90 % 1021,7 hPa 0,0 l/m 1,8 km/h (1 Bft) N-NO 31 0 min 0,000 mm 0,0 UV-I 0 W/m 5,0 C 6,5 C 3,2 km/h (1 Bft) 97,87 %
09.10.2016 19:20 6,5 C 90 % 1021,7 hPa 0,0 l/m 2,1 km/h (1 Bft) N-NO 31 0 min 0,000 mm 0,0 UV-I 0 W/m 5,0 C 6,5 C 3,2 km/h (1 Bft) 97,87 %
09.10.2016 19:22 6,4 C 90 % 1021,8 hPa 0,0 l/m 1,3 km/h (1 Bft) N-NO 31 0 min 0,000 mm 0,0 UV-I 0 W/m 4,9 C 6,4 C 3,2 km/h (1 Bft) 100,00 %
09.10.2016 19:24 6,3 C 91 % 1021,8 hPa 0,0 l/m 2,8 km/h (1 Bft) O 89 0 min 0,000 mm 0,0 UV-I 0 W/m 4,9 C 6,3 C 4,8 km/h (1 Bft) 100,00 %
09.10.2016 19:26 6,3 C 91 % 1021,8 hPa 0,0 l/m 2,5 km/h (1 Bft) O 90 0 min 0,000 mm 0,0 UV-I 0 W/m 4,9 C 6,3 C 4,8 km/h (1 Bft) 100,00 %
09.10.2016 19:28 6,2 C 91 % 1021,8 hPa 0,0 l/m 2,9 km/h (1 Bft) O 90 0 min 0,000 mm 0,0 UV-I 0 W/m 4,8 C 6,2 C 3,2 km/h (1 Bft) 100,00 %
09.10.2016 19:30 6,0 C 90 % 1021,8 hPa 0,0 l/m 0,8 km/h (0 Bft) O 90 0 min 0,000 mm 0,0 UV-I 0 W/m 4,5 C 6,0 C 3,2 km/h (1 Bft) 100,00 %
09.10.2016 19:32 6,0 C 91 % 1021,8 hPa 0,0 l/m 1,1 km/h (1 Bft) O 90 0 min 0,000 mm 0,0 UV-I 0 W/m 4,6 C 6,0 C 3,2 km/h (1 Bft) 100,00 %
09.10.2016 19:34 6,1 C 91 % 1021,9 hPa 0,0 l/m 2,3 km/h (1 Bft) O 90 0 min 0,000 mm 0,0 UV-I 0 W/m 4,7 C 6,1 C 3,2 km/h (1 Bft) 100,00 %
09.10.2016 19:36 6,2 C 91 % 1021,8 hPa 0,0 l/m 2,4 km/h (1 Bft) O 91 0 min 0,000 mm 0,0 UV-I 0 W/m 4,8 C 6,2 C 3,2 km/h (1 Bft) 100,00 %
09.10.2016 19:38 6,2 C 90 % 1021,8 hPa 0,0 l/m 3,6 km/h (1 Bft) O 96 0 min 0,000 mm 0,0 UV-I 0 W/m 4,7 C 6,2 C 4,8 km/h (1 Bft) 100,00 %
09.10.2016 19:40 6,2 C 90 % 1021,9 hPa 0,0 l/m 4,0 km/h (1 Bft) O-SO 107 0 min 0,000 mm 0,0 UV-I 0 W/m 4,7 C 6,2 C 4,8 km/h (1 Bft) 100,00 %
09.10.2016 19:42 6,2 C 90 % 1021,9 hPa 0,0 l/m 2,2 km/h (1 Bft) O-SO 111 0 min 0,000 mm 0,0 UV-I 0 W/m 4,7 C 6,2 C 3,2 km/h (1 Bft) 95,74 %
09.10.2016 19:44 6,2 C 90 % 1021,9 hPa 0,0 l/m 0,3 km/h (0 Bft) O-SO 113 0 min 0,000 mm 0,0 UV-I 0 W/m 4,7 C 6,2 C 1,6 km/h (1 Bft) 97,87 %
09.10.2016 19:46 6,2 C 90 % 1022,0 hPa 0,0 l/m 0,1 km/h (0 Bft) O-SO 113 0 min 0,000 mm 0,0 UV-I 0 W/m 4,7 C 6,2 C 1,6 km/h (1 Bft) 97,87 %
09.10.2016 19:48 6,2 C 90 % 1021,9 hPa 0,0 l/m 0,3 km/h (0 Bft) O-SO 113 0 min 0,000 mm 0,0 UV-I 0 W/m 4,7 C 6,2 C 1,6 km/h (1 Bft) 97,87 %
09.10.2016 19:50 6,1 C 90 % 1022,0 hPa 0,0 l/m 0,4 km/h (0 Bft) O-SO 113 0 min 0,000 mm 0,0 UV-I 0 W/m 4,6 C 6,1 C 1,6 km/h (1 Bft) 100,00 %
09.10.2016 19:52 6,0 C 91 % 1021,9 hPa 0,0 l/m 0,5 km/h (0 Bft) O-SO 113 0 min 0,000 mm 0,0 UV-I 0 W/m 4,6 C 6,0 C 1,6 km/h (1 Bft) 97,87 %
09.10.2016 19:54 5,9 C 91 % 1022,0 hPa 0,0 l/m 0,6 km/h (0 Bft) O-SO 113 0 min 0,000 mm 0,0 UV-I 0 W/m 4,5 C 5,9 C 1,6 km/h (1 Bft) 100,00 %
09.10.2016 19:56 5,8 C 91 % 1022,0 hPa 0,0 l/m 0,7 km/h (0 Bft) O-SO 113 0 min 0,000 mm 0,0 UV-I 0 W/m 4,4 C 5,8 C 1,6 km/h (1 Bft) 97,87 %
09.10.2016 19:58 5,9 C 92 % 1022,0 hPa 0,0 l/m 0,1 km/h (0 Bft) O-SO 113 0 min 0,000 mm 0,0 UV-I 0 W/m 4,7 C 5,9 C 1,6 km/h (1 Bft) 100,00 %
09.10.2016 20:00 5,9 C 92 % 1022,0 hPa 0,0 l/m 0,0 km/h (0 Bft) O-SO 113 0 min 0,000 mm 0,0 UV-I 0 W/m 4,7 C 5,9 C 1,6 km/h (1 Bft) 97,87 %
09.10.2016 20:02 5,8 C 92 % 1022,0 hPa 0,0 l/m 0,0 km/h (0 Bft) O-SO 113 0 min 0,000 mm 0,0 UV-I 0 W/m 4,6 C 5,8 C 0,0 km/h (0 Bft) 100,00 %
09.10.2016 20:04 5,8 C 92 % 1022,0 hPa 0,0 l/m 0,6 km/h (0 Bft) O-SO 113 0 min 0,000 mm 0,0 UV-I 0 W/m 4,6 C 5,8 C 1,6 km/h (1 Bft) 100,00 %
09.10.2016 20:06 5,9 C 92 % 1022,1 hPa 0,0 l/m 0,2 km/h (0 Bft) O-SO 113 0 min 0,000 mm 0,0 UV-I 0 W/m 4,7 C 5,9 C 1,6 km/h (1 Bft) 95,74 %
09.10.2016 20:08 5,9 C 92 % 1022,1 hPa 0,0 l/m 0,0 km/h (0 Bft) O-SO 113 0 min 0,000 mm 0,0 UV-I 0 W/m 4,7 C 5,9 C 0,0 km/h (0 Bft) 95,74 %
09.10.2016 20:10 5,8 C 92 % 1022,1 hPa 0,0 l/m 0,0 km/h (0 Bft) O-SO 113 0 min 0,000 mm 0,0 UV-I 0 W/m 4,6 C 5,8 C 0,0 km/h (0 Bft) 97,87 %
09.10.2016 20:12 5,7 C 92 % 1022,1 hPa 0,0 l/m 0,2 km/h (0 Bft) O-SO 113 0 min 0,000 mm 0,0 UV-I 0 W/m 4,5 C 5,7 C 1,6 km/h (1 Bft) 98,00 %
09.10.2016 20:14 5,6 C 92 % 1022,1 hPa 0,0 l/m 0,2 km/h (0 Bft) O-SO 113 0 min 0,000 mm 0,0 UV-I 0 W/m 4,4 C 5,6 C 1,6 km/h (1 Bft) 97,87 %
09.10.2016 20:16 5,5 C 92 % 1022,1 hPa 0,0 l/m 0,5 km/h (0 Bft) O-SO 113 0 min 0,000 mm 0,0 UV-I 0 W/m 4,3 C 5,5 C 1,6 km/h (1 Bft) 97,87 %
09.10.2016 20:18 5,5 C 92 % 1022,1 hPa 0,0 l/m 0,2 km/h (0 Bft) O-SO 113 0 min 0,000 mm 0,0 UV-I 0 W/m 4,3 C 5,5 C 1,6 km/h (1 Bft) 97,87 %
09.10.2016 20:20 5,4 C 93 % 1022,1 hPa 0,0 l/m 0,2 km/h (0 Bft) O-SO 113 0 min 0,000 mm 0,0 UV-I 0 W/m 4,4 C 5,4 C 1,6 km/h (1 Bft) 93,62 %
09.10.2016 20:22 5,6 C 93 % 1022,1 hPa 0,0 l/m 0,3 km/h (0 Bft) O-SO 113 0 min 0,000 mm 0,0 UV-I 0 W/m 4,6 C 5,6 C 1,6 km/h (1 Bft) 96,00 %
09.10.2016 20:24 5,5 C 92 % 1022,1 hPa 0,0 l/m 0,7 km/h (0 Bft) O-SO 113 0 min 0,000 mm 0,0 UV-I 0 W/m 4,3 C 5,5 C 1,6 km/h (1 Bft) 95,74 %
09.10.2016 20:26 5,4 C 93 % 1022,1 hPa 0,0 l/m 0,2 km/h (0 Bft) O-SO 113 0 min 0,000 mm 0,0 UV-I 0 W/m 4,4 C 5,4 C 1,6 km/h (1 Bft) 97,96 %
09.10.2016 20:28 5,5 C 93 % 1022,1 hPa 0,0 l/m 0,8 km/h (0 Bft) O-SO 113 0 min 0,000 mm 0,0 UV-I 0 W/m 4,5 C 5,5 C 1,6 km/h (1 Bft) 91,43 %
09.10.2016 20:30 5,6 C 93 % 1022,1 hPa 0,0 l/m 0,8 km/h (0 Bft) O-SO 113 0 min 0,000 mm 0,0 UV-I 0 W/m 4,6 C 5,6 C 1,6 km/h (1 Bft) 98,00 %
09.10.2016 20:32 5,6 C 93 % 1022,2 hPa 0,0 l/m 1,3 km/h (1 Bft) O-SO 113 0 min 0,000 mm 0,0 UV-I 0 W/m 4,6 C 5,6 C 3,2 km/h (1 Bft) 95,74 %
09.10.2016 20:34 5,6 C 93 % 1022,2 hPa 0,0 l/m 1,7 km/h (1 Bft) O-SO 113 0 min 0,000 mm 0,0 UV-I 0 W/m 4,6 C 5,6 C 3,2 km/h (1 Bft) 95,74 %
09.10.2016 20:36 5,5 C 93 % 1022,2 hPa 0,0 l/m 1,8 km/h (1 Bft) O-SO 113 0 min 0,000 mm 0,0 UV-I 0 W/m 4,5 C 5,5 C 3,2 km/h (1 Bft) 97,87 %
09.10.2016 20:38 5,4 C 93 % 1022,2 hPa 0,0 l/m 1,9 km/h (1 Bft) O-SO 113 0 min 0,000 mm 0,0 UV-I 0 W/m 4,4 C 5,4 C 3,2 km/h (1 Bft) 93,62 %
09.10.2016 20:40 5,4 C 93 % 1022,2 hPa 0,0 l/m 1,1 km/h (1 Bft) O-SO 113 0 min 0,000 mm 0,0 UV-I 0 W/m 4,4 C 5,4 C 3,2 km/h (1 Bft) 96,00 %
09.10.2016 20:42 5,3 C 93 % 1022,2 hPa 0,0 l/m 0,5 km/h (0 Bft) O-SO 113 0 min 0,000 mm 0,0 UV-I 0 W/m 4,3 C 5,3 C 1,6 km/h (1 Bft) 100,00 %
09.10.2016 20:44 5,2 C 93 % 1022,2 hPa 0,0 l/m 0,3 km/h (0 Bft) O-SO 113 0 min 0,000 mm 0,0 UV-I 0 W/m 4,2 C 5,2 C 1,6 km/h (1 Bft) 100,00 %
09.10.2016 20:46 5,2 C 93 % 1022,3 hPa 0,0 l/m 0,0 km/h (0 Bft) O-SO 113 0 min 0,000 mm 0,0 UV-I 0 W/m 4,2 C 5,2 C 0,0 km/h (0 Bft) 100,00 %
09.10.2016 20:48 5,2 C 93 % 1022,3 hPa 0,0 l/m 0,0 km/h (0 Bft) O-SO 112 0 min 0,000 mm 0,0 UV-I 0 W/m 4,2 C 5,2 C 0,0 km/h (0 Bft) 100,00 %
09.10.2016 20:50 5,1 C 93 % 1022,3 hPa 0,0 l/m 0,0 km/h (0 Bft) O-SO 113 0 min 0,000 mm 0,0 UV-I 0 W/m 4,1 C 5,1 C 0,0 km/h (0 Bft) 95,74 %
09.10.2016 20:52 5,1 C 94 % 1022,4 hPa 0,0 l/m 0,0 km/h (0 Bft) O-SO 112 0 min 0,000 mm 0,0 UV-I 0 W/m 4,2 C 5,1 C 0,0 km/h (0 Bft) 100,00 %
09.10.2016 20:54 5,2 C 94 % 1022,4 hPa 0,0 l/m 0,0 km/h (0 Bft) O-SO 113 0 min 0,000 mm 0,0 UV-I 0 W/m 4,3 C 5,2 C 0,0 km/h (0 Bft) 100,00 %
09.10.2016 20:56 5,2 C 94 % 1022,4 hPa 0,0 l/m 0,3 km/h (0 Bft) O-SO 113 0 min 0,000 mm 0,0 UV-I 0 W/m 4,3 C 5,2 C 1,6 km/h (1 Bft) 100,00 %
09.10.2016 20:58 5,2 C 94 % 1022,4 hPa 0,0 l/m 0,0 km/h (0 Bft) O-SO 113 0 min 0,000 mm 0,0 UV-I 0 W/m 4,3 C 5,2 C 0,0 km/h (0 Bft) 100,00 %
09.10.2016 21:00 5,2 C 94 % 1022,5 hPa 0,0 l/m 0,0 km/h (0 Bft) O-SO 113 0 min 0,000 mm 0,0 UV-I 0 W/m 4,3 C 5,2 C 0,0 km/h (0 Bft) 100,00 %
09.10.2016 21:02 5,2 C 94 % 1022,5 hPa 0,0 l/m 0,0 km/h (0 Bft) O-SO 113 0 min 0,000 mm 0,0 UV-I 0 W/m 4,3 C 5,2 C 0,0 km/h (0 Bft) 100,00 %
09.10.2016 21:04 5,2 C 94 % 1022,5 hPa 0,0 l/m 0,0 km/h (0 Bft) O-SO 113 0 min 0,000 mm 0,0 UV-I 0 W/m 4,3 C 5,2 C 0,0 km/h (0 Bft) 97,87 %
09.10.2016 21:06 5,2 C 94 % 1022,5 hPa 0,0 l/m 0,0 km/h (0 Bft) O-SO 113 0 min 0,000 mm 0,0 UV-I 0 W/m 4,3 C 5,2 C 0,0 km/h (0 Bft) 97,87 %
09.10.2016 21:08 5,2 C 94 % 1022,5 hPa 0,0 l/m 0,0 km/h (0 Bft) O-SO 113 0 min 0,000 mm 0,0 UV-I 0 W/m 4,3 C 5,2 C 1,6 km/h (1 Bft) 97,87 %
09.10.2016 21:10 5,2 C 94 % 1022,5 hPa 0,0 l/m 0,3 km/h (0 Bft) O-SO 113 0 min 0,000 mm 0,0 UV-I 0 W/m 4,3 C 5,2 C 1,6 km/h (1 Bft) 100,00 %
09.10.2016 21:12 5,2 C 95 % 1022,5 hPa 0,0 l/m 0,8 km/h (0 Bft) O-SO 113 0 min 0,000 mm 0,0 UV-I 0 W/m 4,5 C 5,2 C 1,6 km/h (1 Bft) 100,00 %
09.10.2016 21:14 5,2 C 95 % 1022,5 hPa 0,0 l/m 0,2 km/h (0 Bft) O-SO 113 0 min 0,000 mm 0,0 UV-I 0 W/m 4,5 C 5,2 C 1,6 km/h (1 Bft) 97,37 %
09.10.2016 21:16 5,2 C 95 % 1022,6 hPa 0,0 l/m 0,3 km/h (0 Bft) O-NO 68 0 min 0,000 mm 0,0 UV-I 0 W/m 4,5 C 5,2 C 1,6 km/h (1 Bft) 97,87 %
09.10.2016 21:18 5,2 C 95 % 1022,6 hPa 0,0 l/m 0,3 km/h (0 Bft) O-NO 67 0 min 0,000 mm 0,0 UV-I 0 W/m 4,5 C 5,2 C 1,6 km/h (1 Bft) 100,00 %
09.10.2016 21:20 5,1 C 94 % 1022,6 hPa 0,0 l/m 0,9 km/h (0 Bft) O-NO 67 0 min 0,000 mm 0,0 UV-I 0 W/m 4,2 C 5,1 C 3,2 km/h (1 Bft) 100,00 %
09.10.2016 21:22 5,1 C 95 % 1022,6 hPa 0,0 l/m 0,0 km/h (0 Bft) O-NO 67 0 min 0,000 mm 0,0 UV-I 0 W/m 4,4 C 5,1 C 1,6 km/h (1 Bft) 95,83 %
09.10.2016 21:24 5,0 C 95 % 1022,7 hPa 0,0 l/m 0,0 km/h (0 Bft) O-NO 67 0 min 0,000 mm 0,0 UV-I 0 W/m 4,3 C 5,0 C 0,0 km/h (0 Bft) 98,00 %
09.10.2016 21:26 5,0 C 95 % 1022,6 hPa 0,0 l/m 0,1 km/h (0 Bft) O-NO 67 0 min 0,000 mm 0,0 UV-I 0 W/m 4,3 C 5,0 C 1,6 km/h (1 Bft) 100,00 %
09.10.2016 21:28 5,1 C 95 % 1022,6 hPa 0,0 l/m 2,0 km/h (1 Bft) O-NO 67 0 min 0,000 mm 0,0 UV-I 0 W/m 4,4 C 5,1 C 3,2 km/h (1 Bft) 100,00 %
09.10.2016 21:30 5,1 C 95 % 1022,6 hPa 0,0 l/m 3,0 km/h (1 Bft) O-NO 67 0 min 0,000 mm 0,0 UV-I 0 W/m 4,4 C 5,1 C 4,8 km/h (1 Bft) 100,00 %
09.10.2016 21:32 5,3 C 96 % 1022,6 hPa 0,0 l/m 2,2 km/h (1 Bft) O-NO 67 0 min 0,000 mm 0,0 UV-I 0 W/m 4,7 C 5,3 C 3,2 km/h (1 Bft) 100,00 %
09.10.2016 21:34 5,4 C 95 % 1022,7 hPa 0,0 l/m 0,8 km/h (0 Bft) O-NO 67 0 min 0,000 mm 0,0 UV-I 0 W/m 4,7 C 5,4 C 1,6 km/h (1 Bft) 95,74 %
09.10.2016 21:36 5,5 C 95 % 1022,7 hPa 0,0 l/m 1,7 km/h (1 Bft) O-NO 67 0 min 0,000 mm 0,0 UV-I 0 W/m 4,8 C 5,5 C 3,2 km/h (1 Bft) 100,00 %
09.10.2016 21:38 5,6 C 95 % 1022,7 hPa 0,0 l/m 3,1 km/h (1 Bft) O-NO 67 0 min 0,000 mm 0,0 UV-I 0 W/m 4,9 C 5,6 C 4,8 km/h (1 Bft) 100,00 %
09.10.2016 21:40 5,6 C 94 % 1022,7 hPa 0,0 l/m 2,9 km/h (1 Bft) O-NO 67 0 min 0,000 mm 0,0 UV-I 0 W/m 4,7 C 5,6 C 3,2 km/h (1 Bft) 100,00 %
09.10.2016 21:42 5,7 C 94 % 1022,7 hPa 0,0 l/m 2,4 km/h (1 Bft) O-NO 67 0 min 0,000 mm 0,0 UV-I 0 W/m 4,8 C 5,7 C 3,2 km/h (1 Bft) 100,00 %
09.10.2016 21:44 5,7 C 94 % 1022,7 hPa 0,0 l/m 1,0 km/h (0 Bft) O-NO 67 0 min 0,000 mm 0,0 UV-I 0 W/m 4,8 C 5,7 C 1,6 km/h (1 Bft) 100,00 %
09.10.2016 21:46 5,7 C 94 % 1022,7 hPa 0,0 l/m 0,1 km/h (0 Bft) O-NO 67 0 min 0,000 mm 0,0 UV-I 0 W/m 4,8 C 5,7 C 1,6 km/h (1 Bft) 95,74 %
09.10.2016 21:48 5,7 C 94 % 1022,7 hPa 0,0 l/m 0,0 km/h (0 Bft) O-NO 67 0 min 0,000 mm 0,0 UV-I 0 W/m 4,8 C 5,7 C 0,0 km/h (0 Bft) 100,00 %
09.10.2016 21:50 5,7 C 93 % 1022,7 hPa 0,0 l/m 0,0 km/h (0 Bft) O-NO 67 0 min 0,000 mm 0,0 UV-I 0 W/m 4,7 C 5,7 C 0,0 km/h (0 Bft) 97,87 %
09.10.2016 21:52 5,5 C 93 % 1022,8 hPa 0,0 l/m 0,0 km/h (0 Bft) O-NO 67 0 min 0,000 mm 0,0 UV-I 0 W/m 4,5 C 5,5 C 0,0 km/h (0 Bft) 97,14 %
09.10.2016 21:54 5,4 C 93 % 1022,8 hPa 0,0 l/m 0,1 km/h (0 Bft) O-NO 67 0 min 0,000 mm 0,0 UV-I 0 W/m 4,4 C 5,4 C 1,6 km/h (1 Bft) 100,00 %
09.10.2016 21:56 5,3 C 93 % 1022,8 hPa 0,0 l/m 1,3 km/h (1 Bft) O-NO 67 0 min 0,000 mm 0,0 UV-I 0 W/m 4,3 C 5,3 C 3,2 km/h (1 Bft) 100,00 %
09.10.2016 21:58 5,2 C 94 % 1022,8 hPa 0,0 l/m 0,0 km/h (0 Bft) O-NO 67 0 min 0,000 mm 0,0 UV-I 0 W/m 4,3 C 5,2 C 0,0 km/h (0 Bft) 100,00 %
09.10.2016 22:00 5,2 C 94 % 1022,8 hPa 0,0 l/m 0,0 km/h (0 Bft) O-NO 67 0 min 0,000 mm 0,0 UV-I 0 W/m 4,3 C 5,2 C 0,0 km/h (0 Bft) 100,00 %
09.10.2016 22:02 5,1 C 95 % 1022,8 hPa 0,0 l/m 0,2 km/h (0 Bft) O-NO 67 0 min 0,000 mm 0,0 UV-I 0 W/m 4,4 C 5,1 C 1,6 km/h (1 Bft) 100,00 %
09.10.2016 22:04 5,1 C 95 % 1022,8 hPa 0,0 l/m 1,4 km/h (1 Bft) O-NO 67 0 min 0,000 mm 0,0 UV-I 0 W/m 4,4 C 5,1 C 3,2 km/h (1 Bft) 100,00 %
09.10.2016 22:06 5,2 C 95 % 1022,8 hPa 0,0 l/m 0,4 km/h (0 Bft) O-NO 67 0 min 0,000 mm 0,0 UV-I 0 W/m 4,5 C 5,2 C 1,6 km/h (1 Bft) 97,87 %
09.10.2016 22:08 5,2 C 95 % 1022,9 hPa 0,0 l/m 0,0 km/h (0 Bft) O-NO 67 0 min 0,000 mm 0,0 UV-I 0 W/m 4,5 C 5,2 C 0,0 km/h (0 Bft) 100,00 %
09.10.2016 22:10 5,2 C 95 % 1022,8 hPa 0,0 l/m 0,6 km/h (0 Bft) O-NO 67 0 min 0,000 mm 0,0 UV-I 0 W/m 4,5 C 5,2 C 1,6 km/h (1 Bft) 100,00 %
09.10.2016 22:12 5,2 C 95 % 1022,9 hPa 0,0 l/m 1,6 km/h (1 Bft) O-NO 67 0 min 0,000 mm 0,0 UV-I 0 W/m 4,5 C 5,2 C 3,2 km/h (1 Bft) 95,74 %
09.10.2016 22:14 5,2 C 95 % 1022,8 hPa 0,0 l/m 1,3 km/h (1 Bft) O-NO 67 0 min 0,000 mm 0,0 UV-I 0 W/m 4,5 C 5,2 C 3,2 km/h (1 Bft) 98,00 %
09.10.2016 22:16 5,2 C 95 % 1022,9 hPa 0,0 l/m 0,6 km/h (0 Bft) O-NO 67 0 min 0,000 mm 0,0 UV-I 0 W/m 4,5 C 5,2 C 1,6 km/h (1 Bft) 97,87 %
09.10.2016 22:18 5,2 C 95 % 1022,9 hPa 0,0 l/m 0,7 km/h (0 Bft) O-NO 67 0 min 0,000 mm 0,0 UV-I 0 W/m 4,5 C 5,2 C 1,6 km/h (1 Bft) 97,87 %
09.10.2016 22:20 5,2 C 95 % 1022,9 hPa 0,0 l/m 0,6 km/h (0 Bft) O-NO 67 0 min 0,000 mm 0,0 UV-I 0 W/m 4,5 C 5,2 C 1,6 km/h (1 Bft) 95,74 %
09.10.2016 22:22 5,2 C 95 % 1022,9 hPa 0,0 l/m 0,7 km/h (0 Bft) O-NO 67 0 min 0,000 mm 0,0 UV-I 0 W/m 4,5 C 5,2 C 1,6 km/h (1 Bft) 97,87 %
09.10.2016 22:24 5,1 C 95 % 1022,9 hPa 0,0 l/m 1,5 km/h (1 Bft) O-NO 67 0 min 0,000 mm 0,0 UV-I 0 W/m 4,4 C 5,1 C 3,2 km/h (1 Bft) 97,87 %
09.10.2016 22:26 5,1 C 95 % 1022,9 hPa 0,0 l/m 1,7 km/h (1 Bft) O-NO 67 0 min 0,000 mm 0,0 UV-I 0 W/m 4,4 C 5,1 C 3,2 km/h (1 Bft) 97,37 %
09.10.2016 22:28 5,2 C 95 % 1022,9 hPa 0,0 l/m 1,8 km/h (1 Bft) O-NO 67 0 min 0,000 mm 0,0 UV-I 0 W/m 4,5 C 5,2 C 3,2 km/h (1 Bft) 97,87 %
09.10.2016 22:30 5,3 C 95 % 1022,9 hPa 0,0 l/m 1,6 km/h (1 Bft) O-NO 67 0 min 0,000 mm 0,0 UV-I 0 W/m 4,6 C 5,3 C 3,2 km/h (1 Bft) 97,87 %
09.10.2016 22:32 5,3 C 95 % 1022,9 hPa 0,0 l/m 0,8 km/h (0 Bft) O-NO 67 0 min 0,000 mm 0,0 UV-I 0 W/m 4,6 C 5,3 C 1,6 km/h (1 Bft) 95,74 %
09.10.2016 22:34 5,2 C 95 % 1022,9 hPa 0,0 l/m 0,0 km/h (0 Bft) O-NO 67 0 min 0,000 mm 0,0 UV-I 0 W/m 4,5 C 5,2 C 0,0 km/h (0 Bft) 97,87 %
09.10.2016 22:36 5,2 C 95 % 1023,0 hPa 0,0 l/m 0,0 km/h (0 Bft) O-NO 67 0 min 0,000 mm 0,0 UV-I 0 W/m 4,5 C 5,2 C 0,0 km/h (0 Bft) 97,87 %
09.10.2016 22:38 5,1 C 94 % 1023,0 hPa 0,0 l/m 0,0 km/h (0 Bft) O-NO 67 0 min 0,000 mm 0,0 UV-I 0 W/m 4,2 C 5,1 C 0,0 km/h (0 Bft) 97,87 %
09.10.2016 22:40 4,9 C 94 % 1023,0 hPa 0,0 l/m 0,0 km/h (0 Bft) O-NO 67 0 min 0,000 mm 0,0 UV-I 0 W/m 4,0 C 4,9 C 0,0 km/h (0 Bft) 95,83 %
09.10.2016 22:42 4,9 C 94 % 1023,0 hPa 0,0 l/m 0,0 km/h (0 Bft) O-NO 67 0 min 0,000 mm 0,0 UV-I 0 W/m 4,0 C 4,9 C 0,0 km/h (0 Bft) 95,74 %
09.10.2016 22:44 4,8 C 95 % 1023,0 hPa 0,0 l/m 0,2 km/h (0 Bft) O-NO 67 0 min 0,000 mm 0,0 UV-I 0 W/m 4,1 C 4,8 C 1,6 km/h (1 Bft) 93,62 %
09.10.2016 22:46 4,7 C 94 % 1023,0 hPa 0,0 l/m 0,5 km/h (0 Bft) O-NO 67 0 min 0,000 mm 0,0 UV-I 0 W/m 3,8 C 4,7 C 1,6 km/h (1 Bft) 97,87 %
09.10.2016 22:48 4,7 C 95 % 1022,9 hPa 0,0 l/m 2,8 km/h (1 Bft) O 96 0 min 0,000 mm 0,0 UV-I 0 W/m 4,0 C 4,7 C 4,8 km/h (1 Bft) 97,87 %
09.10.2016 22:50 4,7 C 95 % 1023,0 hPa 0,0 l/m 2,9 km/h (1 Bft) O 101 0 min 0,000 mm 0,0 UV-I 0 W/m 4,0 C 4,7 C 4,8 km/h (1 Bft) 97,87 %
09.10.2016 22:52 4,7 C 95 % 1023,0 hPa 0,0 l/m 3,2 km/h (1 Bft) O 101 0 min 0,000 mm 0,0 UV-I 0 W/m 4,0 C 4,7 C 4,8 km/h (1 Bft) 100,00 %
09.10.2016 22:54 4,8 C 95 % 1023,0 hPa 0,0 l/m 2,4 km/h (1 Bft) O 101 0 min 0,000 mm 0,0 UV-I 0 W/m 4,1 C 4,8 C 3,2 km/h (1 Bft) 100,00 %
09.10.2016 22:56 4,8 C 95 % 1023,0 hPa 0,0 l/m 2,5 km/h (1 Bft) O 101 0 min 0,000 mm 0,0 UV-I 0 W/m 4,1 C 4,8 C 4,8 km/h (1 Bft) 100,00 %
09.10.2016 22:58 4,8 C 95 % 1023,1 hPa 0,0 l/m 1,2 km/h (1 Bft) O 101 0 min 0,000 mm 0,0 UV-I 0 W/m 4,1 C 4,8 C 3,2 km/h (1 Bft) 97,87 %
09.10.2016 23:00 4,8 C 95 % 1023,1 hPa 0,0 l/m 0,0 km/h (0 Bft) O 101 0 min 0,000 mm 0,0 UV-I 0 W/m 4,1 C 4,8 C 0,0 km/h (0 Bft) 100,00 %
09.10.2016 23:02 4,8 C 95 % 1023,1 hPa 0,0 l/m 0,1 km/h (0 Bft) O 101 0 min 0,000 mm 0,0 UV-I 0 W/m 4,1 C 4,8 C 1,6 km/h (1 Bft) 100,00 %
09.10.2016 23:04 4,7 C 95 % 1023,1 hPa 0,0 l/m 0,1 km/h (0 Bft) O 101 0 min 0,000 mm 0,0 UV-I 0 W/m 4,0 C 4,7 C 1,6 km/h (1 Bft) 100,00 %
09.10.2016 23:06 4,7 C 95 % 1023,0 hPa 0,0 l/m 0,0 km/h (0 Bft) O 101 0 min 0,000 mm 0,0 UV-I 0 W/m 4,0 C 4,7 C 0,0 km/h (0 Bft) 97,87 %
09.10.2016 23:08 4,7 C 95 % 1023,1 hPa 0,0 l/m 0,0 km/h (0 Bft) O 101 0 min 0,000 mm 0,0 UV-I 0 W/m 4,0 C 4,7 C 0,0 km/h (0 Bft) 100,00 %
09.10.2016 23:10 4,6 C 95 % 1023,1 hPa 0,0 l/m 0,0 km/h (0 Bft) O 101 0 min 0,000 mm 0,0 UV-I 0 W/m 3,9 C 4,6 C 0,0 km/h (0 Bft) 100,00 %
09.10.2016 23:12 4,6 C 95 % 1023,1 hPa 0,0 l/m 0,0 km/h (0 Bft) O 101 0 min 0,000 mm 0,0 UV-I 0 W/m 3,9 C 4,6 C 1,6 km/h (1 Bft) 97,87 %
09.10.2016 23:14 4,5 C 95 % 1023,1 hPa 0,0 l/m 0,4 km/h (0 Bft) O 101 0 min 0,000 mm 0,0 UV-I 0 W/m 3,8 C 4,5 C 1,6 km/h (1 Bft) 100,00 %
09.10.2016 23:16 4,4 C 95 % 1023,1 hPa 0,0 l/m 0,2 km/h (0 Bft) O 101 0 min 0,000 mm 0,0 UV-I 0 W/m 3,7 C 4,4 C 1,6 km/h (1 Bft) 100,00 %
09.10.2016 23:18 4,4 C 95 % 1023,1 hPa 0,0 l/m 0,2 km/h (0 Bft) O 101 0 min 0,000 mm 0,0 UV-I 0 W/m 3,7 C 4,4 C 1,6 km/h (1 Bft) 93,62 %
09.10.2016 23:20 4,4 C 95 % 1023,1 hPa 0,0 l/m 1,0 km/h (0 Bft) O 101 0 min 0,000 mm 0,0 UV-I 0 W/m 3,7 C 4,4 C 1,6 km/h (1 Bft) 100,00 %
09.10.2016 23:22 4,4 C 95 % 1023,1 hPa 0,0 l/m 1,3 km/h (1 Bft) O 101 0 min 0,000 mm 0,0 UV-I 0 W/m 3,7 C 4,4 C 1,6 km/h (1 Bft) 100,00 %
09.10.2016 23:24 4,4 C 95 % 1023,1 hPa 0,0 l/m 0,7 km/h (0 Bft) O 101 0 min 0,000 mm 0,0 UV-I 0 W/m 3,7 C 4,4 C 1,6 km/h (1 Bft) 98,00 %
09.10.2016 23:26 4,4 C 95 % 1023,1 hPa 0,0 l/m 0,7 km/h (0 Bft) O 101 0 min 0,000 mm 0,0 UV-I 0 W/m 3,7 C 4,4 C 1,6 km/h (1 Bft) 100,00 %
09.10.2016 23:28 4,4 C 96 % 1023,1 hPa 0,0 l/m 0,5 km/h (0 Bft) O 101 0 min 0,000 mm 0,0 UV-I 0 W/m 3,8 C 4,4 C 3,2 km/h (1 Bft) 100,00 %
09.10.2016 23:30 4,4 C 96 % 1023,1 hPa 0,0 l/m 1,2 km/h (1 Bft) O 101 0 min 0,000 mm 0,0 UV-I 0 W/m 3,8 C 4,4 C 3,2 km/h (1 Bft) 100,00 %
09.10.2016 23:32 4,4 C 95 % 1023,1 hPa 0,0 l/m 0,1 km/h (0 Bft) O 101 0 min 0,000 mm 0,0 UV-I 0 W/m 3,7 C 4,4 C 1,6 km/h (1 Bft) 100,00 %
09.10.2016 23:34 4,4 C 96 % 1023,1 hPa 0,0 l/m 0,0 km/h (0 Bft) O 101 0 min 0,000 mm 0,0 UV-I 0 W/m 3,8 C 4,4 C 0,0 km/h (0 Bft) 100,00 %
09.10.2016 23:36 4,4 C 95 % 1023,1 hPa 0,0 l/m 0,1 km/h (0 Bft) O 101 0 min 0,000 mm 0,0 UV-I 0 W/m 3,7 C 4,4 C 1,6 km/h (1 Bft) 100,00 %
09.10.2016 23:38 4,3 C 95 % 1023,1 hPa 0,0 l/m 0,3 km/h (0 Bft) O 101 0 min 0,000 mm 0,0 UV-I 0 W/m 3,6 C 4,3 C 1,6 km/h (1 Bft) 93,62 %
09.10.2016 23:40 4,3 C 95 % 1023,1 hPa 0,0 l/m 0,6 km/h (0 Bft) O 101 0 min 0,000 mm 0,0 UV-I 0 W/m 3,6 C 4,3 C 1,6 km/h (1 Bft) 96,00 %
09.10.2016 23:42 4,3 C 95 % 1023,1 hPa 0,0 l/m 1,7 km/h (1 Bft) O 101 0 min 0,000 mm 0,0 UV-I 0 W/m 3,6 C 4,3 C 3,2 km/h (1 Bft) 100,00 %
09.10.2016 23:44 4,2 C 95 % 1023,1 hPa 0,0 l/m 0,9 km/h (0 Bft) O 101 0 min 0,000 mm 0,0 UV-I 0 W/m 3,5 C 4,2 C 3,2 km/h (1 Bft) 97,87 %
09.10.2016 23:46 4,3 C 96 % 1023,1 hPa 0,0 l/m 0,6 km/h (0 Bft) O 101 0 min 0,000 mm 0,0 UV-I 0 W/m 3,7 C 4,3 C 1,6 km/h (1 Bft) 97,87 %
09.10.2016 23:48 4,3 C 96 % 1023,1 hPa 0,0 l/m 0,0 km/h (0 Bft) O 101 0 min 0,000 mm 0,0 UV-I 0 W/m 3,7 C 4,3 C 0,0 km/h (0 Bft) 100,00 %
09.10.2016 23:50 4,3 C 96 % 1023,1 hPa 0,0 l/m 0,0 km/h (0 Bft) O 101 0 min 0,000 mm 0,0 UV-I 0 W/m 3,7 C 4,3 C 0,0 km/h (0 Bft) 100,00 %
09.10.2016 23:52 4,2 C 96 % 1023,1 hPa 0,0 l/m 0,0 km/h (0 Bft) O 101 0 min 0,000 mm 0,0 UV-I 0 W/m 3,6 C 4,2 C 0,0 km/h (0 Bft) 100,00 %
09.10.2016 23:54 4,2 C 96 % 1023,1 hPa 0,0 l/m 0,0 km/h (0 Bft) O 101 0 min 0,000 mm 0,0 UV-I 0 W/m 3,6 C 4,2 C 0,0 km/h (0 Bft) 100,00 %
09.10.2016 23:56 4,2 C 96 % 1023,1 hPa 0,0 l/m 0,0 km/h (0 Bft) O 101 0 min 0,000 mm 0,0 UV-I 0 W/m 3,6 C 4,2 C 0,0 km/h (0 Bft) 100,00 %
09.10.2016 23:58 4,2 C 96 % 1023,1 hPa 0,0 l/m 0,0 km/h (0 Bft) O 101 0 min 0,000 mm 0,0 UV-I 0 W/m 3,6 C 4,2 C 0,0 km/h (0 Bft) 100,00 %
_ Min-Zeit 07:20 16:08 16:46 - 07:08 - - - - - - 07:20 01:32 07:08 00:26
Minimum _ 3,4 C 65 % 1020,9 hPa - 0,0 km/h (0 Bft) - - - - - - 2,8 C 2,4 C 0,0 km/h (0 Bft) 89,36 %
_ Max-Zeit 15:52 08:22 22:58 00:00 01:32 - - 07:26 14:00 12:52 11:56 12:28 15:52 01:52 00:30
Maximum _ 12,2 C 98 % 1023,1 hPa 0,0 l/m 11,8 km/h
W-SW (2 Bft)
- - 2 min 0,254 mm 2,1 UV-I 743 W/m 8,2 C 12,2 C 17,7 km/h
SW (3 Bft)
100,00 %
Durchschnitt _ 7,1 C 89 % 1021,9 hPa #0,0 l/m 3,2 km/h (1 Bft) W-SW - #5:54 h #1,499 mm 1,3 UV-I 273 W/m 5,3 C 6,9 C 5,8 km/h (2 Bft) 98,36 %